[[{"header":{"parameterUnit":"m.s-1","parameterCategory":1,"la1":31.0,"la2":29.5877,"lo1":-88.7671,"lo2":-86.6584,"dy":0.0162,"dx":0.0185,"nx":115,"ny":88,"refTime":"2026-05-03T00:00:00:Z","depth":0,"parameterNumber":2,"parameterNumberName":"U-component_of_WINDS"},"data":[0.0,0.0,0.0,0.0,0.0,0.0,0.0,0.0,0.0,0.0,0.0,0.0,0.0,0.0,0.0,0.0,0.0,0.0,0.0,0.0,0.0,0.0,0.0,0.0,0.0,0.0,0.0,0.0,0.0,0.0,0.0,0.0,0.0,0.0,0.0,0.0,0.0,0.0,0.0,0.0,0.0,0.0,0.0,0.0,0.0,0.0,0.0,0.0,0.0,0.0,0.0,0.0,0.0,0.0,0.0,0.0,0.0,0.0,0.0,0.0,0.0,0.0,0.0,0.0,0.0,0.0,0.0,0.0,0.0,0.0,0.0,0.0,0.0,0.0,0.0,0.0,0.0,0.0,0.0,0.0,0.0,0.0,0.0,0.0,0.0,0.0,0.0,0.0,0.0,0.0,0.0,0.0,0.0,0.0,0.0,0.0,0.0,0.0,0.0,0.0,0.0,0.0,0.0,0.0,0.0,0.0,0.0,0.0,0.0,0.0,0.0,0.0,0.0,0.0,0.0,0.0,0.0,0.0,0.0,0.0,0.0,0.0,0.0,0.0,0.0,0.0,0.0,0.0,0.0,0.0,0.0,0.0,0.0,0.0,0.0,0.0,0.0,0.0,0.0,0.0,0.0,0.0,0.0,0.0,0.0,0.0,0.0,0.0,0.0,0.0,0.0,0.0,0.0,0.0,0.0,0.0,0.0,0.0,0.0,0.0,0.0,0.0,0.0,0.0,0.0,0.0,0.0,0.0,0.0,0.0,0.0,0.0,0.0,0.0,0.0,0.0,0.0,0.0,0.0,0.0,0.0,0.0,0.0,0.0,0.0,0.0,0.0,0.0,0.0,0.0,0.0,0.0,0.0,0.0,0.0,0.0,0.0,0.0,0.0,0.0,0.0,0.0,0.0,0.0,0.0,0.0,0.0,0.0,0.0,0.0,0.0,0.0,0.0,0.0,0.0,0.0,0.0,0.0,0.0,0.0,0.0,0.0,0.0,0.0,0.0,0.0,0.0,0.0,0.0,0.0,0.0,0.0,0.0,0.0,0.0,0.0,0.0,0.0,0.0,0.0,0.0,0.0,0.0,0.0,0.0,0.0,0.0,0.0,0.0,0.0,0.0,0.0,0.0,0.0,0.0,0.0,0.0,0.0,0.0,0.0,0.0,0.0,0.0,0.0,0.0,0.0,0.0,0.0,0.0,0.0,0.0,0.0,0.0,0.0,0.0,0.0,0.0,0.0,0.0,0.0,0.0,0.0,0.0,0.0,0.0,0.0,0.0,0.0,0.0,0.0,0.0,0.0,0.0,0.0,0.0,0.0,0.0,0.0,0.0,0.0,0.0,0.0,0.0,0.0,0.0,0.0,0.0,0.0,0.0,0.0,0.0,0.0,0.0,0.0,0.0,0.0,0.0,0.0,0.0,0.0,0.0,0.0,0.0,0.0,0.0,0.0,0.0,0.0,0.0,0.0,0.0,0.0,0.0,0.0,0.0,0.0,0.0,0.0,0.0,0.0,0.0,0.0,0.0,0.0,0.0,0.0,0.0,0.0,0.0,0.0,0.0,0.0,0.0,0.0,0.0,0.0,0.0,0.0,0.0,0.0,0.0,0.0,0.0,0.0,0.0,0.0,0.0,0.0,0.0,0.0,0.0,0.0,0.0,0.0,0.0,0.0,0.0,0.0,0.0,0.0,0.0,0.0,0.0,0.0,0.0,0.0,0.0,0.0,0.0,0.0,0.0,0.0,0.0,0.0,0.0,0.0,0.0,0.0,0.0,0.0,0.0,0.0,0.0,0.0,0.0,0.0,0.0,0.0,0.0,0.0,0.0,0.0,0.0,0.0,0.0,0.0,0.0,0.0,0.0,0.0,0.0,0.0,0.0,0.0,0.0,0.0,0.0,0.0,0.0,0.0,0.0,0.0,0.0,0.0,0.0,0.0,0.0,0.0,0.0,0.0,0.0,0.0,0.0,0.0,0.0,0.0,0.0,0.0,0.0,0.0,0.0,0.0,0.0,0.0,0.0,0.0,0.0,0.0,0.0,0.0,0.0,0.0,0.0,0.0,0.0,0.0,0.0,0.0,0.0,0.0,0.0,0.0,0.0,0.0,0.0,0.0,0.0,0.0,0.0,0.0,0.0,0.0,0.0,0.0,0.0,0.0,0.0,0.0,0.0,0.0,0.0,0.0,0.0,0.0,0.0,0.0,0.0,0.0,0.0,0.0,0.0,0.0,0.0,0.0,0.0,0.0,0.0,0.0,0.0,0.0,0.0,0.0,0.0,0.0,0.0,0.0,0.0,0.0,0.0,0.0,0.0,0.0,0.0,0.0,0.0,0.0,0.0,0.0,0.0,0.0,0.0,0.0,0.0,0.0,0.0,0.0,0.0,0.0,0.0,0.0,0.0,0.0,0.0,0.0,0.0,0.0,0.0,0.0,0.0,0.0,0.0,0.0,0.0,0.0,0.0,0.0,0.0,0.0,0.0,0.0,0.0,0.0,0.0,0.0,0.0,0.0,0.0,0.0,0.0,0.0,0.0,0.0,0.0,0.0,0.0,0.0,0.0,0.0,0.0,0.0,0.0,0.0,0.0,0.0,0.0,0.0,0.0,0.0,0.0,0.0,0.0,0.0,0.0,0.0,0.0,0.0,0.0,0.0,0.0,0.0,0.0,0.0,0.0,0.0,0.0,0.0,0.0,0.0,0.0,0.0,0.0,0.0,0.0,0.0,0.0,0.0,0.0,0.0,0.0,0.0,0.0,0.0,0.0,0.0,0.0,0.0,0.0,0.0,0.0,0.0,0.0,0.0,0.0,0.0,0.0,0.0,0.0,0.0,0.0,0.0,0.0,0.0,0.0,0.0,0.0,0.0,0.0,0.0,0.0,0.0,0.0,0.0,0.0,0.0,0.0,0.0,0.0,0.0,0.0,0.0,0.0,0.0,0.0,0.0,0.0,0.0,0.0,0.0,0.0,0.0,0.0,0.0,0.0,0.0,0.0,0.0,0.0,0.0,0.0,0.0,0.0,0.0,0.0,0.0,0.0,0.0,0.0,0.0,0.0,0.0,0.0,0.0,0.0,0.0,0.0,0.0,0.0,0.0,0.0,0.0,0.0,0.0,0.0,0.0,0.0,0.0,0.0,0.0,0.0,0.0,0.0,0.0,0.0,0.0,0.0,0.0,0.0,0.0,0.0,0.0,0.0,0.0,0.0,0.0,0.0,0.0,0.0,0.0,0.0,0.0,0.0,0.0,0.0,0.0,0.0,0.0,0.0,0.0,0.0,0.0,0.0,0.0,0.0,0.0,0.0,0.0,0.0,0.0,0.0,0.0,0.0,0.0,0.0,0.0,0.0,0.0,0.0,0.0,0.0,0.0,0.0,0.0,0.0,0.0,0.0,0.0,0.0,0.0,0.0,0.0,0.0,0.0,0.0,0.0,0.0,0.0,0.0,0.0,0.0,0.0,0.0,0.0,0.0,0.0,0.0,0.0,0.0,0.0,0.0,0.0,0.0,0.0,0.0,0.0,0.0,0.0,0.0,0.0,0.0,0.0,0.0,0.0,0.0,0.0,0.0,0.0,0.0,0.0,0.0,0.0,0.0,0.0,0.0,0.0,0.0,0.0,0.0,0.0,0.0,0.0,0.0,0.0,0.0,0.0,0.0,0.0,0.0,0.0,0.0,0.0,0.0,0.0,0.0,0.0,0.0,0.0,0.0,0.0,0.0,0.0,0.0,0.0,0.0,0.0,0.0,0.0,0.0,0.0,0.0,0.0,0.0,0.0,0.0,0.0,0.0,0.0,0.0,0.0,0.0,0.0,0.0,0.0,0.0,0.0,0.0,0.0,0.0,0.0,0.0,0.0,0.0,0.0,0.0,0.0,0.0,0.0,0.0,0.0,0.0,0.0,0.0,0.0,0.0,0.0,0.0,0.0,0.0,0.0,0.0,0.0,0.0,0.0,0.0,0.0,0.0,0.0,0.0,0.0,0.0,0.0,0.0,0.0,0.0,0.0,0.0,0.0,0.0,0.0,0.0,0.0,0.0,0.0,0.0,0.0,0.0,0.0,0.0,0.0,0.0,0.0,0.0,0.0,0.0,0.0,0.0,0.0,0.0,0.0,0.0,0.0,0.0,0.0,0.0,0.0,0.0,0.0,0.0,0.0,0.0,0.0,0.0,0.0,0.0,0.0,0.0,0.0,0.0,0.0,0.0,0.0,0.0,0.0,0.0,0.0,0.0,0.0,0.0,0.0,0.0,0.0,0.0,0.0,0.0,0.0,0.0,0.0,2.939,0.0,0.0,0.0,0.0,0.0,0.0,0.0,0.0,0.0,0.0,0.0,0.0,0.0,0.0,0.0,0.0,0.0,0.0,0.0,0.0,0.0,0.0,0.0,0.0,0.0,0.0,0.0,0.0,0.0,0.0,0.0,0.0,0.0,0.0,0.0,0.0,0.0,0.0,0.0,0.0,0.0,0.0,0.0,0.0,0.0,0.0,0.0,0.0,0.0,0.0,0.0,0.0,0.0,0.0,0.0,0.0,0.0,0.0,0.0,0.0,0.0,0.0,0.0,0.0,0.0,0.0,0.0,0.0,0.0,0.0,0.0,0.0,0.0,0.0,0.0,0.0,0.0,0.0,0.0,0.0,0.0,0.0,0.0,0.0,0.0,0.0,0.0,0.0,0.0,0.0,0.0,0.0,0.0,0.0,0.0,0.0,0.0,0.0,0.0,0.0,0.0,0.0,0.0,0.0,0.0,0.0,0.0,0.0,0.0,0.0,3.0472,3.0548,3.0629,3.0055,2.8835,0.0,0.0,0.0,0.0,0.0,0.0,0.0,0.0,0.0,0.0,0.0,0.0,0.0,0.0,0.0,0.0,0.0,0.0,0.0,0.0,0.0,0.0,0.0,0.0,0.0,0.0,0.0,0.0,0.0,0.0,0.0,0.0,0.0,0.0,0.0,0.0,0.0,0.0,0.0,0.0,0.0,0.0,0.0,0.0,0.0,0.0,0.0,0.0,0.0,0.0,0.0,0.0,0.0,0.0,0.0,0.0,0.0,0.0,0.0,0.0,0.0,0.0,0.0,0.0,0.0,0.0,0.0,0.0,0.0,0.0,0.0,0.0,0.0,0.0,0.0,0.0,0.0,0.0,0.0,0.0,0.0,0.0,0.0,0.0,0.0,0.0,0.0,0.0,0.0,0.0,0.0,0.0,0.0,0.0,0.0,0.0,0.0,0.0,0.0,0.0,0.0,0.0,0.0,0.0,0.0,0.0,0.0,0.0,0.0,0.0,0.0,0.0,3.0839,3.007,2.8469,0.0,0.0,0.0,0.0,0.0,0.0,0.0,0.0,0.0,0.0,0.0,0.0,0.0,0.0,0.0,0.0,0.0,0.0,0.0,0.0,0.0,0.0,0.0,0.0,0.0,0.0,0.0,0.0,0.0,0.0,0.0,0.0,0.0,0.0,0.0,0.0,0.0,0.0,0.0,0.0,0.0,0.0,0.0,0.0,0.0,0.0,0.0,0.0,0.0,0.0,0.0,0.0,0.0,0.0,0.0,0.0,0.0,0.0,0.0,0.0,0.0,0.0,0.0,0.0,0.0,0.0,0.0,0.0,0.0,0.0,0.0,0.0,0.0,0.0,0.0,0.0,0.0,0.0,0.0,0.0,0.0,0.0,0.0,0.0,0.0,0.0,0.0,0.0,0.0,0.0,0.0,0.0,0.0,0.0,0.0,0.0,0.0,0.0,0.0,0.0,0.0,0.0,0.0,0.0,0.0,0.0,0.0,0.0,0.0,0.0,3.1615,3.1609,3.163,0.0,2.9272,0.0,0.0,0.0,0.0,0.0,0.0,0.0,0.0,0.0,0.0,0.0,0.0,0.0,0.0,0.0,0.0,0.0,0.0,0.0,0.0,0.0,0.0,0.0,0.0,0.0,0.0,0.0,0.0,0.0,0.0,0.0,0.0,0.0,0.0,0.0,0.0,0.0,0.0,0.0,0.0,0.0,0.0,0.0,0.0,0.0,0.0,0.0,0.0,0.0,0.0,0.0,0.0,0.0,0.0,0.0,0.0,0.0,0.0,0.0,0.0,0.0,0.0,0.0,0.0,0.0,0.0,0.0,0.0,0.0,0.0,0.0,0.0,0.0,0.0,0.0,0.0,0.0,0.0,0.0,0.0,0.0,0.0,0.0,0.0,0.0,0.0,0.0,0.0,0.0,0.0,0.0,0.0,0.0,0.0,0.0,0.0,0.0,0.0,0.0,0.0,0.0,0.0,0.0,0.0,0.0,0.0,0.0,0.0,0.0,0.0,3.1903,3.2389,3.1476,3.0662,0.0,0.0,0.0,0.0,0.0,0.0,0.0,0.0,0.0,0.0,0.0,0.0,0.0,0.0,0.0,0.0,0.0,0.0,0.0,0.0,0.0,0.0,0.0,0.0,0.0,0.0,0.0,0.0,0.0,0.0,0.0,0.0,0.0,0.0,0.0,0.0,0.0,0.0,0.0,0.0,0.0,0.0,0.0,0.0,0.0,0.0,0.0,0.0,0.0,0.0,0.0,0.0,0.0,0.0,0.0,0.0,0.0,0.0,0.0,0.0,0.0,0.0,0.0,0.0,0.0,0.0,0.0,0.0,0.0,0.0,0.0,0.0,0.0,0.0,0.0,0.0,0.0,0.0,0.0,0.0,0.0,0.0,0.0,0.0,0.0,0.0,0.0,0.0,0.0,0.0,0.0,0.0,0.0,0.0,0.0,0.0,0.0,0.0,0.0,0.0,0.0,0.0,0.0,0.0,0.0,0.0,0.0,0.0,0.0,0.0,3.1367,0.0,3.275,3.1239,3.0148,2.9682,0.0,0.0,0.0,0.0,0.0,0.0,0.0,0.0,0.0,0.0,0.0,0.0,0.0,0.0,0.0,0.0,0.0,0.0,0.0,0.0,0.0,0.0,0.0,0.0,0.0,0.0,0.0,0.0,0.0,0.0,0.0,0.0,0.0,0.0,0.0,0.0,0.0,0.0,0.0,0.0,0.0,0.0,0.0,0.0,0.0,0.0,0.0,0.0,0.0,0.0,0.0,0.0,0.0,0.0,0.0,0.0,0.0,0.0,0.0,0.0,0.0,0.0,0.0,0.0,0.0,0.0,0.0,0.0,0.0,0.0,0.0,0.0,0.0,0.0,0.0,0.0,0.0,0.0,0.0,0.0,0.0,0.0,0.0,0.0,0.0,0.0,0.0,0.0,0.0,0.0,0.0,0.0,0.0,0.0,0.0,0.0,0.0,0.0,0.0,0.0,0.0,0.0,0.0,0.0,0.0,0.0,0.0,0.0,0.0,3.1851,3.2746,3.2746,3.1174,2.955,0.0,0.0,0.0,0.0,0.0,0.0,0.0,0.0,0.0,0.0,0.0,0.0,0.0,0.0,0.0,0.0,0.0,0.0,0.0,0.0,0.0,0.0,0.0,0.0,0.0,0.0,0.0,0.0,0.0,0.0,0.0,0.0,0.0,0.0,0.0,0.0,0.0,0.0,0.0,0.0,0.0,0.0,0.0,0.0,0.0,0.0,0.0,0.0,0.0,0.0,0.0,0.0,0.0,0.0,0.0,0.0,0.0,0.0,0.0,0.0,0.0,0.0,0.0,0.0,0.0,0.0,0.0,0.0,0.0,0.0,0.0,0.0,0.0,0.0,0.0,0.0,0.0,0.0,0.0,0.0,0.0,0.0,0.0,0.0,0.0,0.0,0.0,0.0,0.0,0.0,0.0,0.0,0.0,0.0,0.0,0.0,0.0,0.0,0.0,0.0,0.0,0.0,0.0,0.0,0.0,0.0,0.0,0.0,0.0,3.0343,3.1941,3.2555,3.2018,3.0919,2.95,0.0,0.0,0.0,0.0,0.0,0.0,0.0,0.0,0.0,0.0,0.0,0.0,0.0,0.0,0.0,0.0,0.0,0.0,0.0,0.0,0.0,0.0,0.0,0.0,0.0,0.0,0.0,0.0,0.0,0.0,0.0,0.0,0.0,0.0,0.0,0.0,0.0,0.0,0.0,0.0,0.0,0.0,0.0,0.0,0.0,0.0,0.0,0.0,0.0,0.0,0.0,0.0,0.0,0.0,0.0,0.0,0.0,0.0,0.0,0.0,0.0,0.0,0.0,0.0,0.0,0.0,0.0,0.0,0.0,0.0,0.0,0.0,0.0,0.0,0.0,0.0,0.0,0.0,0.0,0.0,0.0,0.0,0.0,0.0,0.0,0.0,0.0,0.0,0.0,0.0,0.0,0.0,0.0,0.0,0.0,0.0,0.0,0.0,0.0,0.0,0.0,0.0,0.0,0.0,0.0,0.0,0.0,0.0,0.0,3.1517,0.0,3.3063,0.0,3.0879,2.95,0.0,0.0,0.0,0.0,0.0,0.0,0.0,0.0,0.0,0.0,0.0,0.0,0.0,0.0,0.0,0.0,0.0,0.0,0.0,0.0,0.0,0.0,0.0,0.0,0.0,0.0,0.0,0.0,0.0,0.0,0.0,0.0,0.0,0.0,0.0,0.0,0.0,0.0,0.0,0.0,0.0,0.0,0.0,0.0,0.0,0.0,0.0,0.0,0.0,0.0,0.0,0.0,0.0,0.0,0.0,0.0,0.0,0.0,0.0,0.0,0.0,0.0,0.0,0.0,0.0,0.0,0.0,0.0,0.0,0.0,0.0,0.0,0.0,0.0,0.0,0.0,0.0,0.0,0.0,0.0,0.0,0.0,0.0,0.0,0.0,0.0,0.0,0.0,0.0,0.0,0.0,0.0,0.0,0.0,0.0,0.0,0.0,0.0,0.0,0.0,0.0,0.0,0.0,0.0,0.0,0.0,0.0,0.0,0.0,3.3929,3.477,3.4388,3.2768,3.1102,2.9434,0.0,0.0,0.0,0.0,0.0,0.0,0.0,0.0,0.0,0.0,0.0,0.0,0.0,0.0,0.0,0.0,0.0,0.0,0.0,0.0,0.0,0.0,0.0,0.0,0.0,0.0,0.0,0.0,0.0,0.0,0.0,0.0,0.0,0.0,0.0,0.0,0.0,0.0,0.0,0.0,0.0,0.0,0.0,0.0,0.0,0.0,0.0,0.0,0.0,0.0,0.0,0.0,0.0,0.0,0.0,0.0,0.0,0.0,0.0,0.0,0.0,0.0,0.0,0.0,0.0,0.0,0.0,0.0,0.0,0.0,0.0,0.0,0.0,0.0,0.0,0.0,0.0,0.0,0.0,0.0,0.0,0.0,0.0,0.0,0.0,0.0,0.0,0.0,0.0,0.0,0.0,0.0,0.0,0.0,0.0,0.0,0.0,0.0,0.0,0.0,0.0,0.0,0.0,0.0,0.0,0.0,0.0,0.0,0.0,3.5725,3.5993,3.5305,3.3624,3.1981,3.0261,0.0,0.0,0.0,0.0,0.0,0.0,0.0,0.0,0.0,0.0,0.0,0.0,0.0,0.0,0.0,0.0,0.0,0.0,0.0,0.0,0.0,0.0,0.0,0.0,0.0,0.0,0.0,0.0,0.0,0.0,0.0,0.0,0.0,0.0,0.0,0.0,0.0,0.0,0.0,0.0,0.0,0.0,0.0,0.0,0.0,0.0,0.0,0.0,0.0,0.0,0.0,0.0,0.0,0.0,0.0,0.0,0.0,0.0,0.0,0.0,0.0,0.0,0.0,0.0,0.0,0.0,0.0,0.0,0.0,0.0,0.0,0.0,0.0,0.0,0.0,0.0,0.0,0.0,0.0,0.0,0.0,0.0,0.0,0.0,0.0,0.0,0.0,0.0,0.0,0.0,0.0,0.0,0.0,0.0,0.0,0.0,0.0,0.0,0.0,0.0,0.0,0.0,0.0,0.0,0.0,0.0,0.0,0.0,0.0,3.9279,3.9011,3.7903,3.5916,3.3624,3.1637,2.9917,0.0,0.0,0.0,0.0,0.0,0.0,0.0,0.0,0.0,0.0,0.0,0.0,0.0,0.0,0.0,0.0,0.0,0.0,0.0,0.0,0.0,0.0,0.0,0.0,0.0,0.0,0.0,0.0,0.0,0.0,0.0,0.0,0.0,0.0,0.0,0.0,0.0,0.0,0.0,0.0,0.0,0.0,0.0,0.0,0.0,0.0,0.0,0.0,0.0,0.0,0.0,0.0,0.0,0.0,0.0,0.0,0.0,0.0,0.0,0.0,0.0,0.0,0.0,0.0,0.0,0.0,0.0,0.0,0.0,0.0,0.0,0.0,0.0,0.0,0.0,0.0,0.0,0.0,0.0,0.0,0.0,0.0,0.0,0.0,0.0,0.0,0.0,0.0,0.0,0.0,0.0,0.0,0.0,0.0,0.0,0.0,0.0,0.0,0.0,0.0,0.0,0.0,0.0,0.0,0.0,0.0,0.0,0.0,4.4149,4.3673,4.2068,3.9355,3.6031,3.3509,0.0,0.0,0.0,0.0,0.0,0.0,0.0,0.0,0.0,0.0,0.0,0.0,0.0,0.0,0.0,0.0,0.0,0.0,0.0,0.0,0.0,0.0,0.0,0.0,0.0,0.0,0.0,0.0,0.0,0.0,0.0,0.0,0.0,0.0,0.0,0.0,0.0,0.0,0.0,0.0,0.0,0.0,0.0,0.0,0.0,0.0,0.0,0.0,0.0,0.0,0.0,0.0,0.0,0.0,0.0,0.0,0.0,0.0,0.0,0.0,0.0,0.0,0.0,0.0,0.0,0.0,0.0,0.0,0.0,0.0,0.0,0.0,0.0,0.0,0.0,0.0,0.0,0.0,0.0,0.0,0.0,0.0,0.0,0.0,0.0,0.0,0.0,0.0,0.0,0.0,0.0,0.0,0.0,0.0,0.0,0.0,0.0,0.0,0.0,0.0,0.0,0.0,0.0,0.0,0.0,0.0,0.0,0.0,0.0,4.6691,4.9022,4.7799,4.287,3.9431,3.691,0.0,0.0,0.0,0.0,0.0,0.0,0.0,0.0,0.0,0.0,0.0,0.0,0.0,0.0,0.0,0.0,0.0,0.0,0.0,0.0,0.0,0.0,0.0,0.0,0.0,0.0,0.0,0.0,0.0,0.0,0.0,0.0,0.0,0.0,0.0,0.0,0.0,0.0,0.0,0.0,0.0,0.0,0.0,0.0,0.0,0.0,0.0,0.0,0.0,0.0,0.0,0.0,0.0,0.0,0.0,0.0,0.0,0.0,0.0,0.0,0.0,0.0,0.0,0.0,0.0,0.0,0.0,0.0,0.0,0.0,0.0,0.0,0.0,0.0,0.0,0.0,0.0,0.0,0.0,0.0,0.0,0.0,0.0,0.0,0.0,0.0,0.0,0.0,0.0,0.0,0.0,0.0,0.0,0.0,0.0,0.0,0.0,0.0,0.0,0.0,0.0,0.0,0.0,0.0,0.0,0.0,0.0,0.0,4.3902,4.7761,5.1085,5.0818,4.6768,4.3061,3.9966,0.0,0.0,0.0,0.0,0.0,0.0,0.0,0.0,0.0,0.0,0.0,0.0,0.0,0.0,0.0,0.0,0.0,0.0,0.0,0.0,0.0,0.0,0.0,0.0,0.0,0.0,0.0,0.0,0.0,0.0,0.0,0.0,0.0,0.0,0.0,0.0,0.0,0.0,0.0,0.0,0.0,0.0,0.0,0.0,0.0,0.0,0.0,0.0,0.0,0.0,0.0,0.0,0.0,0.0,0.0,0.0,0.0,0.0,0.0,0.0,0.0,0.0,0.0,0.0,0.0,0.0,0.0,0.0,0.0,0.0,0.0,0.0,0.0,0.0,0.0,0.0,0.0,0.0,0.0,0.0,0.0,0.0,0.0,0.0,0.0,0.0,0.0,0.0,0.0,0.0,0.0,0.0,0.0,0.0,0.0,0.0,0.0,0.0,0.0,0.0,0.0,0.0,0.0,0.0,0.0,0.0,0.0,0.0,4.4857,4.8258,5.1697,5.2614,5.0818,4.6577,4.2717,0.0,0.0,0.0,0.0,0.0,0.0,0.0,0.0,0.0,0.0,0.0,0.0,0.0,0.0,0.0,0.0,0.0,0.0,0.0,0.0,0.0,0.0,0.0,0.0,0.0,0.0,0.0,0.0,0.0,0.0,0.0,0.0,0.0,0.0,0.0,0.0,0.0,0.0,0.0,0.0,0.0,0.0,0.0,0.0,0.0,0.0,0.0,0.0,0.0,0.0,0.0,0.0,0.0,0.0,0.0,0.0,0.0,0.0,0.0,0.0,0.0,0.0,0.0,0.0,0.0,0.0,0.0,0.0,0.0,0.0,0.0,0.0,0.0,0.0,0.0,0.0,0.0,0.0,0.0,0.0,0.0,0.0,0.0,0.0,0.0,0.0,0.0,0.0,0.0,0.0,0.0,0.0,0.0,0.0,0.0,0.0,0.0,0.0,0.0,0.0,0.0,0.0,0.0,0.0,0.0,0.0,0.0,0.0,4.7685,5.1658,5.567,5.6664,5.4371,4.8907,4.4743,0.0,0.0,0.0,0.0,0.0,0.0,0.0,0.0,0.0,0.0,0.0,0.0,0.0,0.0,0.0,0.0,0.0,0.0,0.0,0.0,0.0,0.0,0.0,0.0,0.0,0.0,0.0,0.0,0.0,0.0,0.0,0.0,0.0,0.0,0.0,0.0,0.0,0.0,0.0,0.0,0.0,0.0,0.0,0.0,0.0,0.0,0.0,0.0,3.521,0.0,0.0,0.0,0.0,0.0,0.0,0.0,0.0,0.0,0.0,0.0,0.0,0.0,0.0,0.0,0.0,0.0,0.0,0.0,0.0,0.0,0.0,0.0,0.0,0.0,0.0,0.0,0.0,0.0,0.0,0.0,0.0,0.0,0.0,0.0,0.0,0.0,0.0,0.0,0.0,0.0,0.0,0.0,0.0,0.0,0.0,0.0,0.0,0.0,0.0,0.0,0.0,0.0,0.0,0.0,0.0,0.0,0.0,0.0,4.9939,5.3378,5.674,5.7542,5.5365,5.1544,4.7723,0.0,0.0,0.0,0.0,0.0,0.0,0.0,0.0,0.0,0.0,0.0,0.0,0.0,0.0,0.0,0.0,0.0,0.0,0.0,0.0,0.0,0.0,0.0,0.0,0.0,0.0,0.0,0.0,0.0,0.0,0.0,0.0,0.0,0.0,0.0,0.0,0.0,0.0,0.0,0.0,0.0,0.0,0.0,0.0,0.0,0.0,0.0,0.0,0.0,0.0,0.0,0.0,0.0,0.0,0.0,0.0,0.0,0.0,0.0,0.0,0.0,0.0,0.0,0.0,0.0,0.0,0.0,0.0,0.0,0.0,0.0,0.0,0.0,0.0,0.0,0.0,0.0,0.0,0.0,0.0,0.0,0.0,0.0,0.0,0.0,0.0,0.0,0.0,0.0,0.0,0.0,0.0,0.0,0.0,0.0,0.0,0.0,0.0,0.0,0.0,0.0,0.0,0.0,0.0,0.0,0.0,0.0,4.7761,5.1926,5.4448,5.6969,5.7428,5.5632,5.3913,5.055,0.0,0.0,0.0,0.0,0.0,0.0,0.0,0.0,0.0,0.0,0.0,0.0,0.0,0.0,0.0,0.0,0.0,0.0,0.0,0.0,0.0,0.0,0.0,0.0,0.0,0.0,0.0,0.0,0.0,0.0,0.0,0.0,0.0,0.0,0.0,0.0,0.0,0.0,0.0,3.0333,3.3222,0.0,0.0,0.0,0.0,0.0,0.0,0.0,0.0,3.3066,0.0,0.0,0.0,0.0,0.0,0.0,0.0,0.0,0.0,0.0,0.0,0.0,0.0,0.0,0.0,0.0,0.0,0.0,0.0,0.0,0.0,0.0,0.0,0.0,0.0,0.0,0.0,0.0,0.0,0.0,0.0,0.0,0.0,0.0,0.0,0.0,0.0,0.0,0.0,0.0,0.0,0.0,0.0,0.0,0.0,0.0,0.0,0.0,0.0,0.0,0.0,0.0,0.0,0.0,0.0,0.0,4.459,4.9748,5.3607,5.6129,5.8689,5.8842,5.6473,5.4753,5.12,4.5507,0.0,0.0,0.0,0.0,0.0,0.0,0.0,0.0,0.0,0.0,0.0,0.0,0.0,0.0,0.0,0.0,0.0,0.0,0.0,0.0,0.0,0.0,0.0,0.0,0.0,0.0,0.0,0.0,0.0,0.0,0.0,0.0,0.0,0.0,0.0,0.0,0.0,0.0,0.0,3.6228,3.7909,0.0,0.0,0.0,0.0,0.0,0.0,0.0,0.0,3.3768,0.0,0.0,0.0,0.0,0.0,0.0,0.0,0.0,0.0,0.0,0.0,0.0,0.0,0.0,0.0,0.0,0.0,0.0,0.0,0.0,0.0,0.0,0.0,0.0,0.0,0.0,0.0,0.0,0.0,0.0,0.0,0.0,0.0,0.0,0.0,0.0,0.0,0.0,0.0,0.0,0.0,0.0,0.0,0.0,0.0,0.0,0.0,0.0,0.0,0.0,0.0,0.0,0.0,0.0,0.0,4.5851,5.1353,5.5174,5.7237,5.93,5.8994,5.6052,5.3913,5.0054,0.0,0.0,0.0,0.0,0.0,0.0,0.0,0.0,0.0,0.0,0.0,0.0,0.0,0.0,0.0,0.0,0.0,0.0,0.0,0.0,0.0,0.0,0.0,0.0,0.0,0.0,0.0,0.0,0.0,0.0,0.0,0.0,0.0,0.0,0.0,0.0,0.0,0.0,0.0,0.0,3.8258,3.9897,3.99,0.0,0.0,0.0,0.0,0.0,0.0,3.5252,3.412,0.0,0.0,0.0,0.0,0.0,0.0,0.0,0.0,0.0,0.0,0.0,0.0,0.0,0.0,0.0,0.0,0.0,0.0,0.0,0.0,0.0,0.0,0.0,0.0,0.0,0.0,0.0,0.0,0.0,0.0,0.0,0.0,0.0,0.0,0.0,0.0,0.0,0.0,0.0,0.0,0.0,0.0,0.0,0.0,0.0,0.0,0.0,0.0,0.0,0.0,0.0,0.0,0.0,0.0,0.0,4.6729,5.2461,5.6205,5.7886,5.9529,5.8803,5.5517,5.2919,4.8831,0.0,0.0,0.0,0.0,0.0,0.0,0.0,0.0,0.0,0.0,0.0,0.0,0.0,0.0,0.0,0.0,0.0,0.0,0.0,0.0,0.0,0.0,0.0,0.0,0.0,0.0,0.0,0.0,0.0,0.0,0.0,0.0,0.0,0.0,0.0,0.0,0.0,0.0,0.0,0.0,0.0,4.1615,4.1615,4.1615,0.0,0.0,0.0,0.0,3.7165,3.6579,0.0,0.0,0.0,0.0,0.0,0.0,0.0,0.0,0.0,0.0,0.0,0.0,0.0,0.0,0.0,0.0,0.0,0.0,0.0,0.0,0.0,0.0,0.0,0.0,0.0,0.0,0.0,0.0,0.0,0.0,0.0,0.0,0.0,0.0,0.0,0.0,0.0,0.0,0.0,0.0,0.0,0.0,0.0,0.0,0.0,0.0,0.0,0.0,0.0,0.0,0.0,0.0,0.0,0.0,0.0,0.0,4.757,5.2766,5.6205,5.7886,5.9529,5.8803,5.5479,5.2919,4.8831,0.0,0.0,0.0,0.0,0.0,0.0,0.0,0.0,0.0,0.0,0.0,0.0,0.0,0.0,0.0,0.0,0.0,0.0,0.0,0.0,0.0,0.0,0.0,0.0,0.0,0.0,0.0,0.0,0.0,0.0,0.0,0.0,0.0,0.0,0.0,0.0,0.0,0.0,0.0,0.0,0.0,4.3411,4.3411,4.3372,4.306,0.0,0.0,0.0,4.0639,4.1069,0.0,0.0,0.0,0.0,0.0,0.0,0.0,0.0,0.0,0.0,0.0,0.0,0.0,0.0,0.0,0.0,0.0,0.0,0.0,0.0,0.0,0.0,0.0,0.0,0.0,0.0,0.0,0.0,0.0,0.0,0.0,0.0,0.0,0.0,0.0,0.0,0.0,0.0,0.0,0.0,0.0,0.0,0.0,0.0,0.0,0.0,0.0,0.0,0.0,0.0,0.0,0.0,0.0,0.0,0.0,4.1036,4.7685,5.2805,5.6205,5.7886,5.9529,5.8803,5.5479,5.2957,4.8602,0.0,0.0,0.0,0.0,0.0,0.0,0.0,0.0,0.0,0.0,0.0,0.0,0.0,0.0,0.0,0.0,0.0,0.0,0.0,0.0,0.0,0.0,0.0,0.0,0.0,0.0,0.0,0.0,0.0,0.0,0.0,0.0,0.0,0.0,0.0,0.0,0.0,0.0,0.0,0.0,0.0,0.0,4.5909,4.6729,0.0,0.0,0.0,4.5753,4.4933,0.0,0.0,0.0,0.0,0.0,0.0,0.0,0.0,0.0,0.0,0.0,0.0,0.0,0.0,0.0,0.0,0.0,0.0,0.0,0.0,0.0,0.0,0.0,0.0,0.0,0.0,0.0,0.0,0.0,0.0,0.0,0.0,0.0,0.0,0.0,0.0,0.0,0.0,0.0,0.0,0.0,0.0,0.0,0.0,0.0,0.0,0.0,0.0,0.0,0.0,0.0,0.0,0.0,0.0,0.0,0.0,0.0,4.7723,5.2843,5.6205,5.7886,5.9529,5.888,5.5785,5.3225,0.0,0.0,0.0,0.0,0.0,0.0,0.0,0.0,0.0,0.0,0.0,0.0,0.0,0.0,0.0,0.0,0.0,0.0,0.0,0.0,0.0,0.0,0.0,0.0,0.0,0.0,0.0,2.1056,0.0,0.0,0.0,0.0,0.0,0.0,0.0,0.0,0.0,0.0,0.0,0.0,0.0,0.0,4.7966,4.8205,4.9688,5.023,0.0,0.0,4.9419,4.8404,4.8404,4.7237,0.0,0.0,0.0,0.0,0.0,0.0,0.0,0.0,0.0,0.0,0.0,0.0,0.0,0.0,0.0,0.0,0.0,0.0,0.0,0.0,0.0,0.0,0.0,0.0,0.0,0.0,0.0,0.0,0.0,0.0,0.0,0.0,0.0,0.0,0.0,0.0,0.0,0.0,0.0,0.0,0.0,0.0,0.0,0.0,0.0,0.0,0.0,0.0,0.0,0.0,0.0,0.0,0.0,0.0,0.0,4.7723,5.2805,5.6205,5.7886,5.9529,5.9147,5.6587,5.4065,4.9939,0.0,0.0,0.0,0.0,0.0,0.0,0.0,0.0,0.0,0.0,0.0,0.0,0.0,0.0,0.0,0.0,0.0,0.0,0.0,0.0,0.0,0.0,0.0,0.0,0.0,0.0,0.0,0.0,0.0,0.0,0.0,0.0,0.0,0.0,0.0,0.0,0.0,0.0,0.0,0.0,0.0,4.9034,4.9814,5.1375,5.2155,0.0,0.0,5.1865,5.0186,5.0625,4.9423,4.4426,0.0,0.0,0.0,0.0,0.0,0.0,0.0,0.0,0.0,0.0,0.0,0.0,0.0,0.0,0.0,0.0,0.0,0.0,0.0,0.0,0.0,0.0,0.0,0.0,0.0,0.0,0.0,0.0,0.0,0.0,0.0,0.0,0.0,0.0,0.0,0.0,0.0,0.0,0.0,0.0,0.0,0.0,0.0,0.0,0.0,0.0,0.0,0.0,0.0,0.0,0.0,0.0,0.0,4.1036,4.7723,5.2843,5.6205,5.7886,5.9529,5.9453,5.7466,5.5441,5.162,0.0,0.0,0.0,0.0,0.0,0.0,0.0,0.0,0.0,0.0,0.0,0.0,0.0,0.0,0.0,0.0,0.0,0.0,0.0,0.0,0.0,0.0,0.0,0.0,0.0,0.0,0.0,0.0,2.4286,2.4724,2.5099,0.0,0.0,0.0,0.0,0.0,0.0,0.0,0.0,0.0,0.0,5.0633,5.153,5.3986,0.0,0.0,5.5269,5.5249,5.3498,5.2655,5.0789,4.6768,4.2318,0.0,0.0,0.0,0.0,0.0,0.0,0.0,0.0,0.0,0.0,0.0,0.0,0.0,0.0,0.0,0.0,0.0,0.0,0.0,0.0,0.0,0.0,0.0,0.0,0.0,0.0,0.0,0.0,0.0,0.0,0.0,0.0,0.0,0.0,0.0,0.0,0.0,0.0,0.0,0.0,0.0,0.0,0.0,0.0,0.0,0.0,0.0,0.0,0.0,0.0,0.0,0.0,4.1036,4.7723,5.2805,5.6205,5.7886,5.9529,5.9606,5.7963,5.6511,5.2957,0.0,0.0,0.0,0.0,0.0,0.0,0.0,0.0,0.0,0.0,0.0,0.0,0.0,0.0,0.0,0.0,0.0,0.0,0.0,0.0,0.0,0.0,0.0,0.0,0.0,0.0,0.0,0.0,2.5698,2.5906,2.5932,0.0,0.0,0.0,0.0,0.0,0.0,0.0,0.0,0.0,0.0,5.2464,5.3593,5.6203,5.7878,5.7321,5.7775,5.7485,5.5516,5.4011,5.1839,4.8162,0.0,0.0,0.0,0.0,0.0,0.0,0.0,0.0,0.0,0.0,0.0,0.0,0.0,0.0,0.0,0.0,0.0,0.0,0.0,0.0,0.0,0.0,0.0,0.0,0.0,0.0,0.0,0.0,0.0,0.0,0.0,0.0,0.0,0.0,0.0,0.0,0.0,0.0,0.0,0.0,0.0,0.0,0.0,0.0,0.0,0.0,0.0,0.0,0.0,0.0,0.0,0.0,0.0,0.0,4.7761,5.2843,5.6205,5.7886,5.9529,5.9606,5.7963,5.7008,5.3798,4.7876,0.0,0.0,0.0,0.0,0.0,0.0,0.0,0.0,0.0,0.0,0.0,0.0,0.0,0.0,0.0,0.0,0.0,0.0,0.0,0.0,0.0,0.0,0.0,0.0,0.0,0.0,2.7786,2.7103,2.663,0.0,0.0,0.0,0.0,0.0,0.0,0.0,0.0,0.0,0.0,5.1026,5.4352,5.6075,5.7826,5.8965,5.8948,5.8978,5.8148,5.5638,5.4495,5.2484,0.0,0.0,0.0,0.0,0.0,0.0,0.0,0.0,0.0,0.0,0.0,0.0,0.0,0.0,0.0,0.0,0.0,0.0,0.0,0.0,0.0,0.0,0.0,0.0,0.0,0.0,0.0,0.0,0.0,0.0,0.0,0.0,0.0,0.0,0.0,0.0,0.0,0.0,0.0,0.0,4.436,4.3252,0.0,0.0,0.0,0.0,0.0,0.0,0.0,0.0,0.0,0.0,0.0,0.0,4.1609,4.7723,5.2805,5.6205,5.7886,5.9529,5.9606,5.7963,5.7046,5.3034,4.5507,0.0,0.0,0.0,0.0,0.0,0.0,0.0,0.0,0.0,0.0,0.0,0.0,0.0,0.0,0.0,0.0,0.0,0.0,0.0,0.0,0.0,0.0,0.0,0.0,0.0,2.9506,0.0,0.0,0.0,0.0,0.0,0.0,0.0,0.0,0.0,0.0,0.0,4.4781,4.9313,5.3114,5.6083,5.7755,5.997,6.1227,0.0,0.0,0.0,0.0,0.0,0.0,0.0,0.0,0.0,0.0,0.0,0.0,0.0,0.0,4.4337,3.9663,3.9351,3.939,3.7906,0.0,0.0,0.0,0.0,0.0,0.0,0.0,0.0,0.0,0.0,0.0,0.0,0.0,0.0,0.0,0.0,3.7642,0.0,0.0,0.0,0.0,0.0,0.0,0.0,0.0,4.7379,4.8716,4.948,4.8411,4.8181,0.0,4.7302,4.436,0.0,0.0,0.0,0.0,0.0,0.0,0.0,0.0,4.2947,4.822,5.3225,5.6473,5.7886,5.9529,5.972,5.8345,5.632,5.2308,4.5965,4.2259,3.8667,0.0,0.0,0.0,0.0,0.0,0.0,0.0,0.0,0.0,0.0,0.0,0.0,0.0,0.0,0.0,0.0,0.0,0.0,0.0,0.0,0.0,0.0,0.0,3.1021,0.0,0.0,0.0,0.0,0.0,0.0,0.0,0.0,0.0,4.1793,4.4928,4.8603,5.2869,5.5605,5.7884,5.9865,0.0,0.0,0.0,0.0,0.0,0.0,0.0,5.3377,5.1746,4.9796,4.873,4.9543,5.0828,5.1943,5.2512,0.0,0.0,4.5711,4.4894,4.5168,4.5519,4.4855,4.4231,4.4231,4.5168,4.6222,0.0,0.0,0.0,0.0,0.0,0.0,0.0,0.0,4.3526,4.3544,0.0,4.2079,0.0,0.0,0.0,0.0,0.0,0.0,0.0,0.0,5.0588,5.2155,5.2919,5.2881,5.2881,5.2843,5.2002,5.0703,4.8793,4.2526,0.0,0.0,0.0,0.0,0.0,0.0,4.4934,4.9137,5.4027,5.7008,5.7925,5.9529,5.9988,5.8994,5.5097,5.1735,4.9175,4.5163,4.1762,3.9202,3.5114,0.0,0.0,0.0,0.0,0.0,0.0,0.0,0.0,0.0,0.0,0.0,0.0,0.0,0.0,0.0,0.0,0.0,0.0,0.0,0.0,3.1828,0.0,0.0,0.0,0.0,0.0,0.0,0.0,0.0,0.0,0.0,4.6358,4.9303,5.2908,5.7106,0.0,0.0,0.0,0.0,6.3065,6.3832,6.3287,6.2458,6.1546,5.8657,5.6533,5.6503,0.0,0.0,5.3958,5.478,5.5376,5.5286,5.5974,5.5574,5.2225,5.0785,5.1058,5.3362,5.1878,5.0356,5.0317,5.1258,5.2702,5.213,0.0,0.0,0.0,0.0,4.6315,4.7208,4.8447,4.8758,4.9143,4.9489,4.8125,0.0,0.0,0.0,0.0,0.0,0.0,4.8525,5.2308,5.3683,5.5059,5.6434,5.5785,5.5479,5.5441,5.4065,5.2805,5.162,4.8602,4.4895,4.0654,0.0,0.0,0.0,0.0,4.6347,4.9977,5.4333,5.7008,5.7886,5.9529,5.9682,5.8268,5.5938,5.3492,5.0971,4.7952,4.4934,4.1839,3.8247,0.0,0.0,0.0,0.0,0.0,0.0,0.0,0.0,0.0,0.0,0.0,0.0,0.0,0.0,0.0,0.0,0.0,0.0,0.0,3.3547,3.477,3.5327,0.0,0.0,0.0,0.0,0.0,0.0,0.0,0.0,0.0,5.3741,5.4038,5.5488,0.0,0.0,6.1381,6.3376,6.41,6.4372,6.4037,0.0,0.0,0.0,6.011,5.8888,5.8304,5.8565,5.9192,5.9996,6.0333,6.0137,5.8965,5.8958,5.8646,5.7226,5.5678,5.5438,5.7004,5.6029,5.4468,5.3972,5.464,5.5543,5.9093,5.451,5.2756,5.1811,5.1517,5.2069,5.2875,5.3828,5.4565,5.5007,5.5177,5.3973,5.2379,5.0495,4.8243,0.0,0.0,0.0,5.1544,5.4677,5.5823,5.7084,5.8307,5.8192,5.7925,5.7542,5.6243,5.5174,5.4256,5.2614,5.0283,4.7226,0.0,0.0,4.5277,4.6615,4.8793,5.1811,5.5288,5.7542,5.8383,5.9682,5.9606,5.7963,5.6587,5.4677,5.2155,4.9977,4.7379,4.436,4.1036,3.7445,0.0,0.0,0.0,0.0,0.0,0.0,0.0,0.0,0.0,0.0,0.0,2.2362,2.3547,0.0,0.0,0.0,3.0835,3.3777,3.6451,3.7789,0.0,0.0,0.0,0.0,0.0,0.0,0.0,4.7696,5.1211,5.4636,5.7915,5.8428,5.9575,6.2531,6.2896,6.3401,6.4799,0.0,6.5926,6.511,6.5421,6.5202,6.3676,6.2186,6.1019,6.0475,6.1512,6.2549,6.3104,6.3196,6.2834,6.2004,6.1717,6.1373,6.0252,5.9521,5.9239,5.991,5.9264,5.8389,5.7818,5.8688,5.9558,6.4441,6.2071,5.9093,5.7209,5.638,5.778,5.8349,5.8539,6.0115,6.0414,5.9767,5.9072,5.7529,5.5199,5.2272,0.0,0.0,5.2957,5.4256,5.5912,5.7428,5.8536,5.9338,6.0064,5.9988,5.9185,5.8383,5.7581,5.674,5.5174,5.4409,5.4256,4.9633,4.799,4.9366,5.013,5.1735,5.418,5.6625,5.8345,5.9185,5.9911,5.9529,5.7925,5.7008,5.5326,5.2881,5.12,4.9137,4.6653,4.352,4.0272,3.6986,0.0,0.0,0.0,0.0,0.0,0.0,0.0,0.0,0.0,0.0,0.0,0.0,0.0,0.0,0.0,3.4388,0.0,3.9164,4.0845,0.0,0.0,0.0,4.1858,4.423,4.6052,4.8433,5.1777,0.0,0.0,0.0,0.0,6.4286,6.5235,6.5406,6.5732,6.6586,6.7363,6.7596,6.6819,6.6703,6.6718,6.6397,6.4531,6.3093,6.3015,6.3676,6.4129,6.4114,6.409,6.4104,6.3832,6.3988,6.3495,6.1978,6.2352,6.2935,6.2067,6.1783,6.1642,6.1666,6.2733,6.3689,6.6729,6.5564,6.4815,6.2598,5.9587,5.9926,6.0416,6.0942,6.1469,6.1582,6.1355,6.0705,5.9474,5.7878,5.6483,5.6359,5.7159,5.7434,5.8453,6.0018,5.9883,6.0217,6.0981,6.0599,6.0293,6.0026,5.9224,5.8727,5.8459,5.7504,5.7008,5.6893,5.5097,5.3416,5.1964,5.2117,5.3148,5.5059,5.6931,5.8612,6.0026,5.9644,5.8918,5.7925,5.6473,5.4791,5.2881,5.12,4.9442,4.757,4.5507,4.287,3.9584,3.6795,0.0,0.0,0.0,0.0,0.0,0.0,0.0,0.0,0.0,2.7205,2.8886,0.0,3.221,0.0,3.7292,4.0081,4.1724,4.394,0.0,0.0,4.5621,4.65,4.7783,4.9461,5.1557,5.4319,5.7159,5.9826,6.2166,6.4243,6.5876,6.6805,6.7105,6.7519,6.8334,6.8645,6.8723,6.849,6.8451,6.8257,6.7573,6.6485,6.5552,6.5591,6.5746,6.5669,6.5032,6.4916,6.4736,6.4153,6.3998,6.3818,6.3468,6.3274,6.3779,6.4789,6.4013,6.2951,6.3409,6.3904,6.424,6.8039,6.7326,6.7326,6.5827,6.3424,6.3424,6.361,6.3984,6.3686,6.3349,6.2974,6.1955,6.1039,6.0302,5.9906,5.9975,6.0532,6.0967,6.1522,6.2086,6.2099,6.2128,6.2166,6.1707,6.1516,6.1478,6.0637,6.0217,6.0141,5.9033,5.8421,5.8421,5.7581,5.6473,5.5135,5.4677,5.5326,5.7046,5.8345,5.9453,6.0332,5.9568,5.8727,5.7886,5.6282,5.4409,5.2346,5.1009,4.9366,4.7302,4.6003,4.4131,4.1533,3.9011,3.6069,0.0,0.0,0.0,0.0,0.0,0.0,0.0,0.0,0.0,0.0,0.0,3.6337,0.0,4.1304,0.0,4.4895,4.7302,4.8907,4.9289,5.0092,5.1085,5.2308,5.3642,5.5274,5.7417,5.9984,6.2106,6.3604,6.5999,6.7687,6.7956,6.9111,6.9705,6.9251,6.9694,6.9966,6.9267,6.9422,6.9344,6.8529,6.7635,6.7091,6.7052,6.6742,6.6314,6.5848,6.577,6.5615,6.5188,6.511,6.511,6.511,6.4877,6.511,6.5848,6.5542,6.474,6.4644,6.4997,6.5307,6.9128,6.849,6.8377,6.7889,6.7251,6.7138,6.6988,6.6725,6.5974,6.5223,6.4399,6.3013,6.2445,6.2516,6.2549,6.2652,6.2867,6.3617,6.3676,6.3123,6.394,6.3885,6.3053,6.3083,6.3006,6.2862,6.2099,6.1717,6.1678,6.0265,5.9502,5.9387,5.87,5.8279,5.8165,5.7439,5.7772,5.9109,5.995,6.0332,6.0217,5.9376,5.8536,5.7581,5.5938,5.3913,5.1544,5.0512,4.8945,4.6806,4.5774,4.4628,4.3176,4.0807,3.8323,0.0,3.4197,0.0,0.0,0.0,0.0,0.0,0.0,0.0,0.0,3.9317,4.0922,4.3252,4.5621,4.7379,4.8334,5.0741,5.2537,5.3225,5.418,5.5326,5.674,5.7695,5.888,6.0523,6.2739,6.4259,6.4728,6.7487,6.9229,6.8899,7.0761,7.1513,7.0054,7.0882,7.1403,6.9811,6.9966,6.9966,6.9306,6.8529,6.7907,6.7752,6.7208,6.6625,6.6508,6.647,6.647,6.6431,6.6353,6.6431,6.6508,6.6431,6.6431,6.647,6.6392,6.615,6.5713,6.6046,6.6722,7.1156,7.093,7.0292,6.9917,6.9729,6.9053,6.8002,6.6762,6.6612,6.6128,6.5344,6.4405,6.403,6.4181,6.4143,6.4217,6.4325,6.4585,6.4651,6.46,6.4953,6.4634,6.3833,6.3894,6.355,6.2841,6.265,6.2544,6.2414,6.2071,6.1614,6.0967,6.0836,6.0417,0.0,0.0,0.0,0.0,5.995,6.0064,5.9338,5.8536,5.739,5.5899,5.418,0.0,5.0627,4.9098,4.8067,4.7532,4.6118,0.0,0.0,0.0,0.0,0.0,0.0,0.0,0.0,0.0,0.0,0.0,4.3405,4.3329,4.203,4.3825,4.5583,4.6806,4.8525,5.0206,5.1735,5.4142,5.5708,5.5899,5.7237,5.8307,5.8651,5.9415,6.0561,6.2242,6.3465,6.4726,6.6132,6.8089,6.9385,6.9459,7.112,7.1943,7.1025,7.2385,7.3229,7.2336,7.1093,7.0316,7.0083,6.9383,6.8606,6.7985,6.7713,6.7285,6.6742,6.6586,6.6547,6.6547,6.6508,6.6547,6.6508,6.6508,6.6586,6.6508,6.6547,6.6485,6.6373,6.6555,6.6925,7.1499,0.0,7.105,7.0675,0.0,6.9896,6.9041,6.7841,6.7551,6.6954,6.6206,6.5793,6.5382,6.5045,6.5045,6.4858,6.4558,6.5124,6.5196,6.4996,6.558,6.5449,6.4641,6.4734,6.4543,6.4031,6.3581,6.3258,6.3117,6.2672,6.2254,6.1977,6.2002,6.1614,6.0746,6.0327,5.9977,5.9607,6.0027,6.0065,5.9607,5.8806,5.7777,5.6518,0.0,0.0,0.0,0.0,0.0,0.0,0.0,0.0,0.0,0.0,0.0,4.2794,4.1495,4.0998,4.1418,4.2221,4.3825,4.6347,4.8411,4.8754,4.6653,4.8411,4.9786,5.0283,5.2537,5.4409,5.5288,5.7237,5.8498,5.8536,5.9568,6.0332,6.0485,6.1478,6.2586,6.3503,6.4993,6.6369,6.7171,6.8801,6.985,7.0094,7.1255,7.2071,7.1825,7.2344,7.2655,7.2302,7.162,7.0976,7.086,7.0238,6.9578,6.9111,6.8723,6.8296,6.7868,6.779,6.7674,6.7285,6.748,6.7674,6.7247,6.7247,6.7402,6.7752,6.7985,6.8062,6.7899,6.7514,6.7528,7.1578,7.154,7.1429,7.0944,7.0385,7.0331,6.9901,6.9132,0.0,0.0,0.0,6.6838,6.6387,6.5749,6.5711,6.5414,6.4894,6.5462,6.554,6.5156,6.5939,6.596,6.5264,6.5474,6.5436,6.5188,6.4438,6.4035,6.382,6.3107,6.2694,6.2682,6.2743,6.2281,6.133,6.0583,6.0096,6.0007,6.0038,6.0038,6.0,5.9239,5.8441,5.7566,5.5931,5.3954,5.1635,5.0748,4.967,4.841,4.8181,4.8266,4.8426,4.7646,4.7188,4.7111,4.5889,4.5507,4.6347,4.7035,4.822,5.0077,5.2231,5.2805,5.1314,5.2461,5.3378,5.3645,5.6282,5.7925,5.8116,5.9606,6.0599,6.0637,6.1593,6.2242,6.2166,6.3427,6.4344,6.4649,6.6369,6.7973,6.8165,6.9578,7.0681,7.086,7.1505,7.1929,7.1887,7.1843,7.1901,7.192,7.1684,7.1542,7.1481,7.1015,7.051,7.0199,6.9694,6.9306,6.915,6.9111,6.8801,6.814,6.8645,6.8684,6.8218,6.8296,6.8606,6.9034,6.9539,6.9811,6.936,6.8754,6.855,7.2647,7.261,7.187,7.15,7.1353,7.0754,7.0301,6.9818,6.8591,6.7926,6.7776,6.71,6.6725,6.6612,6.6612,6.6579,6.6513,6.5948,6.5727,0.0,6.6025,6.5752,6.5099,6.5884,6.5846,6.5061,6.4845,6.4699,6.4554,6.4331,6.399,6.3419,6.3448,6.2686,6.1245,6.0955,6.0471,5.9685,5.9853,5.9918,5.9809,5.9083,5.8218,5.7346,5.5792,5.4086,5.2229,5.1451,5.0962,5.0774,5.0177,5.0212,5.0971,5.0245,4.9786,4.9748,4.9519,4.9786,5.0627,5.0818,5.195,5.4268,5.5467,5.567,5.4791,5.4906,5.5632,5.7008,5.7734,5.8192,5.8918,6.0561,6.1631,6.1669,6.3503,6.4573,6.3885,6.4649,6.5299,6.5337,6.6789,6.8279,6.9158,7.0495,7.145,7.156,7.165,7.1688,7.1332,7.1762,7.2236,7.2344,7.1901,7.1589,7.1564,7.152,7.1093,7.0393,7.0238,6.9966,6.9422,6.9306,6.9228,6.8956,6.915,6.915,6.8956,6.9344,6.95,6.9422,6.9694,7.0005,7.0083,6.9982,6.9982,7.2686,7.265,7.2281,7.1784,7.1361,7.0961,7.0747,7.0714,7.0241,6.9466,6.864,6.8264,6.7851,6.7476,6.7438,6.748,6.7484,6.7109,6.7002,6.7085,6.6749,6.6219,6.5609,6.5565,6.53,6.485,6.4743,6.4671,6.4558,6.4481,6.4293,6.3992,6.3613,6.3007,6.2324,6.1802,6.1279,6.0829,6.0556,6.0433,6.0361,6.0021,5.9416,5.8585,5.7375,5.5977,5.4314,5.3543,5.2987,5.2579,5.1863,5.1649,5.2107,5.1764,5.1789,5.2234,5.2297,5.2908,5.4218,5.4753,5.5517,5.6652,5.711,5.7772,5.8727,5.7925,5.7734,5.8574,6.0141,6.144,6.1898,6.377,6.484,6.442,6.5834,6.6216,6.5261,6.6025,6.6751,6.6904,6.8241,6.9769,7.1107,7.1527,7.1909,7.2176,7.1778,7.1037,7.0716,7.1094,7.1518,7.1727,7.1567,7.1494,7.1511,7.1586,7.1409,7.1059,7.0998,7.086,7.051,7.0432,7.0238,6.9888,7.0121,7.0199,6.9888,7.0354,7.0588,7.0588,7.0588,7.086,7.0976,7.1015,7.1031,7.2263,7.2226,7.2263,7.1955,7.1411,7.1336,7.1417,7.1477,7.1845,7.1156,6.9879,6.9579,6.9053,6.8302,6.8264,6.8264,6.8264,6.8077,6.8006,6.8019,6.7309,6.6709,6.622,6.5462,6.5046,6.4935,6.4672,6.452,6.4405,6.4287,6.4364,6.4367,6.3879,6.3502,6.3276,6.2598,6.2222,6.2108,6.1808,6.158,6.1392,6.1204,6.0864,6.0412,5.9206,5.8,5.6719,5.5767,5.5108,5.4678,5.4124,5.3946,5.4192,5.4258,5.4618,5.5244,5.5195,5.563,5.6816,5.7886,5.8536,5.8727,5.9109,6.0217,6.2022,6.1287,6.0523,6.079,6.2701,6.4076,6.4229,6.5872,6.7018,6.6292,6.7018,6.7133,6.6292,6.7286,6.8279,6.8547,6.996,7.1489,7.2291,7.2291,7.2291,7.2597,7.1947,7.1298,7.1068,7.1095,7.1236,7.1056,7.1154,7.1247,7.1355,7.1416,7.1455,7.1513,7.1529,7.1448,7.1426,7.152,7.1365,7.0782,7.1093,7.117,7.0782,7.1093,7.1442,7.1403,7.1442,7.152,7.152,7.152,7.1614,7.162,7.1557,7.162,7.1707,7.1961,7.2429,7.2458,7.2086,7.2538,7.232,7.1419,7.0705,6.9917,6.9166,6.9091,6.9091,6.9053,6.834,6.8082,6.8094,6.7266,6.697,6.6935,6.6105,6.569,6.5577,6.4858,6.448,6.4366,6.4324,6.4324,6.4405,6.4445,6.403,6.3314,6.3125,6.3049,6.3008,6.3648,6.3648,6.2897,6.2145,6.207,6.2746,6.0454,5.9177,5.8876,5.7594,5.7133,5.7804,5.7791,5.8197,5.8868,5.9153,5.9323,5.9345,5.8825,5.8339,5.8001,5.9262,6.0561,6.1258,6.2624,6.3809,6.4818,6.481,6.4764,6.4688,6.4382,6.4344,6.4267,6.5222,6.5681,6.5299,6.6292,6.7018,6.7668,6.847,6.9349,7.0113,7.1565,7.2559,7.2215,7.2559,7.2941,7.3246,7.3476,7.3361,7.2864,7.2635,7.2243,7.1275,7.092,7.1017,7.1091,7.1163,7.1253,7.1337,7.1436,7.1493,7.1564,7.1598,7.152,7.1365,7.1442,7.1481,7.1481,7.1559,7.1559,7.1598,7.1598,7.1598,7.1598,7.1598,7.1614,7.1494,7.1494,7.1494,7.162,7.1964,7.2516,7.2724,7.2643,7.3156,7.2997,7.2295,7.192,7.1104,6.9992,6.9992,6.9992,6.9954,6.9616,6.9509,6.9439,6.8608,6.8048,6.7563,6.6773,6.6134,6.5645,6.5229,6.4815,6.4399,6.4324,6.4324,6.4364,6.4403,6.4253,6.3875,6.3875,6.3836,6.3796,6.4134,6.4134,6.3834,6.3458,6.3458,6.3533,6.1844,6.0529,6.0041,5.8988,5.8382,5.8229,5.788,5.7838,5.8174,5.8311,5.8439,5.8639,6.0341,6.1182,6.0905,6.2892,6.4038,6.3885,6.4496,6.507,6.5345,6.5413,6.5605,6.6025,6.5872,6.549,6.5108,6.6101,6.6904,6.7209,6.8203,6.9005,6.9349,7.0151,7.0992,7.1833,7.2559,7.3093,7.317,7.3476,7.3896,7.4316,7.4813,7.4851,7.4507,7.4049,7.3471,7.2926,7.2454,7.1765,7.1233,7.0992,7.113,7.1208,7.1317,7.1397,7.1568,7.1581,7.1598,7.1598,7.1598,7.1598,7.1559,7.1598,7.1598,7.1598,7.1598,7.1598,7.1598,7.1598,7.1614,7.1857,7.182,7.182,7.1775,7.1878,7.26,7.2814,7.2816,7.3372,7.3293,7.2832,7.2892,7.2389,7.1479,7.0998,7.0855,7.0818,7.0592,7.048,7.0405,6.9616,6.8903,6.8302,6.7513,6.68,6.6237,6.5974,6.5674,6.5336,6.5298,6.5298,6.5261,6.4847,6.4622,6.4585,6.4434,6.4397,6.4622,6.4622,6.4735,6.4923,6.4735,6.4622,6.451,6.3458,6.2519,6.1956,6.1206,6.0529,5.9927,5.9361,5.9058,5.9058,5.9424,5.9706,6.0121,6.2391,6.3732,6.335,6.5184,6.6063,6.5528,6.5605,6.5872,6.6101,6.6483,6.6942,6.7286,6.7591,6.74,6.6751,6.7744,6.8814,6.9464,6.9922,7.019,7.0686,7.1221,7.168,7.275,7.317,7.3628,7.4354,7.4775,7.5233,7.5997,7.6418,7.6379,7.6188,7.5653,7.508,7.4354,7.3628,7.2887,7.1726,7.1353,7.1337,7.1312,7.141,7.1274,7.1455,7.1529,7.1581,7.1581,7.1598,7.1598,7.1598,7.1598,7.1598,7.1598,7.1598,7.1598,7.1598,7.1598,7.1598,7.2653,7.2653,7.2653,7.2355,7.1889,7.2911,7.3039,7.2553,7.2798,7.298,7.3029,7.329,7.3529,7.3404,7.222,7.1681,7.1569,7.0893,7.0517,7.0442,6.9654,6.9203,6.9091,6.834,6.7889,6.7626,6.7025,6.6988,6.7589,6.7701,6.7851,6.7701,6.6237,6.5486,6.5411,6.4772,6.4697,6.5298,6.5298,6.5711,6.6349,6.5749,6.5373,6.5373,6.5336,6.511,6.5035,6.4434,6.3946,6.3946,6.3686,6.3761,6.3911,6.4633,6.5122,6.5589,6.6122,6.5757,6.4496,6.5184,6.5757,6.5719,6.656,6.7056,6.7935,6.9082,6.9502,6.9082,6.9502,6.9655,6.9043,6.9234,6.9922,7.0075,6.9655,7.0075,7.1412,7.1183,7.1336,7.275,7.3743,7.4622,7.5424,7.6112,7.68,7.764,7.8519,7.8596,7.7793,7.764,7.657,7.5042,7.424,7.3858,7.3051,7.2301,7.1935,7.1737,7.1467,7.1169,7.1253,7.1397,7.1511,7.1564,7.1581,7.1598,7.1598,7.1598,7.1598,7.1598,7.1598,7.1598,7.1598,7.1598,7.1598,7.3486,7.3486,7.3486,7.3305,7.318,7.3239,7.313,7.2898,7.2679,7.2686,7.2853,7.3124,7.3335,7.3452,7.318,7.2857,7.2395,7.1644,7.1006,7.0517,7.0179,6.9766,6.9203,6.8903,6.8452,6.8002,6.7701,6.7438,6.7288,6.7739,6.8002,6.7926,6.7438,6.71,6.6875,6.5749,6.5223,6.5411,6.5035,6.4885,6.5298,6.5373,6.5486,6.5486,6.5486,6.5261,6.4735,6.4923,6.485,6.4326,6.4324,6.4284,6.4324,6.4332,6.4476,6.4757,6.5416,6.5741,6.5848,6.7025,6.8317,6.9311,6.9693,6.9846,7.0342,7.0839,7.0686,6.9693,6.996,7.019,6.9884,6.9311,6.9043,6.954,6.9884,7.0457,7.1527,7.2329,7.3093,7.3743,7.4545,7.573,7.6991,7.722,7.7296,7.8481,7.8634,7.8366,7.8022,7.7564,7.6838,7.6036,7.5348,7.4927,7.4698,7.3395,7.2505,7.205,7.1727,7.1467,7.1448,7.1334,7.1378,7.1511,7.1564,7.1598,7.1598,7.1598,7.1598,7.1598,7.1598,7.1598,7.1598,7.1598,7.1598,7.4754,7.4392,7.4573,7.4356,7.3885,7.3888,7.3624,7.3432,7.307,7.2885,7.2841,7.3055,7.3278,7.3421,7.3447,7.3516,7.3228,7.2351,7.1704,7.1224,7.0961,7.0548,7.0104,6.9992,6.9616,6.894,6.879,6.849,6.8114,6.8527,6.879,6.8828,6.8302,6.8002,6.7776,6.6612,6.5936,6.5786,6.5373,6.511,6.5185,6.5636,6.5936,6.5974,6.6162,6.6087,6.5523,6.6049,6.609,6.5567,6.5264,6.5001,6.474,6.4671,6.4895,6.5376,6.6607,6.7354,6.7807,6.9164,7.0342,7.1145,7.1221,7.1221,7.0992,7.1603,7.1336,7.0572,7.103,7.1603,7.1374,7.0419,6.9884,7.0648,7.1107,7.1603,7.2406,7.3514,7.4201,7.466,7.5348,7.6647,7.7946,7.7564,7.7755,7.8787,7.8328,7.8022,7.7908,7.7564,7.6953,7.6723,7.6188,7.573,7.5348,7.4427,7.3624,7.3111,7.2011,7.1727,7.1531,7.1371,7.1296,7.1436,7.1568,7.1603,7.1581,7.1598,7.1598,7.1598,7.1598,7.1598,7.1598,7.1598,7.1598,7.6565,7.5442,7.5985,7.5442,7.4392,7.4718,7.4609,7.3957,7.3877,7.3498,7.3141,7.3349,7.3575,7.3566,7.3259,7.3369,7.3552,7.2806,7.2432,7.2341,7.1827,7.1583,7.1449,7.1374,7.1081,7.0405,7.0442,7.0442,7.0292,7.0405,7.048,7.0179,6.9015,6.849,6.8152,6.7438,6.6875,6.695,6.6875,6.68,6.68,6.6875,6.6913,6.695,6.7551,6.7926,6.7926,6.7926,6.7851,6.7776,6.7176,6.6466,6.6212,6.6595,6.7505,6.8451,7.0153,7.0753,7.0362,7.0997,7.1107,7.103,7.0648,7.0724,7.061,7.1947,7.2711,7.2138,7.2941,7.3934,7.3705,7.2979,7.275,7.3858,7.3059,7.3021,7.3705,7.4129,7.4549,7.5348,7.6112,7.6647,7.6953,7.7335,7.7755,7.787,7.7793,7.764,7.7602,7.7411,7.7411,7.6876,7.6341,7.5959,7.5692,7.5386,7.4889,7.4236,7.2811,7.1942,7.1699,7.1506,7.124,7.1334,7.1532,7.1547,7.1598,7.1598,7.1598,7.1598,7.1598,7.1636,7.1598,7.1598,7.1598,7.8014,7.7543,7.7217,7.6855,7.6239,7.5515,7.4935,7.4682,7.4175,7.3776,7.3688,7.3968,7.3861,7.347,7.3377,7.3272,7.2998,7.2614,7.2405,7.2295,7.2646,7.2347,7.1668,7.1629,7.1569,7.1381,7.1343,7.1306,7.1419,7.1832,7.1907,7.1306,7.0818,7.0592,7.0367,6.9241,6.8715,6.9203,6.8753,6.8452,6.8452,6.8452,6.8452,6.849,6.8715,6.9091,6.9616,6.9166,6.8865,6.8865,6.8602,6.8608,6.8922,6.8851,6.9199,7.0116,7.027,7.0684,7.1058,7.1498,7.1947,7.2176,7.2673,7.2902,7.2788,7.3819,7.4278,7.3552,7.3934,7.401,7.3476,7.317,7.3284,7.3361,7.317,7.317,7.3628,7.3972,7.4851,7.6036,7.6532,7.6914,7.7296,7.7487,7.7105,7.7067,7.6723,7.6379,7.6341,7.6456,7.6227,7.5883,7.5806,7.5921,7.5653,7.5501,7.5233,7.4698,7.3548,7.2581,7.2241,7.1814,7.1493,7.1347,7.1514,7.1624,7.162,7.1714,7.1792,7.1753,7.1831,7.1792,7.1636,7.1753,7.1986,7.9426,7.91,7.8593,7.8195,7.7869,7.6818,7.6275,7.5949,7.5478,7.4899,7.453,7.4551,7.4206,7.365,7.3665,7.3532,7.3094,7.3313,7.32,7.2907,7.34,7.329,7.2522,7.222,7.2132,7.2094,7.1869,7.1719,7.1719,7.217,7.2207,7.1794,7.1681,7.1644,7.1644,7.0743,7.0442,7.078,7.0442,7.0142,7.0142,7.0142,7.0142,7.0142,7.0142,7.0405,7.0893,7.0405,7.0142,7.0067,6.9879,6.9885,7.0041,6.9853,7.0169,7.0753,7.1256,7.156,7.1936,7.2723,7.3132,7.359,7.4201,7.4469,7.4507,7.5195,7.5539,7.4851,7.531,7.5386,7.5042,7.4889,7.4851,7.4851,7.401,7.3819,7.4201,7.4813,7.5462,7.6456,7.6685,7.6838,7.68,7.6685,7.6265,7.615,7.5806,7.5501,7.5501,7.5539,7.5501,7.5501,7.5577,7.5615,7.5539,7.5501,7.5501,7.4966,7.4278,7.3586,7.3111,7.2579,7.2168,7.1866,7.1882,7.2013,7.2025,7.218,7.2297,7.2219,7.2452,7.2491,7.2647,7.2763,7.2841,8.0658,8.0006,7.9897,7.939,7.8774,7.8557,7.805,7.7579,7.7362,7.6529,7.5515,7.5225,7.4718,7.4102,7.4058,7.395,7.3993,7.4385,7.4514,7.4274,7.4396,7.431,7.4211,7.3512,7.3129,7.3071,7.2395,7.2019,7.2132,7.2207,7.1832,7.1907,7.1907,7.1794,7.1869,7.1757,7.1757,7.1907,7.1869,7.1832,7.1869,7.1832,7.1832,7.1832,7.1869,7.1869,7.1944,7.1907,7.1757,7.1606,7.0893,7.0292,6.9766,7.0142,7.0723,7.101,7.2576,7.3079,7.3306,7.4364,7.508,7.4622,7.5233,7.5271,7.4927,7.5921,7.6532,7.5921,7.6914,7.7717,7.764,7.7602,7.7602,7.7602,7.573,7.5195,7.6341,7.6494,7.6341,7.6456,7.657,7.6379,7.5806,7.5653,7.5615,7.5577,7.5539,7.5501,7.5501,7.5501,7.5501,7.5501,7.5501,7.5501,7.5501,7.5501,7.5501,7.5271,7.4736,7.435,7.3767,7.3231,7.3129,7.277,7.2425,7.2517,7.2802,7.319,7.3501,7.3773,7.3812,7.3734,7.389,7.4162,7.4084,8.0984,8.073,8.0151,7.9788,7.9499,7.8992,7.8593,7.8303,7.776,7.7253,7.6746,7.6239,7.5515,7.4826,7.479,7.45,7.4211,7.4211,7.4573,7.4885,7.515,7.5011,7.4837,7.4573,7.4485,7.4488,7.3822,7.3559,7.3559,7.3409,7.3146,7.262,7.2583,7.2583,7.2583,7.2583,7.2958,7.3484,7.3521,7.3484,7.3484,7.3446,7.3559,7.3559,7.3484,7.3484,7.3521,7.3559,7.2921,7.1794,7.1531,7.1343,7.1006,7.1231,7.1507,7.1954,7.2879,7.3952,7.4638,7.5661,7.6188,7.615,7.6685,7.6953,7.615,7.7029,7.7487,7.7411,7.7831,7.8061,7.8061,7.8061,7.8061,7.787,7.6838,7.6188,7.6456,7.615,7.5806,7.5806,7.5844,7.573,7.5577,7.5501,7.5501,7.5501,7.5501,7.5501,7.5501,7.5501,7.5501,7.5501,7.5501,7.5501,7.5501,7.5501,7.5501,7.5462,7.5195,7.4889,7.4331,7.3744,7.3998,7.4193,7.3724,7.364,7.4317,7.4861,7.5133,7.5405,7.5638,7.5754,7.5793,7.5988,7.5871,8.1092,8.1092,8.0621,8.0404,8.0368,7.9933,7.9499,7.9064,7.834,7.776,7.7393,7.6637,7.6058,7.5623,7.5587,7.537,7.4935,7.4935,7.5189,7.5581,7.5916,7.5652,7.5254,7.5314,7.5234,7.4816,7.4751,7.4498,7.4235,7.4197,7.3897,7.3559,7.3446,7.3446,7.3446,7.3484,7.3672,7.4085,7.4197,7.4197,7.4197,7.4197,7.4197,7.4197,7.4197,7.4197,7.4197,7.4197,7.3559,7.2507,7.2207,7.2094,7.1794,7.2057,7.2447,7.301,7.4052,7.5015,7.5704,7.6653,7.6991,7.6914,7.7487,7.7717,7.7526,7.8061,7.8557,7.8519,7.8825,7.9016,7.9054,7.9054,7.9054,7.9054,7.829,7.7526,7.6838,7.6341,7.5883,7.5615,7.5501,7.5501,7.5501,7.5501,7.5501,7.5501,7.5501,7.5501,7.5501,7.5501,7.5501,7.5501,7.5501,7.5501,7.5501,7.5501,7.5501,7.5462,7.5424,7.5195,7.49,7.4379,7.4629,7.4889,7.479,7.5016,7.5716,7.6415,7.692,7.7231,7.7541,7.758,7.7503,7.7619,7.7503,8.1092,8.1092,8.1092,8.1092,8.1056,8.1092,8.0585,8.0003,7.9173,7.8481,7.7756,7.6886,7.6492,7.642,7.6239,7.6239,7.6203,7.6022,7.613,7.627,7.6294,7.6079,7.551,7.5753,7.5515,7.4922,7.5266,7.5089,7.4798,7.4535,7.4385,7.4272,7.4235,7.416,7.4047,7.4122,7.4197,7.4197,7.4197,7.4197,7.4197,7.4197,7.4197,7.4197,7.4423,7.446,7.446,7.446,7.416,7.3221,7.3108,7.2733,7.2207,7.2733,7.3394,7.4293,7.5187,7.604,7.6655,7.7492,7.7946,7.7638,7.8022,7.8252,7.8482,7.9054,7.9398,7.9398,8.0086,8.02,8.0238,8.0315,8.0162,8.0009,7.9627,7.8519,7.7411,7.6876,7.6532,7.5844,7.5768,7.5615,7.5577,7.5539,7.5539,7.5883,7.5806,7.5653,7.5615,7.5615,7.5577,7.5501,7.5501,7.5501,7.5501,7.5501,7.5501,7.5501,7.5501,7.5383,7.5469,7.5187,7.5246,7.5392,7.5857,7.6436,7.7036,7.7736,7.8435,7.894,7.9212,7.9018,7.8823,7.9095,7.9134,8.1092,8.1092,8.1092,8.1092,8.1092,8.1092,8.0984,8.073,7.9933,7.9318,7.9028,7.7833,7.7217,7.7181,7.6637,7.6275,7.6311,7.6275,7.6275,7.6275,7.6378,7.6098,7.5764,7.6037,7.6273,7.6185,7.6056,7.6031,7.5877,7.5399,7.5136,7.5098,7.4648,7.4197,7.4235,7.431,7.4197,7.4197,7.4197,7.4197,7.4197,7.4272,7.431,7.4385,7.4836,7.5136,7.5286,7.5812,7.5737,7.4986,7.431,7.3859,7.3596,7.3709,7.4147,7.4746,7.5565,7.6534,7.7417,7.8408,7.9207,7.9474,7.9551,7.9971,7.9971,8.0009,8.02,8.0238,8.043,8.0506,8.0468,7.9933,8.0009,8.02,7.9818,7.9207,7.871,7.8099,7.764,7.7296,7.68,7.6456,7.6418,7.5921,7.5959,7.6227,7.6188,7.5921,7.5959,7.6036,7.5997,7.6036,7.6036,7.6074,7.573,7.5653,7.5501,7.5535,7.5535,7.5561,7.5641,7.5822,7.58,7.6421,7.7292,7.7797,7.8008,7.9251,7.9989,8.0416,8.0727,8.0572,8.0455,8.0649,8.0494,8.1092,8.1092,8.1092,8.1092,8.1056,8.073,8.0513,8.0295,7.9245,7.8992,7.8992,7.7977,7.7507,7.747,7.7036,7.6674,7.6348,7.6275,7.6275,7.6275,7.6275,7.6191,7.6098,7.6287,7.6589,7.6604,7.6737,7.6768,7.6466,7.6225,7.5962,7.5962,7.5474,7.5173,7.4798,7.476,7.4573,7.4272,7.4197,7.4197,7.4197,7.461,7.5023,7.5286,7.5737,7.5962,7.6037,7.6338,7.6375,7.5962,7.5549,7.4948,7.431,7.4235,7.4673,7.5651,7.6209,7.7445,7.8635,7.9477,8.0009,8.043,8.0506,8.0506,8.0506,8.0506,8.0506,8.0506,8.0506,8.0506,8.0468,8.0238,8.0162,8.0277,8.0124,7.9856,7.9704,7.9092,7.8404,7.8099,7.7564,7.7373,7.7105,7.68,7.722,7.787,7.7335,7.7105,7.7564,7.7564,7.7067,7.6991,7.6876,7.6647,7.6188,7.5844,7.5501,7.5535,7.557,7.5654,7.5793,7.6041,7.6276,7.6947,7.7563,7.8282,7.8746,8.0105,8.1077,8.1271,8.1465,8.1776,8.1659,8.1038,8.1077,8.1092,8.1092,8.1092,8.1056,8.0839,8.0368,8.0078,7.975,7.8593,7.8847,7.8843,7.8195,7.8086,7.7869,7.7543,7.7036,7.6456,7.6275,7.6275,7.6275,7.6275,7.6306,7.6366,7.661,7.6764,7.6235,7.708,7.7265,7.7141,7.6863,7.6826,7.6751,7.66,7.6112,7.5662,7.5549,7.5361,7.4911,7.4836,7.4798,7.4836,7.5324,7.5887,7.6262,7.6713,7.6788,7.6863,7.7051,7.7089,7.6976,7.6976,7.6262,7.5324,7.4685,7.5267,7.7047,7.7344,7.8125,7.9279,8.0087,8.043,8.0506,8.0506,8.0506,8.0506,8.0506,8.0506,8.0506,8.0506,8.0506,8.0506,8.0391,8.043,8.0506,8.0506,8.0506,8.0391,7.9856,7.9207,7.871,7.8443,7.829,7.8328,7.8252,7.8863,7.9245,7.8672,7.8443,7.8901,7.871,7.8061,7.764,7.7449,7.7373,7.6953,7.6723,7.6303,7.5952,7.5872,7.5902,7.6024,7.6135,7.6451,7.6931,7.7563,7.8302,7.9251,8.0416,8.1232,8.1737,8.1892,8.1892,8.1621,8.1232,8.1504,8.1092,8.1092,8.1092,8.073,8.0259,8.0658,8.044,8.0042,8.0151,8.0549,8.0476,7.9825,7.9354,7.9136,7.7977,7.7072,7.6565,7.6348,7.6275,7.6275,7.6275,7.6378,7.6643,7.6993,7.7289,7.7661,7.796,7.8133,7.8304,7.8065,7.7689,7.7539,7.7089,7.6638,7.6563,7.6413,7.63,7.5962,7.5924,7.5962,7.6075,7.6262,7.6563,7.6901,7.7389,7.7652,7.7839,7.829,7.8703,7.8703,7.8703,7.8478,7.7764,7.6788,7.6893,7.7643,7.7937,7.8301,7.9236,7.997,8.0315,8.043,8.0468,8.0506,8.0506,8.0582,8.0735,8.0697,8.0659,8.0544,8.0506,8.0544,8.0506,8.0506,8.0582,8.0659,8.0621,8.0506,8.0391,8.0124,7.9665,7.9245,7.9321,7.9551,8.0124,8.0391,8.0162,8.0009,8.0277,7.9551,7.8443,7.8137,7.7946,7.7908,7.7755,7.764,7.737,7.6824,7.6618,7.6417,7.6453,7.635,7.6566,7.6901,7.772,7.8728,7.9717,8.0688,8.1349,8.1854,8.1892,8.1892,8.1737,8.1543,8.1621,8.1092,8.1056,8.0694,8.0513,8.044,8.0006,7.9897,7.9897,7.9897,8.0114,8.0295,8.0078,7.9897,7.968,7.9209,7.8086,7.7072,7.642,7.6311,7.6275,7.6378,7.6578,7.6801,7.7206,7.7688,7.8109,7.8367,7.8671,7.8991,7.8741,7.8478,7.844,7.8065,7.7727,7.7389,7.7276,7.7013,7.6788,7.6675,7.6675,7.6751,7.7013,7.7389,7.7915,7.8215,7.8478,7.859,7.8816,7.9079,7.9079,7.9079,7.9116,7.8741,7.8177,7.7711,7.8417,7.8149,7.8252,7.9111,7.9964,8.0275,8.0392,8.0468,8.0506,8.0621,8.0888,8.1308,8.1576,8.1308,8.1156,8.1194,8.0812,8.0735,8.1079,8.1194,8.1347,8.1614,8.1729,8.169,8.1499,8.0697,8.0238,8.0238,8.0621,8.1232,8.1461,8.1461,8.1576,8.1652,8.0735,7.9551,7.9169,7.9016,7.8748,7.8634,7.8404,7.825,7.7743,7.7374,7.7169,7.6828,7.6698,7.6609,7.6711,7.7718,7.8862,7.9756,8.0572,8.1271,8.1892,8.1892,8.1892,8.1892,8.1892,8.1892,8.0621,8.0549,7.9933,8.0042,8.0368,7.9462,7.9318,7.9716,7.9499,7.968,8.0078,8.0187,8.0187,8.0042,7.9607,7.881,7.747,7.6637,7.6311,7.6378,7.6512,7.6773,7.7082,7.745,7.792,7.8367,7.8671,7.8915,7.9066,7.9041,7.9079,7.9004,7.9041,7.8816,7.8253,7.814,7.7614,7.7351,7.7089,7.7089,7.7276,7.7764,7.8403,7.9004,7.9116,7.9079,7.9004,7.9079,7.9116,7.9116,7.9116,7.9116,7.8966,7.8328,7.8339,7.8849,7.7937,7.827,7.9058,7.9954,8.0195,8.0353,8.0431,8.0582,8.1003,8.1576,8.2264,8.2722,8.2493,8.1881,8.169,8.1347,8.1347,8.1576,8.192,8.2225,8.2569,8.2722,8.2646,8.2225,8.1499,8.1347,8.1423,8.1232,8.1767,8.2531,8.2569,8.2684,8.2722,8.2264,8.1308,8.0697,8.0277,7.9856,7.9513,7.913,7.8899,7.8512,7.8185,7.7916,7.7456,7.7046,7.6936,7.6885,7.7718,7.8785,7.9639,8.0494,8.1387,8.1892,8.1892,8.1892,8.1892,8.1815,8.1776,7.8992,7.8992,7.8883,7.8883,7.9136,7.9462,7.9752,7.9933,8.0368,8.0839,8.0766,8.0911,8.0839,8.0621,7.939,7.8376,7.7507,7.671,7.6275,7.6378,7.6512,7.6902,7.7304,7.7783,7.8146,7.8618,7.8915,7.9066,7.9116,7.9116,7.9116,7.9116,7.9116,7.9004,7.8853,7.8778,7.8891,7.8778,7.8703,7.8703,7.8703,7.8816,7.8966,7.9079,7.9116,7.9116,7.9116,7.9116,7.9116,7.9116,7.9116,7.9116,7.8966,7.8328,7.844,7.8639,7.8473,7.8171,7.8889,7.9789,8.0418,8.0578,8.0621,8.0927,8.1729,8.2378,8.2951,8.2913,8.2875,8.2646,8.234,8.2378,8.2302,8.2378,8.2607,8.2837,8.3181,8.3677,8.3601,8.3372,8.2722,8.2646,8.2684,8.2378,8.2264,8.3066,8.3677,8.3754,8.3524,8.299,8.234,8.1499,8.1079,8.0659,8.0124,7.978,7.9587,7.9241,7.8918,7.8653,7.8248,7.7705,7.7202,7.7369,7.8108,7.8435,7.8862,7.9872,8.131,8.1892,8.1892,8.1892,8.1892,8.1815,8.1659,7.7869,7.8629,7.8195,7.8557,7.9281,7.8847,7.91,7.9752,7.9788,8.0006,8.0368,8.044,8.0658,8.0694,7.9426,7.8557,7.7941,7.6855,7.6311,7.6342,7.6541,7.6993,7.751,7.792,7.8367,7.8775,7.9016,7.9066,7.9116,7.9116,7.9116,7.9116,7.9116,7.9116,7.9116,7.9116,7.9079,7.9079,7.9079,7.9079,7.9116,7.9116,7.9116,7.9116,7.9116,7.9116,7.9116,7.9116,7.9116,7.9116,7.9116,7.9116,7.9079,7.8816,7.8816,7.9004,7.9353,7.9499,7.9848,8.0725,8.1165,8.1565,8.1804,8.234,8.3066,8.3486,8.3983,8.4403,8.3983,8.3563,8.3142,8.3066,8.3142,8.3219,8.3448,8.3868,8.4136,8.4365,8.4556,8.4289,8.3983,8.3754,8.3639,8.3524,8.3142,8.3181,8.3945,8.4403,8.3983,8.3333,8.2607,8.1805,8.1538,8.1347,8.0735,8.0238,8.0238,7.9968,7.9462,7.9242,7.8968,7.854,7.8022,7.787,7.8457,7.8572,7.8357,7.9367,8.0882,8.1465,8.1892,8.1737,8.1543,8.1698,8.1465,7.7,7.8014,7.7434,7.8122,7.9462,7.8267,7.8774,8.0042,7.968,7.9716,8.0078,8.0295,8.0621,8.0621,7.9535,7.8666,7.8557,7.7036,7.642,7.6409,7.6607,7.7082,7.751,7.7977,7.8367,7.9016,7.8979,7.9016,7.9066,7.9066,7.9116,7.9116,7.9116,7.9116,7.9116,7.9116,7.9116,7.9116,7.9116,7.9116,7.9116,7.9116,7.9116,7.9116,7.9116,7.9116,7.9116,7.9116,7.9116,7.9116,7.9116,7.9116,7.9079,7.9041,7.9004,7.9341,7.9867,8.0692,8.1047,8.1657,8.2336,8.2745,8.3178,8.3448,8.4021,8.4403,8.4747,8.5282,8.4938,8.4556,8.4289,8.3792,8.3907,8.4136,8.4403,8.4938,8.5282,8.5167,8.5091,8.4938,8.4671,8.4441,8.4365,8.4518,8.4212,8.3677,8.4098,8.4862,8.4556,8.3868,8.341,8.2798,8.2646,8.2378,8.1729,8.1194,8.1041,8.0658,8.0193,7.9719,7.9415,7.9191,7.8824,7.8873,7.8942,7.8243,7.7775,7.9095,8.0339,8.061,8.0844,8.1077,8.1154,8.1232,8.0882,7.6348,7.6456,7.642,7.7326,7.8774,7.8702,7.9499,8.0658,8.0766,8.0694,8.0766,8.0984,8.0984,8.0694,7.9571,7.8702,7.8629,7.7036,7.6456,7.6378,7.6578,7.7066,7.75,7.7931,7.8276,7.8842,7.8985,7.9014,7.8915,7.9003,7.9066,7.9116,7.9066,7.9116,7.9116,7.9116,7.9116,7.9116,7.9116,7.9116,7.9116,7.9116,7.9116,7.9116,7.9116,7.9116,7.9116,7.9116,7.9116,7.9116,7.9116,7.9116,7.9116,7.9116,7.9116,7.9567,8.0581,8.1407,8.1915,8.2339,8.2532,8.2974,8.3597,8.425,8.4518,8.5091,8.5435,8.5473,8.5282,8.5015,8.4824,8.4747,8.4747,8.4709,8.4862,8.5167,8.5435,8.5435,8.5397,8.5473,8.5282,8.4976,8.4862,8.4938,8.4594,8.4059,8.4289,8.5015,8.5282,8.4824,8.4518,8.4136,8.3983,8.3601,8.2913,8.2378,8.1729,8.127,8.0886,8.034,7.9824,7.9614,7.9688,7.937,7.9251,7.8185,7.7425,7.8474,7.9251,7.9484,7.9678,7.9795,7.9795,7.9756,7.9328,7.6275,7.6275,7.6275,7.6927,7.7977,7.7941,7.8593,7.9535,7.9643,7.9933,8.044,8.0875,8.1092,8.0658,7.9535,7.8702,7.8484,7.7,7.6456,7.6378,7.6578,7.7093,7.7657,7.8198,7.8684,7.9257,7.9298,7.9203,7.9365,7.8985,7.876,7.8775,7.8929,7.9016,7.9016,7.9066,7.9116,7.9116,7.9116,7.9116,7.9116,7.9116,7.9116,7.9116,7.9116,7.9116,7.9116,7.9116,7.9116,7.9116,7.9116,7.9116,7.9154,7.9154,7.9417,7.9867,8.1031,8.1896,8.2745,8.3322,8.3981,8.4355,8.4822,8.4976,8.4938,8.5358,8.5473,8.5511,8.5511,8.5244,8.5244,8.5282,8.532,8.5206,8.5244,8.5435,8.5511,8.5511,8.5511,8.5511,8.5473,8.532,8.5282,8.532,8.4862,8.4441,8.4785,8.5129,8.5358,8.5473,8.5091,8.4785,8.4594,8.4059,8.3333,8.276,8.2264,8.1843,8.1461,8.0915,8.0356,8.0675,8.0615,8.0206,7.9774,7.9175,7.859,7.8085,7.8202,7.859,7.8552,7.8318,7.8318,7.8357,7.8124,7.6275,7.6311,7.6565,7.7108,7.7796,7.7869,7.8484,7.9318,7.9499,7.9716,8.0295,8.0875,8.1092,8.0694,7.9752,7.8883,7.8448,7.7398,7.6674,7.656,7.6772,7.7364,7.8025,7.8583,7.9066,7.9744,7.9409,7.9163,7.9372,7.8721,7.8478,7.8565,7.8775,7.8915,7.8827,7.8979,7.9116,7.9116,7.9116,7.9116,7.9116,7.9417,7.9529,7.9642,7.983,7.9792,7.9679,7.9604,7.9379,7.9229,7.9116,7.9116,7.9191,7.9379,7.9792,8.0505,8.1382,8.2335,8.3187,8.4164,8.4975,8.5159,8.5317,8.5395,8.5511,8.5511,8.5511,8.5511,8.5511,8.5511,8.5511,8.5511,8.5511,8.5358,8.5358,8.5511,8.5511,8.5511,8.5511,8.5511,8.5473,8.5473,8.5473,8.5435,8.5244,8.4938,8.5091,8.5282,8.5397,8.5473,8.532,8.5053,8.4862,8.425,8.3563,8.3295,8.2951,8.1994,8.1645,8.1321,8.1054,8.1291,8.1362,8.1004,8.0591,8.0242,7.9756,7.9173,7.8435,7.7852,7.7736,7.7619,7.7503,7.758,7.758,7.6275,7.6384,7.7108,7.7905,7.8557,7.8666,7.9499,8.0585,8.0839,8.0875,8.0947,8.1092,8.1092,8.0875,8.0078,7.9426,7.8774,7.7905,7.7217,7.6891,7.7321,7.7777,7.8274,7.8909,7.9486,7.948,7.9228,7.9007,7.9253,7.8479,7.8202,7.8349,7.8565,7.8775,7.8491,7.8878,7.9116,7.9116,7.9116,7.9116,7.9417,7.9905,8.013,8.0468,8.0806,8.0768,8.0468,8.013,7.9905,7.9679,7.9417,7.9417,7.9529,8.0092,8.0468,8.0731,8.197,8.2735,8.3163,8.4315,8.4975,8.5346,8.5388,8.5431,8.5471,8.5511,8.5511,8.5511,8.5511,8.5511,8.5511,8.5511,8.5511,8.5511,8.5511,8.5511,8.5511,8.5511,8.5511,8.5511,8.5511,8.5511,8.5511,8.5511,8.5511,8.5435,8.5473,8.5511,8.5511,8.5473,8.5358,8.532,8.5129,8.4862,8.4327,8.4098,8.3601,8.2566,8.1713,8.1343,8.1253,8.1388,8.1461,8.1536,8.1387,8.096,8.061,8.0222,7.9328,7.8357,7.7425,7.7114,7.6959,7.692,7.7036,7.6275,7.6348,7.7181,7.7941,7.8702,7.9281,7.9861,8.0332,8.0839,8.1092,8.1092,8.1092,8.1092,8.0839,8.0368,7.9752,7.939,7.8702,7.7977,7.7941,7.8195,7.8735,7.913,7.9489,7.9994,8.0099,7.9646,7.9096,7.9349,7.8403,7.7857,7.7977,7.8458,7.8633,7.8827,7.9066,7.9116,7.9116,7.9154,7.9341,7.9905,8.028,8.0693,8.1144,8.1557,8.1557,8.1181,8.0843,8.0543,8.0468,8.0243,8.0168,8.0505,8.1106,8.1407,8.1782,8.2796,8.3148,8.3728,8.4551,8.4916,8.5176,8.5346,8.5429,8.5471,8.5511,8.5511,8.5511,8.5511,8.5511,8.5511,8.5511,8.5511,8.5511,8.5511,8.5511,8.5511,8.5511,8.5511,8.5511,8.5511,8.5511,8.5511,8.5473,8.5473,8.532,8.5282,8.5435,8.5511,8.5511,8.5473,8.5473,8.5397,8.532,8.5091,8.4441,8.3754,8.2719,8.1858,8.1201,8.1242,8.1451,8.163,8.1737,8.1699,8.1621,8.1077,8.0494,7.9872,7.9018,7.8202,7.7541,7.7464,7.7153,7.6803,7.6275,7.642,7.747,7.8195,7.8774,7.9571,8.0042,8.0368,8.0875,8.0984,8.0766,8.0947,8.0911,8.0658,8.0476,8.0042,7.9897,7.9426,7.8774,7.881,7.9028,7.9354,7.9752,8.0223,8.0654,8.0763,8.0107,7.947,7.9453,7.8431,7.8116,7.8276,7.8404,7.8947,7.9354,7.9604,7.9604,7.9717,7.9905,8.0355,8.0768,8.1144,8.1557,8.2007,8.2308,8.2383,8.197,8.1632,8.1294,8.1407,8.1256,8.1069,8.1519,8.197,8.227,8.2683,8.3209,8.3561,8.4078,8.4343,8.4675,8.4871,8.5094,8.5346,8.5431,8.5431,8.5471,8.5511,8.5511,8.5511,8.5511,8.5511,8.5511,8.5511,8.5511,8.5511,8.5511,8.5511,8.5511,8.5511,8.5511,8.5511,8.5511,8.5435,8.5397,8.5206,8.5053,8.5206,8.532,8.532,8.5282,8.5282,8.5282,8.5167,8.4824,8.4289,8.3601,8.2909,8.2155,8.1445,8.135,8.1585,8.1734,8.1873,8.1854,8.1659,8.1271,8.0727,8.0533,8.0028,7.929,7.8707,7.8163,7.7425,7.6764,7.6275,7.6529,7.805,7.8666,7.8847,7.9571,8.0332,8.1056,8.1056,8.0621,8.0006,8.073,8.0658,8.0223,8.0694,8.0658,8.0187,8.0006,7.9607,7.9318,7.9716,7.9969,8.0259,8.0694,8.1123,8.1048,8.0604,8.0064,7.9764,7.9104,7.8852,7.8842,7.8858,7.944,7.9967,8.0468,8.0468,8.0618,8.0843,8.1256,8.1632,8.2195,8.2533,8.2909,8.3284,8.3284,8.2984,8.2608,8.227,8.2045,8.1707,8.1707,8.1918,8.2406,8.2721,8.3096,8.3697,8.3922,8.4125,8.428,8.4381,8.4589,8.4825,8.5094,8.5304,8.5388,8.5431,8.5471,8.5511,8.5511,8.5511,8.5511,8.5511,8.5511,8.5511,8.5511,8.5511,8.5511,8.5511,8.5511,8.5511,8.5511,8.5473,8.5397,8.5129,8.4747,8.4518,8.4441,8.4556,8.4747,8.4747,8.4785,8.4824,8.4862,8.4518,8.4059,8.3601,8.2945,8.2593,8.1986,8.189,8.1669,8.1814,8.1892,8.1892,8.1737,8.1465,8.1504,8.1659,8.1038,8.0183,7.9328,7.8629,7.7425,7.6803,7.6275,7.6456,7.8014,7.8702,7.881,7.9571,8.0368,8.0984,8.0549,8.0078,7.9897,8.0151,8.0114,7.9969,8.073,8.0875,8.0839,8.0766,8.0694,8.0585,8.0476,8.0694,8.091,8.1089,8.1408,8.1391,8.1117,8.0828,8.0653,8.0073,7.9168,7.8858,7.9477,8.008,8.0718,8.1519,8.1519,8.1557,8.1745,8.2045,8.2383,8.2796,8.3171,8.3622,8.3885,8.3847,8.366,8.3134,8.2909,8.3247,8.2683,8.2683,8.3434,8.3622,8.3735,8.3735,8.3998,8.411,8.411,8.4215,8.428,8.4381,8.4589,8.4954,8.5176,8.5346,8.5391,8.5471,8.5511,8.5511,8.5511,8.5511,8.5511,8.5511,8.5511,8.5511,8.5511,8.5511,8.5511,8.5511,8.5511,8.5511,8.5473,8.5129,8.4785,8.4327,8.3983,8.3868,8.3792,8.3983,8.4136,8.4174,8.4136,8.4136,8.4136,8.3754,8.3409,8.3055,8.274,8.235,8.1813,8.1669,8.1834,8.1892,8.1892,8.1892,8.1854,8.1892,8.1892,8.1621,8.0882,7.9989,7.9057,7.7969,7.7386,7.6275,7.6529,7.8014,7.8883,7.9173,7.9354,7.9716,8.0006,7.9643,7.9318,7.9028,7.9643,7.9716,7.9607,8.0513,8.1092,8.1056,8.102,8.0984,8.0984,8.1092,8.1127,8.1234,8.1478,8.1715,8.1827,8.1828,8.1711,8.1348,8.0544,7.9589,8.0076,8.0417,8.0806,8.1444,8.2233,8.2646,8.2646,8.2721,8.2909,8.3096,8.3284,8.3697,8.396,8.411,8.411,8.4073,8.3434,8.366,8.4035,8.3434,8.3547,8.4073,8.4073,8.4073,8.4035,8.4073,8.411,8.411,8.4163,8.4215,8.4317,8.4481,8.477,8.4961,8.5181,8.5349,8.5471,8.5471,8.5511,8.5511,8.5511,8.5511,8.5511,8.5511,8.5511,8.5511,8.5511,8.5511,8.5511,8.5511,8.5511,8.532,8.4938,8.4594,8.4327,8.3868,8.341,8.3257,8.3181,8.3333,8.3448,8.3372,8.3333,8.3333,8.3448,8.3217,8.309,8.3125,8.2631,8.1929,8.1669,8.1854,8.1892,8.1892,8.1892,8.1892,8.1892,8.1854,8.1621,8.131,8.0533,7.9756,7.8979,7.8668,7.6275,7.642,7.7977,7.8992,7.9607,7.8955,7.8593,7.8521,7.8448,7.8159,7.7941,7.9028,7.9245,7.9173,8.0187,8.0947,8.1056,8.1092,8.1092,8.1092,8.1163,8.1234,8.1478,8.1715,8.2113,8.2434,8.2597,8.2453,8.1772,8.1157,8.0975,8.1557,8.1106,8.1369,8.2345,8.2871,8.3284,8.3585,8.366,8.381,8.3885,8.4035,8.411,8.4073,8.411,8.411,8.411,8.4073,8.411,8.4073,8.4073,8.4073,8.4073,8.411,8.411,8.411,8.411,8.411,8.411,8.4125,8.4163,8.4266,8.4331,8.4675,8.4916,8.5094,8.5308,8.5471,8.5511,8.5511,8.5511,8.5511,8.5511,8.5511,8.5511,8.5511,8.5511,8.5511,8.5511,8.5511,8.5511,8.5511,8.5397,8.5053,8.4556,8.4365,8.383,8.3219,8.2951,8.2722,8.2569,8.2684,8.2378,8.234,8.2798,8.2875,8.2949,8.2971,8.3079,8.2736,8.1862,8.1751,8.1873,8.1892,8.1892,8.1892,8.1892,8.1892,8.1892,8.1776,8.1426,8.096,8.0339,7.9834,7.9678,7.6275,7.6384,7.7362,7.8267,7.8847,7.8122,7.7434,7.6891,7.6891,7.7144,7.7507,7.7905,7.8412,7.8919,7.9788,8.0513,8.1056,8.1092,8.1092,8.1163,8.1234,8.1481,8.1751,8.2084,8.256,8.295,8.3227,8.3172,8.259,8.2189,8.1829,8.1782,8.1707,8.242,8.2909,8.3359,8.3847,8.411,8.411,8.411,8.411,8.411,8.411,8.411,8.411,8.411,8.411,8.411,8.411,8.411,8.411,8.411,8.411,8.411,8.411,8.411,8.411,8.411,8.4163,8.4215,8.4266,8.4368,8.4481,8.4722,8.4916,8.5094,8.5266,8.5431,8.5511,8.5511,8.5511,8.5511,8.5511,8.5511,8.5511,8.5511,8.5511,8.5511,8.5511,8.5511,8.5511,8.5473,8.5397,8.5129,8.4632,8.4098,8.3524,8.3028,8.2913,8.2684,8.1958,8.1843,8.1232,8.127,8.1919,8.2414,8.2483,8.2573,8.2661,8.2238,8.1779,8.1833,8.1892,8.1892,8.1892,8.1892,8.1892,8.1892,8.1892,8.1815,8.1776,8.1349,8.1387,8.1038,8.0805,7.6094,7.5877,7.6637,7.7615,7.8376,7.747,7.671,7.6348,7.6275,7.6529,7.7,7.7362,7.7941,7.8738,7.9535,8.0332,8.0984,8.1092,8.1092,8.1163,8.1341,8.1623,8.1928,8.238,8.2904,8.3376,8.3657,8.3613,8.3269,8.2909,8.2533,8.2571,8.2984,8.3021,8.3322,8.3885,8.411,8.411,8.411,8.411,8.411,8.411,8.411,8.411,8.411,8.411,8.411,8.411,8.411,8.411,8.411,8.411,8.411,8.411,8.411,8.411,8.411,8.411,8.4163,8.4215,8.4317,8.4431,8.4627,8.4825,8.5089,8.5262,8.5308,8.5471,8.5511,8.5511,8.5511,8.5511,8.5511,8.5511,8.5511,8.5511,8.5511,8.5511,8.5511,8.5511,8.5511,8.5511,8.5435,8.5397,8.5015,8.5015,8.425,8.3754,8.3486,8.3028,8.2187,8.1461,8.1078,8.0733,8.1115,8.1681,8.2011,8.2124,8.2273,8.2172,8.1945,8.1912,8.1892,8.1892,8.1892,8.1892,8.1892,8.1892,8.1892,8.1892,8.1892,8.1815,8.1892,8.1892,8.1582,7.5985,7.5551,7.6058,7.7144,7.8195,7.6963,7.6311,7.6275,7.6275,7.6275,7.642,7.7036,7.7833,7.8738,7.939,8.0259,8.0875,8.1056,8.1092,8.1163,8.1375,8.1793,8.2231,8.2644,8.318,8.3583,8.3913,8.402,8.3922,8.3509,8.3397,8.381,8.366,8.3359,8.3885,8.411,8.411,8.411,8.411,8.411,8.411,8.411,8.411,8.411,8.411,8.411,8.411,8.411,8.411,8.411,8.411,8.411,8.411,8.411,8.411,8.411,8.411,8.411,8.4163,8.4229,8.4343,8.4492,8.4647,8.4916,8.5176,8.5346,8.5429,8.5471,8.5511,8.5511,8.5511,8.5511,8.5511,8.5511,8.5511,8.5511,8.5511,8.5511,8.5511,8.5511,8.5511,8.5511,8.5511,8.5473,8.5473,8.5511,8.5358,8.5015,8.4556,8.3945,8.3257,8.2377,8.1762,8.1379,8.0879,8.1129,8.1676,8.1803,8.1904,8.2057,8.2106,8.199,8.1892,8.1892,8.1892,8.1892,8.1892,8.1892,8.1892,8.1892,8.1892,8.1892,8.1892,8.1892,8.1892,7.6601,7.7,7.6529,7.6855,7.7507,7.671,7.6275,7.6275,7.6275,7.6275,7.6348,7.6492,7.7289,7.8702,7.881,7.9607,8.0802,8.102,8.1092,8.1092,8.1408,8.1922,8.2481,8.2893,8.3376,8.3767,8.402,8.4073,8.4073,8.3922,8.3847,8.4035,8.4035,8.3885,8.396,8.411,8.411,8.411,8.411,8.411,8.411,8.411,8.411,8.411,8.411,8.411,8.411,8.411,8.411,8.411,8.411,8.411,8.411,8.411,8.411,8.411,8.411,8.411,8.4163,8.428,8.4443,8.4551,8.4787,8.5051,8.5262,8.5388,8.5469,8.5471,8.5511,8.5511,8.5511,8.5511,8.5511,8.5511,8.5511,8.5511,8.5511,8.5511,8.5511,8.5511,8.5511,8.5511,8.5511,8.5511,8.5511,8.5511,8.5511,8.5206,8.5129,8.4671,8.4251,8.3371,8.2485,8.1632,8.1009,8.1016,8.1388,8.153,8.1639,8.185,8.1971,8.1951,8.1892,8.1892,8.1892,8.1892,8.1892,8.1892,8.1892,8.1892,8.1892,8.1892,8.1892,8.1892,8.1892]},{"header":{"parameterUnit":"m.s-1","parameterCategory":1,"la1":31.0,"la2":29.5877,"lo1":-88.7671,"lo2":-86.6584,"dy":0.0162,"dx":0.0185,"nx":115,"ny":88,"refTime":"2026-05-03T00:00:00:Z","depth":0,"parameterNumber":3,"parameterNumberName":"V-component_of_WINDS"},"data":[0.0,0.0,0.0,0.0,0.0,0.0,0.0,0.0,0.0,0.0,0.0,0.0,0.0,0.0,0.0,0.0,0.0,0.0,0.0,0.0,0.0,0.0,0.0,0.0,0.0,0.0,0.0,0.0,0.0,0.0,0.0,0.0,0.0,0.0,0.0,0.0,0.0,0.0,0.0,0.0,0.0,0.0,0.0,0.0,0.0,0.0,0.0,0.0,0.0,0.0,0.0,0.0,0.0,0.0,0.0,0.0,0.0,0.0,0.0,0.0,0.0,0.0,0.0,0.0,0.0,0.0,0.0,0.0,0.0,0.0,0.0,0.0,0.0,0.0,0.0,0.0,0.0,0.0,0.0,0.0,0.0,0.0,0.0,0.0,0.0,0.0,0.0,0.0,0.0,0.0,0.0,0.0,0.0,0.0,0.0,0.0,0.0,0.0,0.0,0.0,0.0,0.0,0.0,0.0,0.0,0.0,0.0,0.0,0.0,0.0,0.0,0.0,0.0,0.0,0.0,0.0,0.0,0.0,0.0,0.0,0.0,0.0,0.0,0.0,0.0,0.0,0.0,0.0,0.0,0.0,0.0,0.0,0.0,0.0,0.0,0.0,0.0,0.0,0.0,0.0,0.0,0.0,0.0,0.0,0.0,0.0,0.0,0.0,0.0,0.0,0.0,0.0,0.0,0.0,0.0,0.0,0.0,0.0,0.0,0.0,0.0,0.0,0.0,0.0,0.0,0.0,0.0,0.0,0.0,0.0,0.0,0.0,0.0,0.0,0.0,0.0,0.0,0.0,0.0,0.0,0.0,0.0,0.0,0.0,0.0,0.0,0.0,0.0,0.0,0.0,0.0,0.0,0.0,0.0,0.0,0.0,0.0,0.0,0.0,0.0,0.0,0.0,0.0,0.0,0.0,0.0,0.0,0.0,0.0,0.0,0.0,0.0,0.0,0.0,0.0,0.0,0.0,0.0,0.0,0.0,0.0,0.0,0.0,0.0,0.0,0.0,0.0,0.0,0.0,0.0,0.0,0.0,0.0,0.0,0.0,0.0,0.0,0.0,0.0,0.0,0.0,0.0,0.0,0.0,0.0,0.0,0.0,0.0,0.0,0.0,0.0,0.0,0.0,0.0,0.0,0.0,0.0,0.0,0.0,0.0,0.0,0.0,0.0,0.0,0.0,0.0,0.0,0.0,0.0,0.0,0.0,0.0,0.0,0.0,0.0,0.0,0.0,0.0,0.0,0.0,0.0,0.0,0.0,0.0,0.0,0.0,0.0,0.0,0.0,0.0,0.0,0.0,0.0,0.0,0.0,0.0,0.0,0.0,0.0,0.0,0.0,0.0,0.0,0.0,0.0,0.0,0.0,0.0,0.0,0.0,0.0,0.0,0.0,0.0,0.0,0.0,0.0,0.0,0.0,0.0,0.0,0.0,0.0,0.0,0.0,0.0,0.0,0.0,0.0,0.0,0.0,0.0,0.0,0.0,0.0,0.0,0.0,0.0,0.0,0.0,0.0,0.0,0.0,0.0,0.0,0.0,0.0,0.0,0.0,0.0,0.0,0.0,0.0,0.0,0.0,0.0,0.0,0.0,0.0,0.0,0.0,0.0,0.0,0.0,0.0,0.0,0.0,0.0,0.0,0.0,0.0,0.0,0.0,0.0,0.0,0.0,0.0,0.0,0.0,0.0,0.0,0.0,0.0,0.0,0.0,0.0,0.0,0.0,0.0,0.0,0.0,0.0,0.0,0.0,0.0,0.0,0.0,0.0,0.0,0.0,0.0,0.0,0.0,0.0,0.0,0.0,0.0,0.0,0.0,0.0,0.0,0.0,0.0,0.0,0.0,0.0,0.0,0.0,0.0,0.0,0.0,0.0,0.0,0.0,0.0,0.0,0.0,0.0,0.0,0.0,0.0,0.0,0.0,0.0,0.0,0.0,0.0,0.0,0.0,0.0,0.0,0.0,0.0,0.0,0.0,0.0,0.0,0.0,0.0,0.0,0.0,0.0,0.0,0.0,0.0,0.0,0.0,0.0,0.0,0.0,0.0,0.0,0.0,0.0,0.0,0.0,0.0,0.0,0.0,0.0,0.0,0.0,0.0,0.0,0.0,0.0,0.0,0.0,0.0,0.0,0.0,0.0,0.0,0.0,0.0,0.0,0.0,0.0,0.0,0.0,0.0,0.0,0.0,0.0,0.0,0.0,0.0,0.0,0.0,0.0,0.0,0.0,0.0,0.0,0.0,0.0,0.0,0.0,0.0,0.0,0.0,0.0,0.0,0.0,0.0,0.0,0.0,0.0,0.0,0.0,0.0,0.0,0.0,0.0,0.0,0.0,0.0,0.0,0.0,0.0,0.0,0.0,0.0,0.0,0.0,0.0,0.0,0.0,0.0,0.0,0.0,0.0,0.0,0.0,0.0,0.0,0.0,0.0,0.0,0.0,0.0,0.0,0.0,0.0,0.0,0.0,0.0,0.0,0.0,0.0,0.0,0.0,0.0,0.0,0.0,0.0,0.0,0.0,0.0,0.0,0.0,0.0,0.0,0.0,0.0,0.0,0.0,0.0,0.0,0.0,0.0,0.0,0.0,0.0,0.0,0.0,0.0,0.0,0.0,0.0,0.0,0.0,0.0,0.0,0.0,0.0,0.0,0.0,0.0,0.0,0.0,0.0,0.0,0.0,0.0,0.0,0.0,0.0,0.0,0.0,0.0,0.0,0.0,0.0,0.0,0.0,0.0,0.0,0.0,0.0,0.0,0.0,0.0,0.0,0.0,0.0,0.0,0.0,0.0,0.0,0.0,0.0,0.0,0.0,0.0,0.0,0.0,0.0,0.0,0.0,0.0,0.0,0.0,0.0,0.0,0.0,0.0,0.0,0.0,0.0,0.0,0.0,0.0,0.0,0.0,0.0,0.0,0.0,0.0,0.0,0.0,0.0,0.0,0.0,0.0,0.0,0.0,0.0,0.0,0.0,0.0,0.0,0.0,0.0,0.0,0.0,0.0,0.0,0.0,0.0,0.0,0.0,0.0,0.0,0.0,0.0,0.0,0.0,0.0,0.0,0.0,0.0,0.0,0.0,0.0,0.0,0.0,0.0,0.0,0.0,0.0,0.0,0.0,0.0,0.0,0.0,0.0,0.0,0.0,0.0,0.0,0.0,0.0,0.0,0.0,0.0,0.0,0.0,0.0,0.0,0.0,0.0,0.0,0.0,0.0,0.0,0.0,0.0,0.0,0.0,0.0,0.0,0.0,0.0,0.0,0.0,0.0,0.0,0.0,0.0,0.0,0.0,0.0,0.0,0.0,0.0,0.0,0.0,0.0,0.0,0.0,0.0,0.0,0.0,0.0,0.0,0.0,0.0,0.0,0.0,0.0,0.0,0.0,0.0,0.0,0.0,0.0,0.0,0.0,0.0,0.0,0.0,0.0,0.0,0.0,0.0,0.0,0.0,0.0,0.0,0.0,0.0,0.0,0.0,0.0,0.0,0.0,0.0,0.0,0.0,0.0,0.0,0.0,0.0,0.0,0.0,0.0,0.0,0.0,0.0,0.0,0.0,0.0,0.0,0.0,0.0,0.0,0.0,0.0,0.0,0.0,0.0,0.0,0.0,0.0,0.0,0.0,0.0,0.0,0.0,0.0,0.0,0.0,0.0,0.0,0.0,0.0,0.0,0.0,0.0,0.0,0.0,0.0,0.0,0.0,0.0,0.0,0.0,0.0,0.0,0.0,0.0,0.0,0.0,0.0,0.0,0.0,0.0,0.0,0.0,0.0,0.0,0.0,0.0,0.0,0.0,0.0,0.0,0.0,0.0,0.0,0.0,0.0,0.0,0.0,0.0,0.0,0.0,0.0,0.0,0.0,0.0,0.0,0.0,0.0,0.0,0.0,0.0,0.0,0.0,0.0,0.0,0.0,0.0,0.0,0.0,0.0,0.0,0.0,0.0,0.0,0.0,0.0,0.0,0.0,0.0,0.0,0.0,0.0,0.0,0.0,0.0,0.0,0.0,0.0,0.0,0.0,0.0,0.0,0.0,0.0,0.0,0.0,0.0,0.0,0.0,0.0,0.0,0.0,0.0,0.0,0.0,0.0,0.0,0.0,0.0,0.0,0.0,0.0,0.0,0.0,0.0,0.0,0.0,0.0,0.0,0.0,0.0,0.0,0.0,0.0,0.0,0.0,0.0,0.0,0.0,0.0,0.0,0.0,0.0,0.0,0.0,0.0,0.0,0.0,0.0,0.0,0.0,0.0,0.0,0.0,0.0,0.0,0.0,0.0,0.0,0.1926,0.0,0.0,0.0,0.0,0.0,0.0,0.0,0.0,0.0,0.0,0.0,0.0,0.0,0.0,0.0,0.0,0.0,0.0,0.0,0.0,0.0,0.0,0.0,0.0,0.0,0.0,0.0,0.0,0.0,0.0,0.0,0.0,0.0,0.0,0.0,0.0,0.0,0.0,0.0,0.0,0.0,0.0,0.0,0.0,0.0,0.0,0.0,0.0,0.0,0.0,0.0,0.0,0.0,0.0,0.0,0.0,0.0,0.0,0.0,0.0,0.0,0.0,0.0,0.0,0.0,0.0,0.0,0.0,0.0,0.0,0.0,0.0,0.0,0.0,0.0,0.0,0.0,0.0,0.0,0.0,0.0,0.0,0.0,0.0,0.0,0.0,0.0,0.0,0.0,0.0,0.0,0.0,0.0,0.0,0.0,0.0,0.0,0.0,0.0,0.0,0.0,0.0,0.0,0.0,0.0,0.0,0.0,0.0,0.0,0.0,0.4622,0.409,0.3761,0.3292,0.2523,0.0,0.0,0.0,0.0,0.0,0.0,0.0,0.0,0.0,0.0,0.0,0.0,0.0,0.0,0.0,0.0,0.0,0.0,0.0,0.0,0.0,0.0,0.0,0.0,0.0,0.0,0.0,0.0,0.0,0.0,0.0,0.0,0.0,0.0,0.0,0.0,0.0,0.0,0.0,0.0,0.0,0.0,0.0,0.0,0.0,0.0,0.0,0.0,0.0,0.0,0.0,0.0,0.0,0.0,0.0,0.0,0.0,0.0,0.0,0.0,0.0,0.0,0.0,0.0,0.0,0.0,0.0,0.0,0.0,0.0,0.0,0.0,0.0,0.0,0.0,0.0,0.0,0.0,0.0,0.0,0.0,0.0,0.0,0.0,0.0,0.0,0.0,0.0,0.0,0.0,0.0,0.0,0.0,0.0,0.0,0.0,0.0,0.0,0.0,0.0,0.0,0.0,0.0,0.0,0.0,0.0,0.0,0.0,0.0,0.0,0.0,0.0,0.4266,0.3825,0.3055,0.0,0.0,0.0,0.0,0.0,0.0,0.0,0.0,0.0,0.0,0.0,0.0,0.0,0.0,0.0,0.0,0.0,0.0,0.0,0.0,0.0,0.0,0.0,0.0,0.0,0.0,0.0,0.0,0.0,0.0,0.0,0.0,0.0,0.0,0.0,0.0,0.0,0.0,0.0,0.0,0.0,0.0,0.0,0.0,0.0,0.0,0.0,0.0,0.0,0.0,0.0,0.0,0.0,0.0,0.0,0.0,0.0,0.0,0.0,0.0,0.0,0.0,0.0,0.0,0.0,0.0,0.0,0.0,0.0,0.0,0.0,0.0,0.0,0.0,0.0,0.0,0.0,0.0,0.0,0.0,0.0,0.0,0.0,0.0,0.0,0.0,0.0,0.0,0.0,0.0,0.0,0.0,0.0,0.0,0.0,0.0,0.0,0.0,0.0,0.0,0.0,0.0,0.0,0.0,0.0,0.0,0.0,0.0,0.0,0.0,0.5149,0.4936,0.4798,0.0,0.3594,0.0,0.0,0.0,0.0,0.0,0.0,0.0,0.0,0.0,0.0,0.0,0.0,0.0,0.0,0.0,0.0,0.0,0.0,0.0,0.0,0.0,0.0,0.0,0.0,0.0,0.0,0.0,0.0,0.0,0.0,0.0,0.0,0.0,0.0,0.0,0.0,0.0,0.0,0.0,0.0,0.0,0.0,0.0,0.0,0.0,0.0,0.0,0.0,0.0,0.0,0.0,0.0,0.0,0.0,0.0,0.0,0.0,0.0,0.0,0.0,0.0,0.0,0.0,0.0,0.0,0.0,0.0,0.0,0.0,0.0,0.0,0.0,0.0,0.0,0.0,0.0,0.0,0.0,0.0,0.0,0.0,0.0,0.0,0.0,0.0,0.0,0.0,0.0,0.0,0.0,0.0,0.0,0.0,0.0,0.0,0.0,0.0,0.0,0.0,0.0,0.0,0.0,0.0,0.0,0.0,0.0,0.0,0.0,0.0,0.0,0.5554,0.5493,0.5267,0.4925,0.0,0.0,0.0,0.0,0.0,0.0,0.0,0.0,0.0,0.0,0.0,0.0,0.0,0.0,0.0,0.0,0.0,0.0,0.0,0.0,0.0,0.0,0.0,0.0,0.0,0.0,0.0,0.0,0.0,0.0,0.0,0.0,0.0,0.0,0.0,0.0,0.0,0.0,0.0,0.0,0.0,0.0,0.0,0.0,0.0,0.0,0.0,0.0,0.0,0.0,0.0,0.0,0.0,0.0,0.0,0.0,0.0,0.0,0.0,0.0,0.0,0.0,0.0,0.0,0.0,0.0,0.0,0.0,0.0,0.0,0.0,0.0,0.0,0.0,0.0,0.0,0.0,0.0,0.0,0.0,0.0,0.0,0.0,0.0,0.0,0.0,0.0,0.0,0.0,0.0,0.0,0.0,0.0,0.0,0.0,0.0,0.0,0.0,0.0,0.0,0.0,0.0,0.0,0.0,0.0,0.0,0.0,0.0,0.0,0.0,0.5884,0.0,0.5922,0.5719,0.5384,0.51,0.0,0.0,0.0,0.0,0.0,0.0,0.0,0.0,0.0,0.0,0.0,0.0,0.0,0.0,0.0,0.0,0.0,0.0,0.0,0.0,0.0,0.0,0.0,0.0,0.0,0.0,0.0,0.0,0.0,0.0,0.0,0.0,0.0,0.0,0.0,0.0,0.0,0.0,0.0,0.0,0.0,0.0,0.0,0.0,0.0,0.0,0.0,0.0,0.0,0.0,0.0,0.0,0.0,0.0,0.0,0.0,0.0,0.0,0.0,0.0,0.0,0.0,0.0,0.0,0.0,0.0,0.0,0.0,0.0,0.0,0.0,0.0,0.0,0.0,0.0,0.0,0.0,0.0,0.0,0.0,0.0,0.0,0.0,0.0,0.0,0.0,0.0,0.0,0.0,0.0,0.0,0.0,0.0,0.0,0.0,0.0,0.0,0.0,0.0,0.0,0.0,0.0,0.0,0.0,0.0,0.0,0.0,0.0,0.0,0.6263,0.6365,0.6365,0.606,0.561,0.0,0.0,0.0,0.0,0.0,0.0,0.0,0.0,0.0,0.0,0.0,0.0,0.0,0.0,0.0,0.0,0.0,0.0,0.0,0.0,0.0,0.0,0.0,0.0,0.0,0.0,0.0,0.0,0.0,0.0,0.0,0.0,0.0,0.0,0.0,0.0,0.0,0.0,0.0,0.0,0.0,0.0,0.0,0.0,0.0,0.0,0.0,0.0,0.0,0.0,0.0,0.0,0.0,0.0,0.0,0.0,0.0,0.0,0.0,0.0,0.0,0.0,0.0,0.0,0.0,0.0,0.0,0.0,0.0,0.0,0.0,0.0,0.0,0.0,0.0,0.0,0.0,0.0,0.0,0.0,0.0,0.0,0.0,0.0,0.0,0.0,0.0,0.0,0.0,0.0,0.0,0.0,0.0,0.0,0.0,0.0,0.0,0.0,0.0,0.0,0.0,0.0,0.0,0.0,0.0,0.0,0.0,0.0,0.0,0.6036,0.6209,0.6328,0.6224,0.594,0.5667,0.0,0.0,0.0,0.0,0.0,0.0,0.0,0.0,0.0,0.0,0.0,0.0,0.0,0.0,0.0,0.0,0.0,0.0,0.0,0.0,0.0,0.0,0.0,0.0,0.0,0.0,0.0,0.0,0.0,0.0,0.0,0.0,0.0,0.0,0.0,0.0,0.0,0.0,0.0,0.0,0.0,0.0,0.0,0.0,0.0,0.0,0.0,0.0,0.0,0.0,0.0,0.0,0.0,0.0,0.0,0.0,0.0,0.0,0.0,0.0,0.0,0.0,0.0,0.0,0.0,0.0,0.0,0.0,0.0,0.0,0.0,0.0,0.0,0.0,0.0,0.0,0.0,0.0,0.0,0.0,0.0,0.0,0.0,0.0,0.0,0.0,0.0,0.0,0.0,0.0,0.0,0.0,0.0,0.0,0.0,0.0,0.0,0.0,0.0,0.0,0.0,0.0,0.0,0.0,0.0,0.0,0.0,0.0,0.0,0.6341,0.0,0.6577,0.0,0.6142,0.5868,0.0,0.0,0.0,0.0,0.0,0.0,0.0,0.0,0.0,0.0,0.0,0.0,0.0,0.0,0.0,0.0,0.0,0.0,0.0,0.0,0.0,0.0,0.0,0.0,0.0,0.0,0.0,0.0,0.0,0.0,0.0,0.0,0.0,0.0,0.0,0.0,0.0,0.0,0.0,0.0,0.0,0.0,0.0,0.0,0.0,0.0,0.0,0.0,0.0,0.0,0.0,0.0,0.0,0.0,0.0,0.0,0.0,0.0,0.0,0.0,0.0,0.0,0.0,0.0,0.0,0.0,0.0,0.0,0.0,0.0,0.0,0.0,0.0,0.0,0.0,0.0,0.0,0.0,0.0,0.0,0.0,0.0,0.0,0.0,0.0,0.0,0.0,0.0,0.0,0.0,0.0,0.0,0.0,0.0,0.0,0.0,0.0,0.0,0.0,0.0,0.0,0.0,0.0,0.0,0.0,0.0,0.0,0.0,0.0,0.7212,0.7391,0.7309,0.704,0.6611,0.6189,0.0,0.0,0.0,0.0,0.0,0.0,0.0,0.0,0.0,0.0,0.0,0.0,0.0,0.0,0.0,0.0,0.0,0.0,0.0,0.0,0.0,0.0,0.0,0.0,0.0,0.0,0.0,0.0,0.0,0.0,0.0,0.0,0.0,0.0,0.0,0.0,0.0,0.0,0.0,0.0,0.0,0.0,0.0,0.0,0.0,0.0,0.0,0.0,0.0,0.0,0.0,0.0,0.0,0.0,0.0,0.0,0.0,0.0,0.0,0.0,0.0,0.0,0.0,0.0,0.0,0.0,0.0,0.0,0.0,0.0,0.0,0.0,0.0,0.0,0.0,0.0,0.0,0.0,0.0,0.0,0.0,0.0,0.0,0.0,0.0,0.0,0.0,0.0,0.0,0.0,0.0,0.0,0.0,0.0,0.0,0.0,0.0,0.0,0.0,0.0,0.0,0.0,0.0,0.0,0.0,0.0,0.0,0.0,0.0,0.7594,0.765,0.7504,0.7147,0.6798,0.6432,0.0,0.0,0.0,0.0,0.0,0.0,0.0,0.0,0.0,0.0,0.0,0.0,0.0,0.0,0.0,0.0,0.0,0.0,0.0,0.0,0.0,0.0,0.0,0.0,0.0,0.0,0.0,0.0,0.0,0.0,0.0,0.0,0.0,0.0,0.0,0.0,0.0,0.0,0.0,0.0,0.0,0.0,0.0,0.0,0.0,0.0,0.0,0.0,0.0,0.0,0.0,0.0,0.0,0.0,0.0,0.0,0.0,0.0,0.0,0.0,0.0,0.0,0.0,0.0,0.0,0.0,0.0,0.0,0.0,0.0,0.0,0.0,0.0,0.0,0.0,0.0,0.0,0.0,0.0,0.0,0.0,0.0,0.0,0.0,0.0,0.0,0.0,0.0,0.0,0.0,0.0,0.0,0.0,0.0,0.0,0.0,0.0,0.0,0.0,0.0,0.0,0.0,0.0,0.0,0.0,0.0,0.0,0.0,0.0,0.8349,0.8292,0.8057,0.7634,0.7147,0.6725,0.6359,0.0,0.0,0.0,0.0,0.0,0.0,0.0,0.0,0.0,0.0,0.0,0.0,0.0,0.0,0.0,0.0,0.0,0.0,0.0,0.0,0.0,0.0,0.0,0.0,0.0,0.0,0.0,0.0,0.0,0.0,0.0,0.0,0.0,0.0,0.0,0.0,0.0,0.0,0.0,0.0,0.0,0.0,0.0,0.0,0.0,0.0,0.0,0.0,0.0,0.0,0.0,0.0,0.0,0.0,0.0,0.0,0.0,0.0,0.0,0.0,0.0,0.0,0.0,0.0,0.0,0.0,0.0,0.0,0.0,0.0,0.0,0.0,0.0,0.0,0.0,0.0,0.0,0.0,0.0,0.0,0.0,0.0,0.0,0.0,0.0,0.0,0.0,0.0,0.0,0.0,0.0,0.0,0.0,0.0,0.0,0.0,0.0,0.0,0.0,0.0,0.0,0.0,0.0,0.0,0.0,0.0,0.0,0.0,0.9485,0.9283,0.8942,0.8365,0.7659,0.7123,0.0,0.0,0.0,0.0,0.0,0.0,0.0,0.0,0.0,0.0,0.0,0.0,0.0,0.0,0.0,0.0,0.0,0.0,0.0,0.0,0.0,0.0,0.0,0.0,0.0,0.0,0.0,0.0,0.0,0.0,0.0,0.0,0.0,0.0,0.0,0.0,0.0,0.0,0.0,0.0,0.0,0.0,0.0,0.0,0.0,0.0,0.0,0.0,0.0,0.0,0.0,0.0,0.0,0.0,0.0,0.0,0.0,0.0,0.0,0.0,0.0,0.0,0.0,0.0,0.0,0.0,0.0,0.0,0.0,0.0,0.0,0.0,0.0,0.0,0.0,0.0,0.0,0.0,0.0,0.0,0.0,0.0,0.0,0.0,0.0,0.0,0.0,0.0,0.0,0.0,0.0,0.0,0.0,0.0,0.0,0.0,0.0,0.0,0.0,0.0,0.0,0.0,0.0,0.0,0.0,0.0,0.0,0.0,0.0,0.9925,1.042,1.016,0.9112,0.8381,0.7845,0.0,0.0,0.0,0.0,0.0,0.0,0.0,0.0,0.0,0.0,0.0,0.0,0.0,0.0,0.0,0.0,0.0,0.0,0.0,0.0,0.0,0.0,0.0,0.0,0.0,0.0,0.0,0.0,0.0,0.0,0.0,0.0,0.0,0.0,0.0,0.0,0.0,0.0,0.0,0.0,0.0,0.0,0.0,0.0,0.0,0.0,0.0,0.0,0.0,0.0,0.0,0.0,0.0,0.0,0.0,0.0,0.0,0.0,0.0,0.0,0.0,0.0,0.0,0.0,0.0,0.0,0.0,0.0,0.0,0.0,0.0,0.0,0.0,0.0,0.0,0.0,0.0,0.0,0.0,0.0,0.0,0.0,0.0,0.0,0.0,0.0,0.0,0.0,0.0,0.0,0.0,0.0,0.0,0.0,0.0,0.0,0.0,0.0,0.0,0.0,0.0,0.0,0.0,0.0,0.0,0.0,0.0,0.0,0.9332,1.0152,1.0858,1.0802,0.9941,0.9153,0.8495,0.0,0.0,0.0,0.0,0.0,0.0,0.0,0.0,0.0,0.0,0.0,0.0,0.0,0.0,0.0,0.0,0.0,0.0,0.0,0.0,0.0,0.0,0.0,0.0,0.0,0.0,0.0,0.0,0.0,0.0,0.0,0.0,0.0,0.0,0.0,0.0,0.0,0.0,0.0,0.0,0.0,0.0,0.0,0.0,0.0,0.0,0.0,0.0,0.0,0.0,0.0,0.0,0.0,0.0,0.0,0.0,0.0,0.0,0.0,0.0,0.0,0.0,0.0,0.0,0.0,0.0,0.0,0.0,0.0,0.0,0.0,0.0,0.0,0.0,0.0,0.0,0.0,0.0,0.0,0.0,0.0,0.0,0.0,0.0,0.0,0.0,0.0,0.0,0.0,0.0,0.0,0.0,0.0,0.0,0.0,0.0,0.0,0.0,0.0,0.0,0.0,0.0,0.0,0.0,0.0,0.0,0.0,0.0,0.9535,1.0257,1.0988,1.1183,1.0802,0.99,0.908,0.0,0.0,0.0,0.0,0.0,0.0,0.0,0.0,0.0,0.0,0.0,0.0,0.0,0.0,0.0,0.0,0.0,0.0,0.0,0.0,0.0,0.0,0.0,0.0,0.0,0.0,0.0,0.0,0.0,0.0,0.0,0.0,0.0,0.0,0.0,0.0,0.0,0.0,0.0,0.0,0.0,0.0,0.0,0.0,0.0,0.0,0.0,0.0,0.0,0.0,0.0,0.0,0.0,0.0,0.0,0.0,0.0,0.0,0.0,0.0,0.0,0.0,0.0,0.0,0.0,0.0,0.0,0.0,0.0,0.0,0.0,0.0,0.0,0.0,0.0,0.0,0.0,0.0,0.0,0.0,0.0,0.0,0.0,0.0,0.0,0.0,0.0,0.0,0.0,0.0,0.0,0.0,0.0,0.0,0.0,0.0,0.0,0.0,0.0,0.0,0.0,0.0,0.0,0.0,0.0,0.0,0.0,0.0,1.0136,1.098,1.1833,1.2044,1.1557,1.0396,0.951,0.0,0.0,0.0,0.0,0.0,0.0,0.0,0.0,0.0,0.0,0.0,0.0,0.0,0.0,0.0,0.0,0.0,0.0,0.0,0.0,0.0,0.0,0.0,0.0,0.0,0.0,0.0,0.0,0.0,0.0,0.0,0.0,0.0,0.0,0.0,0.0,0.0,0.0,0.0,0.0,0.0,0.0,0.0,0.0,0.0,0.0,0.0,0.0,0.1306,0.0,0.0,0.0,0.0,0.0,0.0,0.0,0.0,0.0,0.0,0.0,0.0,0.0,0.0,0.0,0.0,0.0,0.0,0.0,0.0,0.0,0.0,0.0,0.0,0.0,0.0,0.0,0.0,0.0,0.0,0.0,0.0,0.0,0.0,0.0,0.0,0.0,0.0,0.0,0.0,0.0,0.0,0.0,0.0,0.0,0.0,0.0,0.0,0.0,0.0,0.0,0.0,0.0,0.0,0.0,0.0,0.0,0.0,0.0,1.0615,1.1346,1.206,1.2231,1.1768,1.0956,1.0144,0.0,0.0,0.0,0.0,0.0,0.0,0.0,0.0,0.0,0.0,0.0,0.0,0.0,0.0,0.0,0.0,0.0,0.0,0.0,0.0,0.0,0.0,0.0,0.0,0.0,0.0,0.0,0.0,0.0,0.0,0.0,0.0,0.0,0.0,0.0,0.0,0.0,0.0,0.0,0.0,0.0,0.0,0.0,0.0,0.0,0.0,0.0,0.0,0.0,0.0,0.0,0.0,0.0,0.0,0.0,0.0,0.0,0.0,0.0,0.0,0.0,0.0,0.0,0.0,0.0,0.0,0.0,0.0,0.0,0.0,0.0,0.0,0.0,0.0,0.0,0.0,0.0,0.0,0.0,0.0,0.0,0.0,0.0,0.0,0.0,0.0,0.0,0.0,0.0,0.0,0.0,0.0,0.0,0.0,0.0,0.0,0.0,0.0,0.0,0.0,0.0,0.0,0.0,0.0,0.0,0.0,0.0,1.0152,1.1037,1.1573,1.2109,1.2207,1.1825,1.1459,1.0745,0.0,0.0,0.0,0.0,0.0,0.0,0.0,0.0,0.0,0.0,0.0,0.0,0.0,0.0,0.0,0.0,0.0,0.0,0.0,0.0,0.0,0.0,0.0,0.0,0.0,0.0,0.0,0.0,0.0,0.0,0.0,0.0,0.0,0.0,0.0,0.0,0.0,0.0,0.0,0.1059,0.116,0.0,0.0,0.0,0.0,0.0,0.0,0.0,0.0,0.1155,0.0,0.0,0.0,0.0,0.0,0.0,0.0,0.0,0.0,0.0,0.0,0.0,0.0,0.0,0.0,0.0,0.0,0.0,0.0,0.0,0.0,0.0,0.0,0.0,0.0,0.0,0.0,0.0,0.0,0.0,0.0,0.0,0.0,0.0,0.0,0.0,0.0,0.0,0.0,0.0,0.0,0.0,0.0,0.0,0.0,0.0,0.0,0.0,0.0,0.0,0.0,0.0,0.0,0.0,0.0,0.0,0.9478,1.0574,1.1395,1.1931,1.2475,1.2507,1.2004,1.1638,1.0883,0.9673,0.0,0.0,0.0,0.0,0.0,0.0,0.0,0.0,0.0,0.0,0.0,0.0,0.0,0.0,0.0,0.0,0.0,0.0,0.0,0.0,0.0,0.0,0.0,0.0,0.0,0.0,0.0,0.0,0.0,0.0,0.0,0.0,0.0,0.0,0.0,0.0,0.0,0.0,0.0,0.1265,0.1241,0.0,0.0,0.0,0.0,0.0,0.0,0.0,0.0,0.1179,0.0,0.0,0.0,0.0,0.0,0.0,0.0,0.0,0.0,0.0,0.0,0.0,0.0,0.0,0.0,0.0,0.0,0.0,0.0,0.0,0.0,0.0,0.0,0.0,0.0,0.0,0.0,0.0,0.0,0.0,0.0,0.0,0.0,0.0,0.0,0.0,0.0,0.0,0.0,0.0,0.0,0.0,0.0,0.0,0.0,0.0,0.0,0.0,0.0,0.0,0.0,0.0,0.0,0.0,0.0,0.9746,1.0915,1.1727,1.2166,1.2605,1.254,1.1914,1.1459,1.0639,0.0,0.0,0.0,0.0,0.0,0.0,0.0,0.0,0.0,0.0,0.0,0.0,0.0,0.0,0.0,0.0,0.0,0.0,0.0,0.0,0.0,0.0,0.0,0.0,0.0,0.0,0.0,0.0,0.0,0.0,0.0,0.0,0.0,0.0,0.0,0.0,0.0,0.0,0.0,0.0,0.1336,0.1393,0.1306,0.0,0.0,0.0,0.0,0.0,0.0,0.1231,0.1191,0.0,0.0,0.0,0.0,0.0,0.0,0.0,0.0,0.0,0.0,0.0,0.0,0.0,0.0,0.0,0.0,0.0,0.0,0.0,0.0,0.0,0.0,0.0,0.0,0.0,0.0,0.0,0.0,0.0,0.0,0.0,0.0,0.0,0.0,0.0,0.0,0.0,0.0,0.0,0.0,0.0,0.0,0.0,0.0,0.0,0.0,0.0,0.0,0.0,0.0,0.0,0.0,0.0,0.0,0.0,0.9933,1.1151,1.1947,1.2304,1.2653,1.2499,1.1801,1.1248,1.0379,0.0,0.0,0.0,0.0,0.0,0.0,0.0,0.0,0.0,0.0,0.0,0.0,0.0,0.0,0.0,0.0,0.0,0.0,0.0,0.0,0.0,0.0,0.0,0.0,0.0,0.0,0.0,0.0,0.0,0.0,0.0,0.0,0.0,0.0,0.0,0.0,0.0,0.0,0.0,0.0,0.0,0.1453,0.1453,0.1453,0.0,0.0,0.0,0.0,0.1298,0.1277,0.0,0.0,0.0,0.0,0.0,0.0,0.0,0.0,0.0,0.0,0.0,0.0,0.0,0.0,0.0,0.0,0.0,0.0,0.0,0.0,0.0,0.0,0.0,0.0,0.0,0.0,0.0,0.0,0.0,0.0,0.0,0.0,0.0,0.0,0.0,0.0,0.0,0.0,0.0,0.0,0.0,0.0,0.0,0.0,0.0,0.0,0.0,0.0,0.0,0.0,0.0,0.0,0.0,0.0,0.0,0.0,1.0111,1.1216,1.1947,1.2304,1.2653,1.2499,1.1792,1.1248,1.0379,0.0,0.0,0.0,0.0,0.0,0.0,0.0,0.0,0.0,0.0,0.0,0.0,0.0,0.0,0.0,0.0,0.0,0.0,0.0,0.0,0.0,0.0,0.0,0.0,0.0,0.0,0.0,0.0,0.0,0.0,0.0,0.0,0.0,0.0,0.0,0.0,0.0,0.0,0.0,0.0,0.0,0.1516,0.1516,0.1515,0.1504,0.0,0.0,0.0,0.1419,0.1434,0.0,0.0,0.0,0.0,0.0,0.0,0.0,0.0,0.0,0.0,0.0,0.0,0.0,0.0,0.0,0.0,0.0,0.0,0.0,0.0,0.0,0.0,0.0,0.0,0.0,0.0,0.0,0.0,0.0,0.0,0.0,0.0,0.0,0.0,0.0,0.0,0.0,0.0,0.0,0.0,0.0,0.0,0.0,0.0,0.0,0.0,0.0,0.0,0.0,0.0,0.0,0.0,0.0,0.0,0.0,0.8723,1.0136,1.1224,1.1947,1.2304,1.2653,1.2499,1.1792,1.1256,1.0331,0.0,0.0,0.0,0.0,0.0,0.0,0.0,0.0,0.0,0.0,0.0,0.0,0.0,0.0,0.0,0.0,0.0,0.0,0.0,0.0,0.0,0.0,0.0,0.0,0.0,0.0,0.0,0.0,0.0,0.0,0.0,0.0,0.0,0.0,0.0,0.0,0.0,0.0,0.0,0.0,0.0,0.0,0.1603,0.1632,0.0,0.0,0.0,0.1598,0.1569,0.0,0.0,0.0,0.0,0.0,0.0,0.0,0.0,0.0,0.0,0.0,0.0,0.0,0.0,0.0,0.0,0.0,0.0,0.0,0.0,0.0,0.0,0.0,0.0,0.0,0.0,0.0,0.0,0.0,0.0,0.0,0.0,0.0,0.0,0.0,0.0,0.0,0.0,0.0,0.0,0.0,0.0,0.0,0.0,0.0,0.0,0.0,0.0,0.0,0.0,0.0,0.0,0.0,0.0,0.0,0.0,0.0,1.0144,1.1232,1.1947,1.2304,1.2653,1.2515,1.1857,1.1313,0.0,0.0,0.0,0.0,0.0,0.0,0.0,0.0,0.0,0.0,0.0,0.0,0.0,0.0,0.0,0.0,0.0,0.0,0.0,0.0,0.0,0.0,0.0,0.0,0.0,0.0,0.0,0.2213,0.0,0.0,0.0,0.0,0.0,0.0,0.0,0.0,0.0,0.0,0.0,0.0,0.0,0.0,0.1989,0.1894,0.1952,0.2083,0.0,0.0,0.1834,0.1796,0.1796,0.165,0.0,0.0,0.0,0.0,0.0,0.0,0.0,0.0,0.0,0.0,0.0,0.0,0.0,0.0,0.0,0.0,0.0,0.0,0.0,0.0,0.0,0.0,0.0,0.0,0.0,0.0,0.0,0.0,0.0,0.0,0.0,0.0,0.0,0.0,0.0,0.0,0.0,0.0,0.0,0.0,0.0,0.0,0.0,0.0,0.0,0.0,0.0,0.0,0.0,0.0,0.0,0.0,0.0,0.0,0.0,1.0144,1.1224,1.1947,1.2304,1.2653,1.2572,1.2028,1.1492,1.0615,0.0,0.0,0.0,0.0,0.0,0.0,0.0,0.0,0.0,0.0,0.0,0.0,0.0,0.0,0.0,0.0,0.0,0.0,0.0,0.0,0.0,0.0,0.0,0.0,0.0,0.0,0.0,0.0,0.0,0.0,0.0,0.0,0.0,0.0,0.0,0.0,0.0,0.0,0.0,0.0,0.0,0.257,0.2611,0.2692,0.2733,0.0,0.0,0.2264,0.2191,0.1989,0.1726,0.1551,0.0,0.0,0.0,0.0,0.0,0.0,0.0,0.0,0.0,0.0,0.0,0.0,0.0,0.0,0.0,0.0,0.0,0.0,0.0,0.0,0.0,0.0,0.0,0.0,0.0,0.0,0.0,0.0,0.0,0.0,0.0,0.0,0.0,0.0,0.0,0.0,0.0,0.0,0.0,0.0,0.0,0.0,0.0,0.0,0.0,0.0,0.0,0.0,0.0,0.0,0.0,0.0,0.0,0.8723,1.0144,1.1232,1.1947,1.2304,1.2653,1.2637,1.2215,1.1784,1.0972,0.0,0.0,0.0,0.0,0.0,0.0,0.0,0.0,0.0,0.0,0.0,0.0,0.0,0.0,0.0,0.0,0.0,0.0,0.0,0.0,0.0,0.0,0.0,0.0,0.0,0.0,0.0,0.0,0.2499,0.2435,0.2196,0.0,0.0,0.0,0.0,0.0,0.0,0.0,0.0,0.0,0.0,0.3319,0.3377,0.3538,0.0,0.0,0.3017,0.2654,0.2453,0.2069,0.1774,0.1633,0.1478,0.0,0.0,0.0,0.0,0.0,0.0,0.0,0.0,0.0,0.0,0.0,0.0,0.0,0.0,0.0,0.0,0.0,0.0,0.0,0.0,0.0,0.0,0.0,0.0,0.0,0.0,0.0,0.0,0.0,0.0,0.0,0.0,0.0,0.0,0.0,0.0,0.0,0.0,0.0,0.0,0.0,0.0,0.0,0.0,0.0,0.0,0.0,0.0,0.0,0.0,0.0,0.0,0.8723,1.0144,1.1224,1.1947,1.2304,1.2653,1.267,1.232,1.2012,1.1256,0.0,0.0,0.0,0.0,0.0,0.0,0.0,0.0,0.0,0.0,0.0,0.0,0.0,0.0,0.0,0.0,0.0,0.0,0.0,0.0,0.0,0.0,0.0,0.0,0.0,0.0,0.0,0.0,0.3212,0.3124,0.2897,0.0,0.0,0.0,0.0,0.0,0.0,0.0,0.0,0.0,0.0,0.4014,0.41,0.43,0.4428,0.4008,0.366,0.3264,0.2788,0.2358,0.1924,0.1998,0.0,0.0,0.0,0.0,0.0,0.0,0.0,0.0,0.0,0.0,0.0,0.0,0.0,0.0,0.0,0.0,0.0,0.0,0.0,0.0,0.0,0.0,0.0,0.0,0.0,0.0,0.0,0.0,0.0,0.0,0.0,0.0,0.0,0.0,0.0,0.0,0.0,0.0,0.0,0.0,0.0,0.0,0.0,0.0,0.0,0.0,0.0,0.0,0.0,0.0,0.0,0.0,0.0,0.0,1.0152,1.1232,1.1947,1.2304,1.2653,1.267,1.232,1.2117,1.1435,1.0176,0.0,0.0,0.0,0.0,0.0,0.0,0.0,0.0,0.0,0.0,0.0,0.0,0.0,0.0,0.0,0.0,0.0,0.0,0.0,0.0,0.0,0.0,0.0,0.0,0.0,0.0,0.4091,0.4171,0.4158,0.0,0.0,0.0,0.0,0.0,0.0,0.0,0.0,0.0,0.0,0.4352,0.4875,0.4906,0.5059,0.5029,0.4769,0.4383,0.3939,0.3403,0.2856,0.2406,0.0,0.0,0.0,0.0,0.0,0.0,0.0,0.0,0.0,0.0,0.0,0.0,0.0,0.0,0.0,0.0,0.0,0.0,0.0,0.0,0.0,0.0,0.0,0.0,0.0,0.0,0.0,0.0,0.0,0.0,0.0,0.0,0.0,0.0,0.0,0.0,0.0,0.0,0.0,0.0,0.9429,0.9194,0.0,0.0,0.0,0.0,0.0,0.0,0.0,0.0,0.0,0.0,0.0,0.0,0.8844,1.0144,1.1224,1.1947,1.2304,1.2653,1.267,1.232,1.2125,1.1273,0.9673,0.0,0.0,0.0,0.0,0.0,0.0,0.0,0.0,0.0,0.0,0.0,0.0,0.0,0.0,0.0,0.0,0.0,0.0,0.0,0.0,0.0,0.0,0.0,0.0,0.0,0.5203,0.0,0.0,0.0,0.0,0.0,0.0,0.0,0.0,0.0,0.0,0.0,0.4016,0.464,0.5114,0.5647,0.5816,0.6039,0.603,0.0,0.0,0.0,0.0,0.0,0.0,0.0,0.0,0.0,0.0,0.0,0.0,0.0,0.0,0.1839,0.1385,0.1374,0.1376,0.1324,0.0,0.0,0.0,0.0,0.0,0.0,0.0,0.0,0.0,0.0,0.0,0.0,0.0,0.0,0.0,0.0,0.8518,0.0,0.0,0.0,0.0,0.0,0.0,0.0,0.0,1.0071,1.0355,1.0517,1.029,1.0241,0.0,1.0054,0.9429,0.0,0.0,0.0,0.0,0.0,0.0,0.0,0.0,0.9129,1.0249,1.1313,1.2004,1.2304,1.2653,1.2694,1.2402,1.1971,1.1118,0.977,0.8982,0.8219,0.0,0.0,0.0,0.0,0.0,0.0,0.0,0.0,0.0,0.0,0.0,0.0,0.0,0.0,0.0,0.0,0.0,0.0,0.0,0.0,0.0,0.0,0.0,0.603,0.0,0.0,0.0,0.0,0.0,0.0,0.0,0.0,0.0,0.3656,0.4128,0.468,0.5207,0.5722,0.6084,0.6292,0.0,0.0,0.0,0.0,0.0,0.0,0.0,0.3265,0.3052,0.2937,0.3087,0.379,0.3889,0.3632,0.3327,0.0,0.0,0.1696,0.1568,0.1577,0.159,0.1566,0.1545,0.1545,0.1577,0.1614,0.0,0.0,0.0,0.0,0.0,0.0,0.0,0.0,1.0953,1.0554,0.0,0.9618,0.0,0.0,0.0,0.0,0.0,0.0,0.0,0.0,1.0753,1.1086,1.1248,1.124,1.124,1.1232,1.1053,1.0777,1.0371,0.9039,0.0,0.0,0.0,0.0,0.0,0.0,0.9551,1.0444,1.1484,1.2117,1.2312,1.2653,1.2751,1.254,1.1711,1.0997,1.0452,0.96,0.8877,0.8333,0.7464,0.0,0.0,0.0,0.0,0.0,0.0,0.0,0.0,0.0,0.0,0.0,0.0,0.0,0.0,0.0,0.0,0.0,0.0,0.0,0.0,0.6765,0.0,0.0,0.0,0.0,0.0,0.0,0.0,0.0,0.0,0.0,0.4362,0.4747,0.5211,0.5624,0.0,0.0,0.0,0.0,0.6489,0.6287,0.6233,0.5877,0.5114,0.4488,0.4077,0.3951,0.0,0.0,0.5314,0.4913,0.4358,0.3987,0.3669,0.3156,0.2052,0.1884,0.1895,0.198,0.1925,0.1868,0.1867,0.179,0.184,1.3725,0.0,0.0,0.0,0.0,1.187,1.2319,1.2981,1.2723,1.2481,1.2224,1.1554,0.0,0.0,0.0,0.0,0.0,0.0,1.0314,1.1118,1.1411,1.1703,1.1996,1.1857,1.1792,1.1784,1.1492,1.1224,1.0972,1.0331,0.9543,0.8641,0.0,0.0,0.0,0.0,0.9851,1.0623,1.1549,1.2117,1.2304,1.2653,1.2686,1.2385,1.189,1.137,1.0834,1.0193,0.9551,0.8893,0.813,0.0,0.0,0.0,0.0,0.0,0.0,0.0,0.0,0.0,0.0,0.0,0.0,0.0,0.0,0.0,0.0,0.0,0.0,0.0,0.7131,0.7391,0.759,0.0,0.0,0.0,0.0,0.0,0.0,0.0,0.0,0.0,0.5886,0.568,0.571,0.0,0.0,0.6451,0.6521,0.6737,0.6766,0.6589,0.0,0.0,0.0,0.5391,0.5023,0.4973,0.5124,0.5569,0.6173,0.5942,0.5526,0.5029,0.464,0.4101,0.2999,0.2674,0.2784,0.2738,0.2691,0.2616,0.2356,0.2266,0.2182,1.6111,1.4351,1.3644,1.3399,1.3443,1.3952,1.4415,1.4928,1.4748,1.461,1.427,1.3457,1.2575,1.1542,1.0695,0.0,0.0,0.0,1.0956,1.1622,1.1866,1.2134,1.2393,1.2369,1.2312,1.2231,1.1955,1.1727,1.1533,1.1183,1.0688,1.0038,0.0,0.0,0.9624,0.9908,1.0371,1.1013,1.1752,1.2231,1.241,1.2686,1.267,1.232,1.2028,1.1622,1.1086,1.0623,1.0071,0.9429,0.8723,0.7959,0.0,0.0,0.0,0.0,0.0,0.0,0.0,0.0,0.0,0.0,0.0,0.4702,0.4952,0.0,0.0,0.0,0.6554,0.7179,0.7748,0.8032,0.0,0.0,0.0,0.0,0.0,0.0,0.0,0.7982,0.7768,0.7557,0.7496,0.7174,0.6788,0.671,0.6611,0.6664,0.6811,0.0,0.6929,0.6843,0.6876,0.6709,0.6272,0.5851,0.5741,0.569,0.5923,0.6161,0.6493,0.6363,0.605,0.5697,0.54,0.483,0.4081,0.3901,0.4013,0.3927,0.3625,0.3188,0.2904,0.2691,0.247,1.8023,1.7214,1.6111,1.5597,1.5371,1.6024,1.6456,1.6786,1.6813,1.6612,1.6014,1.5277,1.421,1.2871,1.1469,0.0,0.0,1.1256,1.1533,1.2012,1.2207,1.2442,1.2613,1.2767,1.2751,1.258,1.241,1.2239,1.206,1.1727,1.1565,1.1533,1.055,1.0201,1.0493,1.0655,1.0997,1.1516,1.2036,1.2402,1.258,1.2735,1.2653,1.2312,1.2117,1.176,1.124,1.0883,1.0444,0.9916,0.925,0.856,0.7862,0.0,0.0,0.0,0.0,0.0,0.0,0.0,0.0,0.0,0.0,0.0,0.0,0.0,0.0,0.0,0.7309,0.0,0.8325,0.8682,0.0,0.0,0.0,0.8802,0.9099,0.8952,0.8977,0.9363,0.0,0.0,0.0,0.0,0.8178,0.7144,0.7019,0.6909,0.6998,0.708,0.7105,0.7023,0.7011,0.6865,0.654,0.6356,0.6214,0.6206,0.6272,0.6457,0.6597,0.6454,0.6314,0.6287,0.588,0.5695,0.5559,0.5318,0.5368,0.543,0.4591,0.377,0.3367,0.315,0.2781,1.8977,1.8646,1.828,1.7507,1.6525,1.6619,1.7039,1.7475,1.7191,1.7078,1.6871,1.5982,1.4966,1.3762,1.304,1.2882,1.3065,1.2733,1.2825,1.3168,1.2865,1.28,1.2962,1.2881,1.2816,1.2759,1.2588,1.2483,1.2426,1.2223,1.2117,1.2093,1.1711,1.1354,1.1045,1.1078,1.1297,1.1703,1.2101,1.2458,1.2759,1.2678,1.2523,1.2312,1.2004,1.1646,1.124,1.0883,1.0509,1.0111,0.9673,0.9112,0.8414,0.7821,0.0,0.0,0.0,0.0,0.0,0.0,0.0,0.0,0.0,0.5783,0.614,0.0,0.6846,0.0,0.7927,0.8519,0.8869,0.934,0.0,0.0,0.9697,0.9884,1.0048,0.9838,0.9905,1.0436,1.0336,1.028,1.0264,0.9888,0.9258,0.8499,0.7646,0.7096,0.7182,0.7215,0.7223,0.7199,0.7194,0.7174,0.6953,0.6841,0.6745,0.6749,0.6765,0.6757,0.6835,0.6823,0.6661,0.6601,0.6585,0.6426,0.6391,0.6371,0.6422,0.6524,0.56,0.4678,0.4295,0.3909,0.3507,1.951,1.9305,1.9305,1.872,1.7887,1.7887,1.809,1.8347,1.8111,1.7866,1.7612,1.6601,1.5786,1.5035,1.452,1.4399,1.4253,1.3935,1.378,1.3764,1.3341,1.3206,1.3214,1.3116,1.3076,1.3068,1.2889,1.28,1.2783,1.2548,1.2418,1.2418,1.2239,1.2004,1.1719,1.1622,1.176,1.2125,1.2402,1.2637,1.2824,1.2661,1.2483,1.2304,1.1963,1.1565,1.1126,1.0842,1.0493,1.0054,0.9778,0.938,0.8828,0.8292,0.7667,0.0,0.0,0.0,0.0,0.0,0.0,0.0,0.0,0.0,0.0,0.0,0.7724,0.0,0.8779,0.0,0.9543,1.0054,1.0396,1.0477,1.0647,1.0858,1.1118,1.1036,1.1246,1.1682,1.1796,1.1932,1.1788,1.1489,1.0872,1.0156,0.8945,0.7942,0.7431,0.7325,0.7354,0.728,0.7297,0.7288,0.7203,0.7109,0.7052,0.7047,0.7015,0.697,0.6921,0.6913,0.6896,0.6851,0.6843,0.6843,0.6843,0.6819,0.6843,0.6921,0.6455,0.5806,0.5088,0.4545,0.3994,1.9822,1.9639,1.9607,1.9467,1.9284,1.9252,1.9208,1.9133,1.8918,1.8702,1.8314,1.7327,1.6732,1.6313,1.6031,1.5621,1.5238,1.5126,1.4701,1.4139,1.3883,1.3579,1.3546,1.3409,1.3392,1.3505,1.3341,1.3259,1.3251,1.2947,1.2783,1.2759,1.2611,1.2521,1.2496,1.234,1.228,1.2564,1.2743,1.2824,1.28,1.2621,1.2442,1.2239,1.189,1.1459,1.0956,1.0737,1.0404,0.9949,0.973,0.9486,0.9177,0.8674,0.8146,0.0,0.7269,0.0,0.0,0.0,0.0,0.0,0.0,0.0,0.0,0.8357,0.8698,0.9194,0.9697,1.0071,1.0274,1.0785,1.1167,1.1313,1.1516,1.176,1.206,1.2264,1.2515,1.2865,1.3336,1.3512,1.3169,1.3118,1.2519,1.1684,1.0417,0.9256,0.7982,0.7606,0.7505,0.7337,0.7354,0.7354,0.7284,0.7203,0.7137,0.7121,0.7064,0.7003,0.699,0.6986,0.6986,0.6982,0.6974,0.6982,0.699,0.6982,0.6982,0.6986,0.6978,0.6661,0.5894,0.5198,0.4519,2.0404,2.0339,2.0156,2.0048,1.9994,1.9801,1.9499,1.9144,1.9101,1.8806,1.8275,1.7861,1.7457,1.7047,1.7037,1.6757,1.6336,1.6103,1.5671,1.5211,1.4548,1.4181,1.4005,1.3727,1.3653,1.3788,1.3746,1.3866,1.4266,1.4188,1.4083,1.3935,1.3626,1.3532,0.0,0.0,0.0,0.0,1.2743,1.2767,1.2613,1.2442,1.2199,1.1882,1.1516,0.0,1.0761,1.0436,1.0217,1.0103,0.9803,0.0,0.0,0.0,0.0,0.0,0.0,0.0,0.0,0.0,0.0,0.0,0.9226,0.921,0.8934,0.9315,0.9689,0.9949,1.0314,1.0672,1.0997,1.1508,1.1841,1.1882,1.2166,1.2393,1.2467,1.2629,1.2873,1.323,1.349,1.3758,1.3906,1.3698,1.3173,1.256,1.1423,1.0431,0.9666,0.8567,0.7697,0.7603,0.7472,0.739,0.7366,0.7292,0.7211,0.7145,0.7117,0.7072,0.7015,0.6998,0.6994,0.6994,0.699,0.6994,0.699,0.699,0.6998,0.699,0.6994,0.6841,0.6391,0.5677,0.4973,2.1179,0.0,2.1046,2.0935,0.0,2.0538,2.0124,1.9774,1.937,1.9041,1.8672,1.8555,1.8286,1.8039,1.8039,1.7834,1.7298,1.6994,1.6558,1.5904,1.514,1.4659,1.4331,1.3907,1.3866,1.4195,1.4241,1.4604,1.4862,1.5046,1.4946,1.4594,1.4314,1.4083,1.4024,1.3928,1.3709,1.3215,1.3308,1.3316,1.3215,1.3037,1.2809,1.253,0.0,0.0,0.0,0.0,0.0,0.0,0.0,0.0,0.0,0.0,0.0,0.9096,0.882,0.8714,0.8804,0.8974,0.9315,0.9851,1.029,1.0363,0.9916,1.029,1.0582,1.0688,1.1167,1.1565,1.1752,1.2166,1.2434,1.2442,1.2661,1.2824,1.2856,1.3068,1.3303,1.3498,1.3815,1.4107,1.4278,1.4311,1.4053,1.3625,1.2725,1.1899,1.1215,0.9524,0.8278,0.7918,0.7686,0.746,0.7448,0.7382,0.7313,0.7264,0.7223,0.7178,0.7133,0.7125,0.7113,0.7072,0.7092,0.7113,0.7068,0.7068,0.7084,0.7121,0.7145,0.7154,0.6837,0.6352,0.576,2.2397,2.2385,2.235,2.2198,2.2023,2.167,2.1204,2.0642,0.0,0.0,0.0,1.9165,1.9036,1.8853,1.8842,1.8603,1.7997,1.7847,1.7255,1.6396,1.583,1.5228,1.4768,1.4365,1.4357,1.475,1.4877,1.5226,1.5617,1.5734,1.5777,1.5338,1.4919,1.4665,1.4441,1.4545,1.4566,1.4268,1.4137,1.4137,1.4128,1.3949,1.3761,1.3555,1.317,1.2704,1.2158,1.1833,1.1467,1.0843,1.0792,1.059,1.0404,1.0128,1.003,1.0014,0.9754,0.9673,0.9851,0.9998,1.0249,1.053,1.1102,1.1224,1.0907,1.1151,1.1346,1.1403,1.1963,1.2312,1.2353,1.267,1.2881,1.2889,1.3092,1.323,1.3214,1.3482,1.3677,1.3742,1.4107,1.4448,1.4489,1.4789,1.4863,1.4578,1.3737,1.3169,1.2514,1.0577,0.8988,0.8512,0.8167,0.7677,0.7513,0.7464,0.7411,0.7378,0.7325,0.7284,0.7268,0.7264,0.7231,0.7162,0.7215,0.7219,0.717,0.7178,0.7211,0.7256,0.7309,0.7337,0.7137,0.6923,0.6601,2.466,2.4648,2.4397,2.4271,2.4221,2.3674,2.2673,2.1345,1.9992,1.9478,1.9435,1.9241,1.9133,1.9101,1.9101,1.8934,1.8446,1.8289,1.7765,0.0,1.6462,1.5937,1.5479,1.5211,1.5202,1.547,1.5867,1.6131,1.6545,1.6937,1.6698,1.6254,1.5819,1.5484,1.5128,1.5481,1.5639,1.5714,1.5062,1.48,1.4912,1.4594,1.4515,1.4298,1.391,1.3485,1.3022,1.259,1.2117,1.1722,1.1354,1.1017,1.0834,1.068,1.0582,1.0574,1.0526,1.0582,1.0761,1.0802,1.0924,1.1288,1.1663,1.1833,1.1646,1.1671,1.1825,1.2117,1.2272,1.2369,1.2523,1.2873,1.31,1.3108,1.3498,1.3725,1.3579,1.3742,1.388,1.3888,1.4196,1.4513,1.47,1.4984,1.5187,1.5047,1.4415,1.361,1.2738,1.1366,1.0313,0.9524,0.8988,0.8315,0.7838,0.7517,0.7472,0.7399,0.7382,0.7354,0.7297,0.7284,0.7276,0.7248,0.7268,0.7268,0.7248,0.7288,0.7305,0.7297,0.7325,0.7358,0.7366,0.7201,0.7201,2.574,2.5727,2.5596,2.5596,2.527,2.3915,2.2817,2.1619,2.0473,1.9919,1.9682,1.9575,1.9456,1.9348,1.9338,1.919,1.9033,1.8927,1.8581,1.8132,1.7573,1.6971,1.6358,1.6044,1.5979,1.6169,1.6593,1.7026,1.7298,1.7731,1.7679,1.7147,1.6748,1.6442,1.6118,1.6415,1.6707,1.6869,1.6085,1.5629,1.5751,1.5662,1.5505,1.5288,1.4972,1.4607,1.4173,1.3723,1.3211,1.2744,1.2212,1.1924,1.1671,1.1594,1.1481,1.146,1.1355,1.1487,1.1524,1.1638,1.1801,1.1913,1.2009,1.228,1.2483,1.2312,1.2272,1.245,1.2783,1.3059,1.3157,1.3555,1.3782,1.3693,1.3993,1.4075,1.3872,1.4034,1.4188,1.4221,1.4505,1.483,1.5114,1.5204,1.5285,1.5342,1.4767,1.4291,1.3906,1.3176,1.2128,1.056,0.974,0.9095,0.8306,0.7998,0.7821,0.7782,0.7619,0.7448,0.7411,0.7403,0.7382,0.7346,0.737,0.7378,0.7346,0.7395,0.7419,0.7419,0.7419,0.7448,0.746,0.7464,0.7309,2.7018,2.7004,2.7018,2.6724,2.6168,2.4389,2.3033,2.2194,2.1111,2.0404,2.0037,1.9951,1.9801,1.9585,1.9575,1.9575,1.9575,1.9521,1.934,1.8863,1.835,1.7875,1.728,1.6777,1.6671,1.6945,1.7329,1.759,1.7861,1.8282,1.8153,1.7851,1.7266,1.7015,1.6955,1.7213,1.7402,1.7662,1.7141,1.6789,1.6737,1.6686,1.6594,1.647,1.6141,1.5813,1.5463,1.4943,1.438,1.4013,1.3495,1.3076,1.2885,1.2776,1.261,1.25,1.2363,1.2206,1.2077,1.2304,1.2442,1.2483,1.2564,1.28,1.3325,1.3027,1.2865,1.2921,1.3327,1.362,1.3652,1.4002,1.4245,1.4091,1.4245,1.427,1.4091,1.4302,1.4513,1.457,1.4871,1.5195,1.5366,1.5366,1.5366,1.5431,1.5293,1.5155,1.5106,1.4788,1.3686,1.205,1.0952,1.033,0.9553,0.9085,0.8774,0.8622,0.815,0.7825,0.7665,0.7517,0.7501,0.7439,0.7472,0.748,0.7439,0.7472,0.7509,0.7505,0.7509,0.7517,0.7517,0.7517,0.7369,2.8573,2.873,2.8573,2.8246,2.7264,2.5648,2.4244,2.3248,2.1659,2.0737,2.0479,2.0274,2.0048,1.9833,1.9811,1.9811,1.9801,1.9596,1.9361,1.8884,1.8654,1.8258,1.7935,1.7713,1.7602,1.7571,1.7834,1.7882,1.8002,1.8293,1.8293,1.7861,1.7419,1.7307,1.741,1.7506,1.7633,1.8067,1.8101,1.8101,1.7887,1.7673,1.7652,1.7844,1.7192,1.6829,1.6744,1.6108,1.5576,1.5489,1.508,1.4915,1.4814,1.4475,1.4105,1.3837,1.3311,1.28,1.2328,1.2596,1.2873,1.3161,1.3311,1.3563,1.4073,1.3924,1.3766,1.375,1.3685,1.3677,1.366,1.3863,1.3961,1.388,1.4091,1.4245,1.4383,1.4554,1.4741,1.4903,1.5212,1.5423,1.535,1.5423,1.5504,1.5569,1.5618,1.5593,1.5488,1.5439,1.5027,1.3693,1.2824,1.2044,1.1101,1.0635,1.0014,0.9392,0.8929,0.8462,0.7838,0.7525,0.7517,0.7501,0.7509,0.7513,0.7513,0.7521,0.7521,0.7525,0.7525,0.7525,0.7525,0.7525,0.7369,2.8886,2.8886,2.8886,2.8573,2.7805,2.6215,2.5041,2.4306,2.2715,2.1623,2.1243,2.1133,2.0725,2.007,2.007,2.007,2.0059,1.9962,1.9767,1.9584,1.9511,1.9192,1.8896,1.8675,1.8496,1.8359,1.8396,1.828,1.8314,1.8293,1.8293,1.8153,1.8012,1.797,1.8015,1.8015,1.8154,1.8293,1.839,1.839,1.8304,1.8196,1.8196,1.8218,1.7733,1.7356,1.7217,1.6636,1.6191,1.6012,1.5509,1.5363,1.5316,1.4944,1.4435,1.3943,1.3515,1.3144,1.2946,1.3368,1.3612,1.3579,1.3709,1.3831,1.4039,1.3904,1.3945,1.4034,1.4002,1.392,1.3839,1.405,1.4221,1.4286,1.4497,1.4667,1.4741,1.4911,1.509,1.5268,1.5423,1.5536,1.5553,1.5618,1.5707,1.5796,1.5902,1.591,1.5837,1.574,1.5449,1.5003,1.4576,1.3625,1.24,1.1721,1.1107,1.0325,0.9547,0.8925,0.8154,0.7681,0.7525,0.7525,0.7525,0.7525,0.7521,0.7525,0.7525,0.7525,0.7525,0.7525,0.7525,0.7525,0.7369,2.9032,2.9017,2.9017,2.8817,2.8133,2.6783,2.5964,2.5251,2.384,2.2933,2.2441,2.2111,2.1614,2.0834,2.0526,2.0317,2.0307,2.0242,2.021,2.0188,1.9962,1.9758,1.9585,1.9359,1.9155,1.8993,1.8918,1.8832,1.8735,1.8724,1.8724,1.8713,1.8595,1.853,1.8519,1.8476,1.8466,1.853,1.853,1.8562,1.8616,1.8562,1.853,1.8498,1.8196,1.7927,1.7766,1.7262,1.6928,1.676,1.6462,1.624,1.624,1.5784,1.5163,1.4295,1.3832,1.3547,1.3465,1.3855,1.4042,1.3928,1.3945,1.4002,1.405,1.4131,1.4229,1.4302,1.4367,1.4326,1.4188,1.4399,1.4627,1.4765,1.4862,1.4919,1.5025,1.5139,1.5236,1.5463,1.5553,1.565,1.5804,1.5894,1.5991,1.6154,1.6243,1.6235,1.6194,1.6081,1.5959,1.5804,1.565,1.4995,1.3618,1.3064,1.2258,1.1454,1.0832,0.9858,0.8774,0.815,0.7681,0.7681,0.7525,0.7525,0.7525,0.7525,0.7525,0.7525,0.7525,0.7525,0.7525,0.7525,0.7525,2.9354,2.9354,2.9354,2.905,2.8318,2.7624,2.6946,2.6228,2.5422,2.4773,2.4258,2.346,2.2831,2.2442,2.1221,2.0554,2.0522,2.0328,2.0221,2.0199,1.9973,1.9844,1.9811,1.9596,1.9467,1.9391,1.9219,1.9208,1.9381,1.9413,1.9456,1.9413,1.8993,1.8778,1.8756,1.8573,1.8552,1.8724,1.8724,1.8842,1.9025,1.8853,1.8745,1.8745,1.8735,1.867,1.8649,1.8476,1.8336,1.8336,1.8111,1.8133,1.8175,1.7621,1.669,1.5444,1.4508,1.3977,1.3709,1.3855,1.3977,1.3969,1.4148,1.4253,1.444,1.4684,1.4773,1.4684,1.4773,1.4806,1.4676,1.4716,1.4862,1.4895,1.4806,1.4895,1.5179,1.513,1.5163,1.5463,1.5675,1.5861,1.6032,1.6178,1.6324,1.6503,1.669,1.6706,1.6535,1.6503,1.6276,1.5951,1.578,1.5699,1.5361,1.4546,1.3983,1.3134,1.1959,1.1113,1.0014,0.8925,0.8306,0.7838,0.7681,0.7525,0.7525,0.7525,0.7525,0.7525,0.7525,0.7525,0.7525,0.7525,0.7525,2.969,2.969,2.969,2.9617,2.9196,2.8297,2.7707,2.7437,2.6453,2.574,2.5263,2.4467,2.3828,2.3336,2.2373,2.1408,2.0759,2.0544,2.0361,2.0221,2.0124,2.0005,1.9844,1.9758,1.9628,1.9499,1.9413,1.9338,1.9295,1.9424,1.9499,1.9478,1.9338,1.9241,1.9176,1.8853,1.8702,1.8756,1.8649,1.8605,1.8724,1.8745,1.8778,1.8778,1.8778,1.8713,1.8562,1.8616,1.8443,1.8142,1.8293,1.8433,1.8293,1.7388,1.6375,1.5397,1.4802,1.4424,1.4297,1.44,1.4521,1.4732,1.4814,1.4846,1.4952,1.5057,1.5025,1.4814,1.4871,1.4919,1.4854,1.4732,1.4676,1.4781,1.4854,1.4976,1.5204,1.5374,1.5536,1.5675,1.5845,1.6097,1.6365,1.6414,1.643,1.6682,1.6714,1.6657,1.6584,1.6487,1.6332,1.6162,1.6016,1.5926,1.5878,1.5433,1.4916,1.4005,1.297,1.1959,1.0837,0.9708,0.908,0.8306,0.7838,0.7525,0.7525,0.7525,0.7525,0.7525,0.7525,0.7525,0.7525,0.7525,0.7525,3.0203,3.0056,3.0129,3.0042,2.9851,2.9105,2.8816,2.8556,2.7866,2.725,2.6692,2.587,2.5231,2.4566,2.3864,2.3003,2.2214,2.1603,2.09,2.0591,2.0515,2.0396,2.0102,2.007,1.9962,1.9768,1.9725,1.9639,1.9531,1.965,1.9725,1.9736,1.9585,1.9499,1.9435,1.9101,1.8907,1.8864,1.8745,1.867,1.8692,1.8821,1.8907,1.8918,1.8972,1.895,1.8789,1.8939,1.8795,1.8492,1.856,1.8485,1.8259,1.748,1.6632,1.5997,1.5377,1.5086,1.5032,1.4859,1.4952,1.5122,1.5139,1.5139,1.509,1.522,1.5163,1.5,1.5098,1.522,1.5171,1.4968,1.4854,1.5017,1.5114,1.522,1.539,1.5626,1.5772,1.5869,1.6016,1.6292,1.6568,1.6487,1.6527,1.6747,1.6649,1.6584,1.656,1.6487,1.6357,1.6308,1.6194,1.6097,1.6016,1.565,1.5481,1.4875,1.3998,1.297,1.181,1.0826,0.9703,0.8929,0.8154,0.7842,0.7681,0.7525,0.7525,0.7525,0.7525,0.7525,0.7525,0.7525,0.7525,3.0934,3.0481,3.07,3.0481,3.0056,3.0188,3.0144,2.9881,2.9661,2.9137,2.8443,2.779,2.6961,2.6413,2.5404,2.5084,2.4789,2.3305,2.2145,2.1772,2.1447,2.1034,2.0656,2.0635,2.0382,2.0188,2.0199,2.0199,2.0156,2.0188,2.021,2.0124,1.979,1.9639,1.9542,1.9338,1.9176,1.9198,1.9176,1.9155,1.9155,1.9176,1.9187,1.9198,1.937,1.9478,1.9478,1.9478,1.9456,1.9435,1.9262,1.8902,1.8362,1.8,1.7615,1.7067,1.6681,1.6172,1.5599,1.5253,1.5114,1.5098,1.5017,1.5033,1.5009,1.5293,1.5455,1.5333,1.5504,1.5715,1.5666,1.5512,1.5463,1.5699,1.5696,1.5688,1.5666,1.5926,1.6016,1.6016,1.6178,1.6292,1.6357,1.6438,1.6527,1.6552,1.6535,1.6503,1.6495,1.6454,1.6454,1.6341,1.6227,1.6146,1.6089,1.6024,1.5918,1.561,1.4979,1.4147,1.3127,1.1966,1.0647,0.9708,0.8466,0.7994,0.7525,0.7525,0.7525,0.7525,0.7525,0.7529,0.7525,0.7525,0.7525,3.152,3.1329,3.1198,3.1051,3.0803,3.051,3.0276,3.0173,2.9968,2.9807,2.9398,2.8579,2.7983,2.7469,2.6707,2.6307,2.6029,2.5358,2.4402,2.349,2.2905,2.2291,2.157,2.0878,2.0522,2.0468,2.0457,2.0447,2.0479,2.0597,2.0619,2.0447,2.0307,2.0242,2.0177,1.9854,1.9704,1.9844,1.9714,1.9628,1.9628,1.9628,1.9628,1.9639,1.9704,1.9811,1.9962,1.9833,1.9747,1.9747,1.9671,1.9511,1.9114,1.8932,1.8542,1.797,1.7195,1.6644,1.6242,1.5524,1.5293,1.5342,1.5447,1.5496,1.5472,1.5691,1.5788,1.5634,1.5715,1.5731,1.5618,1.5553,1.5577,1.5593,1.5553,1.5553,1.565,1.5723,1.591,1.6162,1.6267,1.6349,1.643,1.647,1.6389,1.6381,1.6308,1.6235,1.6227,1.6251,1.6202,1.6129,1.6113,1.6137,1.6081,1.6048,1.5991,1.5878,1.5465,1.4932,1.4042,1.3148,1.1804,1.0186,0.8939,0.8002,0.7686,0.7537,0.7546,0.7542,0.755,0.7546,0.7529,0.7542,0.7566,3.209,3.1959,3.1754,3.1593,3.1461,3.1037,3.0817,3.0685,3.0495,3.0261,2.9923,2.9554,2.9044,2.8641,2.8277,2.7859,2.7693,2.7776,2.7187,2.5818,2.4381,2.346,2.2519,2.1221,2.0684,2.0673,2.0608,2.0565,2.0565,2.0694,2.0705,2.0587,2.0554,2.0544,2.0544,2.0285,2.0199,2.0296,2.0199,2.0113,2.0113,2.0113,2.0113,2.0113,2.0113,2.0188,2.0328,2.0188,2.0113,2.0091,2.0037,1.9874,1.9754,1.9701,1.9295,1.8628,1.7766,1.718,1.6608,1.5956,1.5545,1.5642,1.5772,1.5829,1.5837,1.5983,1.6056,1.591,1.6008,1.6024,1.5951,1.5918,1.591,1.591,1.5731,1.5691,1.5772,1.5902,1.604,1.6251,1.63,1.6332,1.6324,1.63,1.6211,1.6186,1.6113,1.6048,1.6048,1.6056,1.6048,1.6048,1.6064,1.6073,1.6056,1.6048,1.6048,1.5934,1.5788,1.5473,1.4875,1.3944,1.2725,1.042,0.8826,0.8046,0.757,0.7586,0.7599,0.7591,0.7615,0.7619,0.7635,0.7648,0.7656,3.2588,3.2324,3.228,3.2076,3.1827,3.1739,3.1534,3.1344,3.1256,3.092,3.051,3.0393,3.0188,2.9939,2.9734,2.969,2.9895,2.9865,2.954,2.8325,2.6528,2.4864,2.3399,2.195,2.1315,2.0953,2.0759,2.0651,2.0684,2.0705,2.0597,2.0619,2.0619,2.0587,2.0608,2.0576,2.0576,2.0619,2.0608,2.0597,2.0608,2.0597,2.0597,2.0597,2.0608,2.0608,2.063,2.0619,2.0576,2.0533,2.0328,2.0156,2.0005,2.0113,1.978,1.9027,1.8601,1.7713,1.6924,1.6316,1.5959,1.5861,1.5991,1.5999,1.5926,1.6137,1.6267,1.6137,1.6349,1.6519,1.6503,1.6495,1.6495,1.6495,1.6097,1.5983,1.6227,1.6259,1.6227,1.6251,1.6276,1.6235,1.6113,1.6081,1.6073,1.6064,1.6056,1.6048,1.6048,1.6048,1.6048,1.6048,1.6048,1.6048,1.6048,1.6048,1.6048,1.5999,1.5886,1.5634,1.5176,1.4069,1.2895,1.0713,0.8893,0.8102,0.7652,0.7693,0.7725,0.7754,0.7758,0.775,0.7766,0.7795,0.7787,3.2719,3.2617,3.2383,3.2237,3.212,3.1915,3.1754,3.1637,3.1417,3.1212,3.1007,3.0803,3.051,3.0232,3.0217,3.01,2.9983,2.9983,3.0129,2.9876,2.8659,2.6195,2.4136,2.3156,2.224,2.1535,2.1168,2.1093,2.1093,2.105,2.0974,2.0823,2.0813,2.0813,2.0813,2.0813,2.092,2.1071,2.1082,2.1071,2.1071,2.106,2.1093,2.1093,2.1071,2.1071,2.1082,2.1093,2.091,2.0587,2.0511,2.0457,2.0361,2.0425,2.0167,1.928,1.8678,1.7925,1.7232,1.6601,1.6194,1.6186,1.63,1.6357,1.6186,1.6373,1.647,1.6454,1.6544,1.6592,1.6592,1.6592,1.6592,1.6552,1.6332,1.6194,1.6251,1.6186,1.6113,1.6113,1.6121,1.6097,1.6064,1.6048,1.6048,1.6048,1.6048,1.6048,1.6048,1.6048,1.6048,1.6048,1.6048,1.6048,1.6048,1.6048,1.6048,1.604,1.5983,1.5918,1.4954,1.3668,1.2217,1.0427,0.8889,0.7902,0.7811,0.7868,0.7897,0.7925,0.795,0.7962,0.7966,0.7987,0.7974,3.2763,3.2763,3.2573,3.2485,3.2471,3.2295,3.212,3.1944,3.1651,3.1417,3.1073,3.0964,3.0729,3.0554,3.0539,3.0451,3.0276,3.0276,3.0378,3.0345,2.9713,2.7535,2.4997,2.3927,2.3001,2.1807,2.1611,2.1362,2.1286,2.1276,2.119,2.1093,2.106,2.106,2.106,2.1071,2.1125,2.1243,2.1276,2.1276,2.1276,2.1276,2.1276,2.1276,2.1276,2.1276,2.1276,2.1276,2.1093,2.0791,2.0705,2.0673,2.0587,2.0662,2.0432,1.9563,1.8979,1.8183,1.7478,1.6818,1.6365,1.6349,1.647,1.6519,1.6479,1.6592,1.6698,1.669,1.6755,1.6795,1.6803,1.6803,1.6803,1.6803,1.6641,1.6479,1.6332,1.6227,1.6129,1.6073,1.6048,1.6048,1.6048,1.6048,1.6048,1.6048,1.6048,1.6048,1.6048,1.6048,1.6048,1.6048,1.6048,1.6048,1.6048,1.6048,1.6048,1.604,1.6032,1.5983,1.4898,1.345,1.1987,1.0525,0.8852,0.7885,0.7958,0.8032,0.8085,0.8117,0.815,0.8154,0.8146,0.8158,0.8146,3.2763,3.2763,3.2763,3.2763,3.2749,3.2763,3.2559,3.2121,3.1988,3.1509,3.1218,3.0869,3.0905,3.0876,3.0803,3.0803,3.0788,3.0715,3.0759,3.0622,3.0245,2.8634,2.6185,2.498,2.381,2.2549,2.1938,2.1709,2.1448,2.1373,2.133,2.1297,2.1286,2.1265,2.1233,2.1254,2.1276,2.1276,2.1276,2.1276,2.1276,2.1276,2.1276,2.1276,2.134,2.1351,2.1351,2.1351,2.1265,2.0996,2.0963,2.0856,2.0705,2.0856,2.0527,1.9907,1.927,1.8431,1.7697,1.7002,1.6568,1.6325,1.6584,1.6633,1.6861,1.6803,1.6877,1.6877,1.7023,1.7047,1.7055,1.7071,1.7039,1.7006,1.6925,1.669,1.6454,1.6341,1.6267,1.6121,1.6105,1.6073,1.6064,1.6056,1.6056,1.6129,1.6113,1.6081,1.6073,1.6073,1.6064,1.6048,1.6048,1.6048,1.6048,1.6048,1.6048,1.6048,1.6048,1.5851,1.4841,1.3596,1.2086,1.0596,0.9146,0.8202,0.8097,0.817,0.8244,0.8297,0.8326,0.8305,0.8285,0.8313,0.8317,3.2763,3.2763,3.2763,3.2763,3.2763,3.2763,3.2719,3.2617,3.2295,3.2046,3.1929,3.1446,3.1198,3.1183,3.0964,3.0817,3.0832,3.0817,3.0817,3.0817,3.0665,2.9784,2.8139,2.6926,2.5521,2.4021,2.3253,2.2521,2.1937,2.162,2.1545,2.1534,2.1405,2.1276,2.1286,2.1308,2.1276,2.1276,2.1276,2.1276,2.1276,2.1297,2.1308,2.133,2.1459,2.1545,2.1588,2.1739,2.1717,2.1502,2.1308,2.1179,2.1103,2.1136,2.0737,2.0028,1.9367,1.8551,1.7873,1.7203,1.6836,1.6893,1.6909,1.6998,1.6998,1.7006,1.7047,1.7055,1.7096,1.7112,1.7104,1.699,1.7006,1.7047,1.6966,1.6836,1.673,1.66,1.6503,1.643,1.6324,1.6251,1.6243,1.6137,1.6146,1.6202,1.6194,1.6137,1.6146,1.6162,1.6154,1.6162,1.6162,1.617,1.6097,1.6081,1.6048,1.5883,1.5883,1.5373,1.4361,1.337,1.1836,1.057,0.9319,0.8692,0.8199,0.833,0.8407,0.8452,0.8485,0.8468,0.8456,0.8477,0.846,3.2763,3.2763,3.2763,3.2763,3.2749,3.2617,3.2529,3.2441,3.2017,3.1915,3.1915,3.1505,3.1315,3.13,3.1124,3.0978,3.0846,3.0817,3.0817,3.0817,3.0817,3.0397,2.9784,2.8523,2.7122,2.489,2.3828,2.2922,2.2288,2.1857,2.1782,2.1782,2.1642,2.1556,2.1448,2.1437,2.1383,2.1297,2.1276,2.1276,2.1276,2.1394,2.1513,2.1588,2.1717,2.1782,2.1803,2.1889,2.19,2.1782,2.1663,2.1491,2.1308,2.1286,2.0884,2.0271,1.9532,1.8772,1.8154,1.7438,1.7006,1.7096,1.7112,1.7112,1.7112,1.7112,1.7112,1.7112,1.7112,1.7112,1.7104,1.7055,1.7039,1.7063,1.7031,1.6974,1.6942,1.6812,1.6665,1.66,1.6487,1.6446,1.6389,1.6324,1.6414,1.6552,1.6438,1.6389,1.6487,1.6487,1.6381,1.6365,1.6341,1.6292,1.6194,1.6121,1.6048,1.5883,1.5719,1.4706,1.3535,1.2554,1.157,1.0472,0.9352,0.8573,0.8277,0.8419,0.8522,0.8542,0.8562,0.8595,0.8583,0.8517,0.8522,3.2763,3.2763,3.2763,3.2749,3.2661,3.2471,3.2354,3.2019,3.1754,3.1856,3.1655,3.1593,3.1549,3.1461,3.1329,3.1124,3.089,3.0817,3.0817,3.0817,3.0817,3.0636,3.0274,2.9216,2.7561,2.5139,2.4303,2.3438,2.2485,2.204,2.2029,2.2008,2.1965,2.1825,2.1696,2.1663,2.1609,2.148,2.1459,2.1448,2.1459,2.1599,2.176,2.1868,2.1997,2.2019,2.204,2.2094,2.2105,2.2072,2.2072,2.1868,2.1599,2.1416,2.1227,2.0645,1.9823,1.9117,1.8485,1.7755,1.7279,1.7112,1.7112,1.7112,1.7112,1.7112,1.7112,1.7112,1.7112,1.7112,1.7112,1.7088,1.7096,1.7112,1.7112,1.7112,1.7088,1.6974,1.6836,1.673,1.6674,1.6641,1.6649,1.6633,1.6763,1.6844,1.6722,1.6674,1.6771,1.673,1.6592,1.6503,1.6462,1.6446,1.6357,1.6308,1.6219,1.5798,1.5609,1.4239,1.2893,1.1718,1.0915,1.0299,0.9352,0.8748,0.833,0.8452,0.8538,0.8591,0.8607,0.8607,0.8579,0.8538,0.8566,3.2763,3.2763,3.2763,3.2617,3.2427,3.2588,3.25,3.2339,3.2383,3.2544,3.2515,3.2251,3.2061,3.1973,3.1505,3.1139,3.0934,3.0846,3.0817,3.0817,3.0817,3.0665,2.9998,2.8978,2.7369,2.6174,2.5143,2.4074,2.2824,2.2385,2.2277,2.2234,2.2105,2.1976,2.1954,2.1911,2.1879,2.1782,2.1771,2.1782,2.1814,2.1868,2.1954,2.2051,2.2191,2.2266,2.232,2.2449,2.2568,2.2568,2.2568,2.2503,2.2299,2.2019,2.1505,2.0986,2.0337,1.9704,1.884,1.8095,1.7805,1.7647,1.7288,1.7112,1.7112,1.7128,1.7161,1.7153,1.7145,1.712,1.7112,1.712,1.7112,1.7112,1.7128,1.7145,1.7136,1.7112,1.7088,1.7031,1.6933,1.6844,1.686,1.6909,1.7031,1.7088,1.7039,1.7006,1.7063,1.6909,1.6674,1.6609,1.6568,1.656,1.6527,1.6503,1.6269,1.563,1.5067,1.3818,1.2451,1.107,1.008,0.9613,0.9027,0.8448,0.8379,0.8481,0.855,0.8603,0.8607,0.8607,0.8591,0.857,0.8579,3.2763,3.2749,3.2602,3.2529,3.25,3.2324,3.228,3.228,3.228,3.2368,3.2441,3.2354,3.228,3.2193,3.2002,3.1549,3.1139,3.0876,3.0832,3.0817,3.0665,3.0165,2.9481,2.8292,2.694,2.5568,2.4897,2.4052,2.2837,2.2579,2.2503,2.2492,2.2385,2.2288,2.2191,2.2159,2.2083,2.2019,2.1986,2.1986,2.2008,2.2083,2.2191,2.2342,2.2428,2.2503,2.2535,2.26,2.2675,2.2675,2.2675,2.2686,2.2579,2.2417,2.1917,2.1563,2.0757,2.0055,1.9358,1.8645,1.8164,1.7822,1.7288,1.7112,1.7136,1.7193,1.7283,1.7339,1.7283,1.725,1.7258,1.7177,1.7161,1.7234,1.7258,1.7291,1.7348,1.7372,1.7364,1.7323,1.7153,1.7055,1.7055,1.7136,1.7266,1.7315,1.7315,1.7339,1.7356,1.7161,1.6909,1.6828,1.6795,1.6738,1.6714,1.6665,1.6454,1.5817,1.4865,1.3607,1.234,1.1121,0.9746,0.891,0.834,0.8289,0.8383,0.8468,0.8542,0.8607,0.8607,0.8607,0.8607,0.8607,0.8607,3.2573,3.2544,3.2295,3.2339,3.2471,3.2105,3.2046,3.2207,3.212,3.2193,3.2354,3.2398,3.2398,3.2339,3.2163,3.1841,3.13,3.0964,3.0832,3.0665,3.0332,2.9663,2.8628,2.7617,2.6261,2.4897,2.4052,2.3376,2.2859,2.2665,2.2675,2.2654,2.2665,2.26,2.2439,2.2406,2.2256,2.218,2.2105,2.2105,2.2159,2.2299,2.2482,2.2654,2.2686,2.2675,2.2654,2.2675,2.2686,2.2686,2.2686,2.2686,2.2643,2.246,2.2278,2.2052,2.1248,2.0607,1.9895,1.9195,1.8514,1.7998,1.7463,1.7128,1.7218,1.7339,1.7486,1.7583,1.7534,1.7404,1.7364,1.7291,1.7291,1.7339,1.7413,1.7478,1.7551,1.7583,1.7567,1.7478,1.7323,1.7291,1.7307,1.7266,1.738,1.7543,1.7551,1.7575,1.7583,1.7486,1.7283,1.7153,1.7063,1.6974,1.6901,1.682,1.6591,1.6152,1.5198,1.4089,1.2614,1.1171,0.9958,0.876,0.834,0.8281,0.837,0.846,0.8554,0.8607,0.8607,0.8607,0.8607,0.8599,0.8595,3.1915,3.1915,3.1871,3.1871,3.1973,3.2105,3.2222,3.2295,3.2471,3.2661,3.2632,3.269,3.2661,3.2573,3.2076,3.1666,3.1315,3.0993,3.0817,3.0665,3.0332,2.9328,2.8136,2.6783,2.558,2.4224,2.3376,2.2859,2.2686,2.2686,2.2686,2.2686,2.2686,2.2654,2.2611,2.2589,2.2622,2.2589,2.2568,2.2568,2.2568,2.26,2.2643,2.2675,2.2686,2.2686,2.2686,2.2686,2.2686,2.2686,2.2686,2.2686,2.2643,2.246,2.2492,2.2364,2.1947,2.1129,2.0402,1.9709,1.8936,1.8418,1.7689,1.7386,1.7372,1.751,1.7632,1.7624,1.7616,1.7567,1.7502,1.751,1.7494,1.751,1.7559,1.7607,1.7681,1.7786,1.777,1.7721,1.7583,1.7567,1.7575,1.751,1.7486,1.7656,1.7786,1.7802,1.7944,1.764,1.7502,1.7323,1.7234,1.7145,1.7031,1.6958,1.6735,1.6482,1.5519,1.44,1.3094,1.1786,1.0335,0.9328,0.8727,0.8244,0.8289,0.8395,0.8546,0.8607,0.8607,0.8607,0.8607,0.8599,0.8583,3.1461,3.1768,3.1593,3.1739,3.2032,3.1856,3.1959,3.2222,3.2237,3.2324,3.2471,3.25,3.2588,3.2602,3.209,3.1739,3.149,3.1051,3.0832,3.0651,3.015,2.8978,2.7448,2.6261,2.4897,2.3709,2.3031,2.2859,2.2686,2.2686,2.2686,2.2686,2.2686,2.2686,2.2686,2.2686,2.2675,2.2675,2.2675,2.2675,2.2686,2.2686,2.2686,2.2686,2.2686,2.2686,2.2686,2.2686,2.2686,2.2686,2.2686,2.2686,2.2675,2.26,2.26,2.2654,2.2567,2.2047,2.1209,2.0314,1.9673,1.8831,1.7948,1.7502,1.7656,1.7746,1.7851,1.794,1.7851,1.7762,1.7672,1.7656,1.7672,1.7689,1.7737,1.7827,1.7884,1.7932,1.7973,1.7916,1.7851,1.7802,1.7778,1.7754,1.7672,1.7681,1.7843,1.794,1.7851,1.7713,1.7559,1.7388,1.7331,1.7291,1.7161,1.7055,1.7055,1.6633,1.5986,1.4866,1.3747,1.2264,1.0965,0.9734,0.8766,0.8432,0.8236,0.8342,0.8501,0.8562,0.8607,0.8591,0.857,0.8587,0.8562,3.111,3.152,3.1285,3.1563,3.2105,3.1622,3.1827,3.2339,3.2193,3.2207,3.2354,3.2441,3.2573,3.2573,3.2134,3.1783,3.1739,3.1124,3.0876,3.0484,2.9983,2.8628,2.7448,2.6091,2.4897,2.3031,2.302,2.3031,2.2859,2.2859,2.2686,2.2686,2.2686,2.2686,2.2686,2.2686,2.2686,2.2686,2.2686,2.2686,2.2686,2.2686,2.2686,2.2686,2.2686,2.2686,2.2686,2.2686,2.2686,2.2686,2.2686,2.2686,2.2675,2.2665,2.2654,2.2751,2.2902,2.2568,2.1716,2.0928,2.0148,1.9103,1.825,1.7737,1.7859,1.794,1.8014,1.8127,1.8054,1.7973,1.7916,1.7811,1.7835,1.7884,1.794,1.8054,1.8127,1.8103,1.8087,1.8054,1.7997,1.7949,1.7932,1.7965,1.79,1.7786,1.7875,1.8038,1.7973,1.7827,1.7729,1.7599,1.7567,1.751,1.7372,1.7258,1.7226,1.6961,1.6315,1.5496,1.4361,1.2897,1.1429,1.0209,0.8994,0.8569,0.8174,0.8313,0.8444,0.8473,0.8497,0.8522,0.853,0.8538,0.8501,3.0846,3.089,3.0876,3.1242,3.1827,3.1798,3.212,3.2588,3.2632,3.2602,3.2632,3.2719,3.2719,3.2602,3.2149,3.1798,3.1768,3.1124,3.089,3.0665,3.0165,2.9006,2.7825,2.6834,2.5811,2.4293,2.396,2.3593,2.3376,2.3215,2.2859,2.2686,2.2859,2.2686,2.2686,2.2686,2.2686,2.2686,2.2686,2.2686,2.2686,2.2686,2.2686,2.2686,2.2686,2.2686,2.2686,2.2686,2.2686,2.2686,2.2686,2.2686,2.2686,2.2686,2.2686,2.2815,2.3106,2.2768,2.1949,2.1103,2.0005,1.9156,1.8342,1.7908,1.7965,1.8087,1.816,1.8168,1.8127,1.807,1.803,1.8014,1.8014,1.8005,1.8038,1.8103,1.816,1.816,1.8152,1.8168,1.8127,1.8062,1.8038,1.8054,1.7981,1.7867,1.7916,1.807,1.8127,1.803,1.7965,1.7884,1.7851,1.777,1.7624,1.751,1.7372,1.7274,1.6824,1.5981,1.5155,1.368,1.1732,1.0625,0.938,0.8735,0.8138,0.8248,0.833,0.8354,0.8375,0.8387,0.8387,0.8383,0.8338,3.0817,3.0817,3.0817,3.1081,3.1505,3.149,3.1754,3.2134,3.2178,3.2295,3.25,3.2676,3.2763,3.2588,3.2134,3.1798,3.171,3.111,3.089,3.0665,3.0165,2.9593,2.8649,2.8076,2.7285,2.6327,2.5574,2.4973,2.4454,2.396,2.3892,2.3709,2.3193,2.3031,2.3031,2.2859,2.2686,2.2686,2.2686,2.2686,2.2686,2.2686,2.2686,2.2686,2.2686,2.2686,2.2686,2.2686,2.2686,2.2686,2.2686,2.2686,2.2697,2.2697,2.2772,2.2902,2.3235,2.2904,2.2171,2.1355,2.0162,1.8894,1.8223,1.8062,1.8054,1.8144,1.8168,1.8176,1.8176,1.8119,1.8119,1.8127,1.8135,1.8111,1.8119,1.816,1.8176,1.8176,1.8176,1.8176,1.8168,1.8135,1.8127,1.8135,1.8038,1.7949,1.8022,1.8095,1.8144,1.8168,1.8087,1.8022,1.7981,1.7867,1.7713,1.7591,1.7486,1.721,1.7129,1.6095,1.5074,1.35,1.1868,1.0559,0.9618,0.8671,0.826,0.8207,0.8219,0.826,0.8256,0.8232,0.8232,0.8236,0.8211,3.0817,3.0832,3.0934,3.1154,3.1432,3.1461,3.171,3.2046,3.212,3.2207,3.2441,3.2676,3.2763,3.2602,3.2222,3.1871,3.1695,3.1271,3.0978,3.0738,3.0629,3.0085,2.9561,2.9186,2.8778,2.8043,2.7343,2.6487,2.5598,2.5199,2.4932,2.4395,2.3709,2.3376,2.3537,2.302,2.2686,2.2686,2.2686,2.2686,2.2686,2.2772,2.2805,2.2837,2.2891,2.288,2.2848,2.2826,2.2762,2.2718,2.2686,2.2686,2.2708,2.2762,2.288,2.3085,2.3144,2.3221,2.2484,2.1375,2.0205,1.8879,1.8524,1.8346,1.8176,1.8176,1.8176,1.8176,1.8176,1.8176,1.8176,1.8176,1.8176,1.8144,1.8144,1.8176,1.8176,1.8176,1.8176,1.8176,1.8168,1.8168,1.8168,1.816,1.8119,1.8054,1.8087,1.8127,1.8152,1.8168,1.8135,1.8079,1.8038,1.7908,1.7762,1.7705,1.7443,1.6868,1.6425,1.5439,1.4292,1.2875,1.1616,1.0485,0.936,0.8611,0.8383,0.8321,0.8244,0.8183,0.817,0.8158,0.8146,0.8154,0.8154,3.0817,3.0861,3.1154,3.1476,3.1739,3.1783,3.212,3.2559,3.2661,3.2676,3.2705,3.2763,3.2763,3.2676,3.2354,3.209,3.1827,3.1476,3.1198,3.1066,3.1044,3.0637,3.0439,3.0093,3.0115,2.9125,2.8446,2.7784,2.671,2.6068,2.5787,2.508,2.4395,2.3709,2.4372,2.3365,2.2686,2.2686,2.2686,2.2686,2.2772,2.2912,2.2977,2.3074,2.3171,2.316,2.3074,2.2977,2.2912,2.2848,2.2772,2.2772,2.2805,2.2966,2.3074,2.3149,2.3504,2.3529,2.2868,2.1413,2.0205,1.9116,1.893,1.8549,1.8363,1.8176,1.8176,1.8176,1.8176,1.8176,1.8176,1.8176,1.8176,1.8176,1.8176,1.8176,1.8176,1.8176,1.8176,1.8176,1.8176,1.8176,1.8176,1.8176,1.8176,1.816,1.8168,1.8176,1.8176,1.8168,1.8144,1.8135,1.8095,1.8038,1.7924,1.7875,1.7579,1.6798,1.5883,1.4893,1.3597,1.1982,1.0905,1.0011,0.9273,0.8509,0.8473,0.8432,0.8338,0.8236,0.8138,0.8105,0.8089,0.8085,0.8097,3.0817,3.0846,3.1183,3.149,3.1798,3.2032,3.2266,3.2456,3.2661,3.2763,3.2763,3.2763,3.2763,3.2661,3.2471,3.2222,3.2076,3.1798,3.1505,3.149,3.1593,3.1611,3.157,3.1512,3.151,3.135,3.0573,2.9376,2.8685,2.738,2.6808,2.6091,2.4738,2.4041,2.3537,2.2859,2.2686,2.2686,2.2697,2.2751,2.2912,2.302,2.3138,2.3268,2.3386,2.3386,2.3278,2.3181,2.3095,2.3074,2.3009,2.2988,2.3085,2.3257,2.3343,2.3451,2.3741,2.3646,2.3023,2.2063,2.0779,1.986,1.9116,1.8744,1.8363,1.8176,1.8176,1.8176,1.8176,1.8176,1.8176,1.8176,1.8176,1.8176,1.8176,1.8176,1.8176,1.8176,1.8176,1.8176,1.8176,1.8176,1.8176,1.8168,1.8168,1.8135,1.8127,1.816,1.8176,1.8176,1.8168,1.8168,1.8152,1.8135,1.8087,1.7949,1.7421,1.6829,1.5541,1.4135,1.2686,1.1266,1.0204,0.9313,0.8947,0.8579,0.8522,0.846,0.8395,0.8305,0.8219,0.815,0.8142,0.8109,0.8072,3.0817,3.0876,3.13,3.1593,3.1827,3.2149,3.2339,3.2471,3.2676,3.2719,3.2632,3.2705,3.269,3.2588,3.2515,3.2339,3.228,3.209,3.1827,3.1841,3.1929,3.2061,3.2222,3.2412,3.2178,3.2221,3.1757,3.0705,2.9312,2.8353,2.6897,2.5433,2.4909,2.3948,2.313,2.2826,2.2826,2.2858,2.2912,2.3042,2.316,2.3268,2.3386,2.3515,2.3601,2.3623,2.3504,2.3408,2.3311,2.3343,2.33,2.3246,2.3375,2.3504,2.3591,2.3709,2.386,2.3764,2.3515,2.2995,2.1898,2.0964,2.0037,1.9116,1.8549,1.8549,1.8363,1.8176,1.8176,1.8176,1.8176,1.8176,1.8176,1.8176,1.8176,1.8176,1.8176,1.8176,1.8176,1.8176,1.8176,1.8176,1.8176,1.816,1.8152,1.8111,1.8079,1.8111,1.8135,1.8135,1.8127,1.8127,1.8127,1.8103,1.803,1.7916,1.7389,1.668,1.5227,1.3629,1.1976,1.056,0.9674,0.8786,0.8603,0.8583,0.8542,0.8485,0.8464,0.8411,0.8334,0.8272,0.8215,0.8138,0.8068,3.0817,3.092,3.1534,3.1783,3.1856,3.2149,3.2456,3.2749,3.2749,3.2573,3.2324,3.2617,3.2588,3.2412,3.2602,3.2588,3.2398,3.2324,3.2163,3.2046,3.2207,3.231,3.2427,3.2602,3.216,3.1926,3.1345,3.0134,2.9032,2.7624,2.5811,2.4293,2.4109,2.3531,2.3119,2.3074,2.3074,2.3117,2.3181,2.33,2.3408,2.3569,2.3666,2.3774,2.3881,2.3881,2.3795,2.3688,2.3591,2.3526,2.3429,2.3429,2.3683,2.3824,2.372,2.3828,2.4,2.4064,2.3924,2.3373,2.3005,2.2073,2.1149,2.0037,1.9302,1.893,1.8549,1.8363,1.8176,1.8176,1.8176,1.8176,1.8176,1.8176,1.8176,1.8176,1.8176,1.8176,1.8176,1.8176,1.8176,1.8176,1.8168,1.8152,1.8095,1.8014,1.7965,1.7949,1.7973,1.8014,1.8014,1.8022,1.803,1.8038,1.7965,1.7867,1.7199,1.6499,1.4563,1.2985,1.1509,1.0209,0.9322,0.8607,0.8607,0.8591,0.8562,0.8566,0.8583,0.8517,0.8428,0.8338,0.8264,0.8138,0.8072,3.0817,3.089,3.152,3.1798,3.1841,3.2149,3.2471,3.2719,3.2544,3.2354,3.228,3.2383,3.2368,3.231,3.2617,3.2676,3.2661,3.2632,3.2602,3.2559,3.2515,3.2602,3.2484,3.2351,3.1863,3.104,3.0328,2.9419,2.8165,2.6598,2.5342,2.4109,2.3542,2.3152,2.3336,2.3375,2.3375,2.3386,2.344,2.3526,2.3623,2.3741,2.3849,2.3978,2.4054,2.4043,2.3989,2.3838,2.3774,2.3871,2.3709,2.3709,2.3924,2.3978,2.4011,2.4011,2.4086,2.4118,2.4118,2.3751,2.3373,2.3005,2.2073,2.0788,1.986,1.9116,1.8735,1.8363,1.8176,1.8176,1.8176,1.8176,1.8176,1.8176,1.8176,1.8176,1.8176,1.8176,1.8176,1.8176,1.8176,1.8176,1.8168,1.8095,1.8022,1.7924,1.7851,1.7827,1.7811,1.7851,1.7884,1.7892,1.7884,1.7884,1.7884,1.7802,1.7159,1.6144,1.4403,1.2675,1.1498,1.0209,0.9143,0.8607,0.8607,0.8607,0.8603,0.8607,0.8607,0.8579,0.8501,0.8407,0.8309,0.8195,0.8134,3.0817,3.092,3.152,3.1871,3.1988,3.2061,3.2207,3.2324,3.2178,3.2046,3.1929,3.2178,3.2207,3.2163,3.2529,3.2763,3.2749,3.2734,3.2719,3.2719,3.2763,3.2572,3.2409,3.1685,3.0959,2.9985,2.9178,2.8335,2.7219,2.5782,2.4523,2.372,2.3249,2.3171,2.3354,2.358,2.3698,2.3698,2.372,2.3774,2.3828,2.3881,2.4,2.4075,2.4118,2.4118,2.4107,2.3924,2.3989,2.4097,2.3924,2.3957,2.4107,2.4107,2.4107,2.4097,2.4107,2.4118,2.4118,2.3935,2.3751,2.3383,2.2637,2.1529,2.0594,1.9666,1.8922,1.8363,1.8363,1.8176,1.8176,1.8176,1.8176,1.8176,1.8176,1.8176,1.8176,1.8176,1.8176,1.8176,1.8176,1.8176,1.8135,1.8054,1.7981,1.7924,1.7827,1.7729,1.7697,1.7681,1.7713,1.7737,1.7721,1.7713,1.7713,1.7547,1.6931,1.5963,1.447,1.2903,1.1514,1.0209,0.8964,0.8607,0.8607,0.8607,0.8607,0.8607,0.8603,0.8579,0.8546,0.8464,0.8383,0.8301,0.8268,3.0817,3.0876,3.1505,3.1915,3.2163,3.19,3.1754,3.1724,3.1695,3.1578,3.149,3.1929,3.2017,3.1988,3.2398,3.2705,3.2749,3.2763,3.2763,3.2763,3.2586,3.2409,3.1685,3.0959,2.9887,2.8989,2.8038,2.699,2.6175,2.5006,2.3986,2.3386,2.3257,2.3332,2.3612,2.3763,2.3881,2.3967,2.3989,2.4032,2.4054,2.4097,2.4118,2.4107,2.4118,2.4118,2.4118,2.4107,2.4118,2.4107,2.4107,2.4107,2.4107,2.4118,2.4118,2.4118,2.4118,2.4118,2.4118,2.3924,2.3935,2.3567,2.3189,2.1898,2.0779,2.0037,1.9108,1.8363,1.8176,1.8176,1.8176,1.8176,1.8176,1.8176,1.8176,1.8176,1.8176,1.8176,1.8176,1.8176,1.8176,1.8176,1.8152,1.8079,1.7973,1.7932,1.7819,1.7689,1.7632,1.7583,1.7551,1.7575,1.751,1.7502,1.7599,1.7427,1.6876,1.5753,1.4276,1.2734,1.1141,0.9857,0.8786,0.8607,0.8607,0.8607,0.8607,0.8607,0.8607,0.8595,0.8558,0.8509,0.8444,0.8391,0.8375,3.0817,3.0861,3.1256,3.1622,3.1856,3.1563,3.1285,3.1066,3.1066,3.1168,3.1315,3.1476,3.1681,3.1885,3.2237,3.2529,3.2749,3.2763,3.2763,3.2586,3.2409,3.1891,3.0973,3.0079,2.8629,2.7353,2.6241,2.5627,2.4857,2.4151,2.3851,2.3451,2.3429,2.3634,2.3774,2.3903,2.4043,2.4118,2.4118,2.4118,2.4118,2.4118,2.4118,2.4118,2.4118,2.4118,2.4118,2.4118,2.4118,2.4118,2.4118,2.4118,2.4118,2.4118,2.4118,2.4118,2.4118,2.4118,2.3935,2.3751,2.3567,2.3199,2.2637,2.1714,2.0779,2.0037,1.9294,1.8549,1.8176,1.8176,1.8176,1.8176,1.8176,1.8176,1.8176,1.8176,1.8176,1.8176,1.8176,1.8176,1.8176,1.8168,1.8152,1.8095,1.7989,1.7875,1.7754,1.7648,1.7624,1.7575,1.7421,1.7396,1.7266,1.7274,1.7226,1.6955,1.622,1.5118,1.3462,1.2107,1.0585,0.9505,0.8607,0.8607,0.8607,0.8607,0.8607,0.8607,0.8607,0.8599,0.8595,0.855,0.8554,0.8517,0.8493,3.0744,3.0656,3.0964,3.1359,3.1666,3.13,3.0993,3.0846,3.0817,3.092,3.111,3.1256,3.149,3.1812,3.2134,3.2456,3.2719,3.2763,3.2763,3.2586,3.2246,3.1742,3.0836,2.9375,2.7739,2.6288,2.5377,2.4569,2.4074,2.3774,2.3666,2.3677,2.3795,2.3806,2.3892,2.4054,2.4118,2.4118,2.4118,2.4118,2.4118,2.4118,2.4118,2.4118,2.4118,2.4118,2.4118,2.4118,2.4118,2.4118,2.4118,2.4118,2.4118,2.4118,2.4118,2.4118,2.4118,2.4118,2.3935,2.3751,2.3383,2.2821,2.2083,2.1149,2.0232,1.9488,1.9108,1.8363,1.8176,1.8176,1.8176,1.8176,1.8176,1.8176,1.8176,1.8176,1.8176,1.8176,1.8176,1.8176,1.8176,1.8176,1.816,1.8152,1.807,1.807,1.7908,1.7802,1.7746,1.7648,1.7469,1.7129,1.7049,1.6792,1.6872,1.6247,1.557,1.4296,1.2663,1.1183,0.988,0.9152,0.8607,0.8607,0.8607,0.8607,0.8607,0.8607,0.8607,0.8607,0.8607,0.8599,0.8607,0.8607,0.8575,3.07,3.0525,3.0729,3.1168,3.1593,3.1095,3.0832,3.0817,3.0817,3.0817,3.0876,3.1124,3.1446,3.1812,3.2076,3.2427,3.2676,3.2749,3.2763,3.2586,3.2054,3.1193,3.0133,2.8861,2.7027,2.5753,2.4657,2.4291,2.4064,2.3946,2.3914,2.4032,2.3989,2.3903,2.4054,2.4118,2.4118,2.4118,2.4118,2.4118,2.4118,2.4118,2.4118,2.4118,2.4118,2.4118,2.4118,2.4118,2.4118,2.4118,2.4118,2.4118,2.4118,2.4118,2.4118,2.4118,2.4118,2.4118,2.3935,2.3557,2.2995,2.2442,2.1694,2.0779,1.986,1.9116,1.8744,1.8363,1.8176,1.8176,1.8176,1.8176,1.8176,1.8176,1.8176,1.8176,1.8176,1.8176,1.8176,1.8176,1.8176,1.8176,1.8176,1.8168,1.8168,1.8176,1.8144,1.807,1.7973,1.7843,1.7507,1.7135,1.6635,1.6557,1.6271,1.5403,1.4586,1.3139,1.1693,1.0257,0.9173,0.8798,0.8607,0.8607,0.8607,0.8607,0.8607,0.8607,0.8607,0.8607,0.8607,0.8607,0.8607,0.8607,0.8607,3.0949,3.111,3.092,3.1051,3.1315,3.0993,3.0817,3.0817,3.0817,3.0817,3.0846,3.0905,3.1227,3.1798,3.1841,3.2163,3.2646,3.2734,3.2763,3.2763,3.1863,3.0629,2.9208,2.8138,2.6288,2.5012,2.4291,2.4107,2.4107,2.4064,2.4043,2.4097,2.4097,2.4054,2.4075,2.4118,2.4118,2.4118,2.4118,2.4118,2.4118,2.4118,2.4118,2.4118,2.4118,2.4118,2.4118,2.4118,2.4118,2.4118,2.4118,2.4118,2.4118,2.4118,2.4118,2.4118,2.4118,2.4118,2.3935,2.3373,2.2626,2.2063,2.114,2.0223,1.9488,1.893,1.8557,1.8363,1.8176,1.8176,1.8176,1.8176,1.8176,1.8176,1.8176,1.8176,1.8176,1.8176,1.8176,1.8176,1.8176,1.8176,1.8176,1.8176,1.8176,1.8176,1.8176,1.8111,1.8095,1.7997,1.7716,1.7152,1.6407,1.5683,1.5197,1.4285,1.3255,1.1821,1.0748,0.9688,0.8977,0.8794,0.8607,0.8607,0.8607,0.8607,0.8607,0.8607,0.8607,0.8607,0.8607,0.8607,0.8607,0.8607,0.8607]}]]